[[{"header":{"parameterUnit":"m.s-1","parameterCategory":1,"la1":31.0,"la2":29.5877,"lo1":-88.7671,"lo2":-86.6584,"dy":0.0162,"dx":0.0185,"nx":115,"ny":88,"refTime":"2023-06-12T06:00:00:Z","depth":0,"parameterNumber":2,"parameterNumberName":"U-component_of_WINDS"},"data":[0.0,0.0,0.0,0.0,0.0,0.0,0.0,0.0,0.0,0.0,0.0,0.0,0.0,0.0,0.0,0.0,0.0,0.0,0.0,0.0,0.0,0.0,0.0,0.0,0.0,0.0,0.0,0.0,0.0,0.0,0.0,0.0,0.0,0.0,0.0,0.0,0.0,0.0,0.0,0.0,0.0,0.0,0.0,0.0,0.0,0.0,0.0,0.0,0.0,0.0,0.0,0.0,0.0,0.0,0.0,0.0,0.0,0.0,0.0,0.0,0.0,0.0,0.0,0.0,0.0,0.0,0.0,0.0,0.0,0.0,0.0,0.0,0.0,0.0,0.0,0.0,0.0,0.0,0.0,0.0,0.0,0.0,0.0,0.0,0.0,0.0,0.0,0.0,0.0,0.0,0.0,0.0,0.0,0.0,0.0,0.0,0.0,0.0,0.0,0.0,0.0,0.0,0.0,0.0,0.0,0.0,0.0,0.0,0.0,0.0,0.0,0.0,0.0,0.0,0.0,0.0,0.0,0.0,0.0,0.0,0.0,0.0,0.0,0.0,0.0,0.0,0.0,0.0,0.0,0.0,0.0,0.0,0.0,0.0,0.0,0.0,0.0,0.0,0.0,0.0,0.0,0.0,0.0,0.0,0.0,0.0,0.0,0.0,0.0,0.0,0.0,0.0,0.0,0.0,0.0,0.0,0.0,0.0,0.0,0.0,0.0,0.0,0.0,0.0,0.0,0.0,0.0,0.0,0.0,0.0,0.0,0.0,0.0,0.0,0.0,0.0,0.0,0.0,0.0,0.0,0.0,0.0,0.0,0.0,0.0,0.0,0.0,0.0,0.0,0.0,0.0,0.0,0.0,0.0,0.0,0.0,0.0,0.0,0.0,0.0,0.0,0.0,0.0,0.0,0.0,0.0,0.0,0.0,0.0,0.0,0.0,0.0,0.0,0.0,0.0,0.0,0.0,0.0,0.0,0.0,0.0,0.0,0.0,0.0,0.0,0.0,0.0,0.0,0.0,0.0,0.0,0.0,0.0,0.0,0.0,0.0,0.0,0.0,0.0,0.0,0.0,0.0,0.0,0.0,0.0,0.0,0.0,0.0,0.0,0.0,0.0,0.0,0.0,0.0,0.0,0.0,0.0,0.0,0.0,0.0,0.0,0.0,0.0,0.0,0.0,0.0,0.0,0.0,0.0,0.0,0.0,0.0,0.0,0.0,0.0,0.0,0.0,0.0,0.0,0.0,0.0,0.0,0.0,0.0,0.0,0.0,0.0,0.0,0.0,0.0,0.0,0.0,0.0,0.0,0.0,0.0,0.0,0.0,0.0,0.0,0.0,0.0,0.0,0.0,0.0,0.0,0.0,0.0,0.0,0.0,0.0,0.0,0.0,0.0,0.0,0.0,0.0,0.0,0.0,0.0,0.0,0.0,0.0,0.0,0.0,0.0,0.0,0.0,0.0,0.0,0.0,0.0,0.0,0.0,0.0,0.0,0.0,0.0,0.0,0.0,0.0,0.0,0.0,0.0,0.0,0.0,0.0,0.0,0.0,0.0,0.0,0.0,0.0,0.0,0.0,0.0,0.0,0.0,0.0,0.0,0.0,0.0,0.0,0.0,0.0,0.0,0.0,0.0,0.0,0.0,0.0,0.0,0.0,0.0,0.0,0.0,0.0,0.0,0.0,0.0,0.0,0.0,0.0,0.0,0.0,0.0,0.0,0.0,0.0,0.0,0.0,0.0,0.0,0.0,0.0,0.0,0.0,0.0,0.0,0.0,0.0,0.0,0.0,0.0,0.0,0.0,0.0,0.0,0.0,0.0,0.0,0.0,0.0,0.0,0.0,0.0,0.0,0.0,0.0,0.0,0.0,0.0,0.0,0.0,0.0,0.0,0.0,0.0,0.0,0.0,0.0,0.0,0.0,0.0,0.0,0.0,0.0,0.0,0.0,0.0,0.0,0.0,0.0,0.0,0.0,0.0,0.0,0.0,0.0,0.0,0.0,0.0,0.0,0.0,0.0,0.0,0.0,0.0,0.0,0.0,0.0,0.0,0.0,0.0,0.0,0.0,0.0,0.0,0.0,0.0,0.0,0.0,0.0,0.0,0.0,0.0,0.0,0.0,0.0,0.0,0.0,0.0,0.0,0.0,0.0,0.0,0.0,0.0,0.0,0.0,0.0,0.0,0.0,0.0,0.0,0.0,0.0,0.0,0.0,0.0,0.0,0.0,0.0,0.0,0.0,0.0,0.0,0.0,0.0,0.0,0.0,0.0,0.0,0.0,0.0,0.0,0.0,0.0,0.0,0.0,0.0,0.0,0.0,0.0,0.0,0.0,0.0,0.0,0.0,0.0,0.0,0.0,0.0,0.0,0.0,0.0,0.0,0.0,0.0,0.0,0.0,0.0,0.0,0.0,0.0,0.0,0.0,0.0,0.0,0.0,0.0,0.0,0.0,0.0,0.0,0.0,0.0,0.0,0.0,0.0,0.0,0.0,0.0,0.0,0.0,0.0,0.0,0.0,0.0,0.0,0.0,0.0,0.0,0.0,0.0,0.0,0.0,0.0,0.0,0.0,0.0,0.0,0.0,0.0,0.0,0.0,0.0,0.0,0.0,0.0,0.0,0.0,0.0,0.0,0.0,0.0,0.0,0.0,0.0,0.0,0.0,0.0,0.0,0.0,0.0,0.0,0.0,0.0,0.0,0.0,0.0,0.0,0.0,0.0,0.0,0.0,0.0,0.0,0.0,0.0,0.0,0.0,0.0,0.0,0.0,0.0,0.0,0.0,0.0,0.0,0.0,0.0,0.0,0.0,0.0,0.0,0.0,0.0,0.0,0.0,0.0,0.0,0.0,0.0,0.0,0.0,0.0,0.0,0.0,0.0,0.0,0.0,0.0,0.0,0.0,0.0,0.0,0.0,0.0,0.0,0.0,0.0,0.0,0.0,0.0,0.0,0.0,0.0,0.0,0.0,0.0,0.0,0.0,0.0,0.0,0.0,0.0,0.0,0.0,0.0,0.0,0.0,0.0,0.0,0.0,0.0,0.0,0.0,0.0,0.0,0.0,0.0,0.0,0.0,0.0,0.0,0.0,0.0,0.0,0.0,0.0,0.0,0.0,0.0,0.0,0.0,0.0,0.0,0.0,0.0,0.0,0.0,0.0,0.0,0.0,0.0,0.0,0.0,0.0,0.0,0.0,0.0,0.0,0.0,0.0,0.0,0.0,0.0,0.0,0.0,0.0,0.0,0.0,0.0,0.0,0.0,0.0,0.0,0.0,0.0,0.0,0.0,0.0,0.0,0.0,0.0,0.0,0.0,0.0,0.0,0.0,0.0,0.0,0.0,0.0,0.0,0.0,0.0,0.0,0.0,0.0,0.0,0.0,0.0,0.0,0.0,0.0,0.0,0.0,0.0,0.0,0.0,0.0,0.0,0.0,0.0,0.0,0.0,0.0,0.0,0.0,0.0,0.0,0.0,0.0,0.0,0.0,0.0,0.0,0.0,0.0,0.0,0.0,0.0,0.0,0.0,0.0,0.0,0.0,0.0,0.0,0.0,0.0,0.0,0.0,0.0,0.0,0.0,0.0,0.0,0.0,0.0,0.0,0.0,0.0,0.0,0.0,0.0,0.0,0.0,0.0,0.0,0.0,0.0,0.0,0.0,0.0,0.0,0.0,0.0,0.0,0.0,0.0,0.0,0.0,0.0,0.0,0.0,0.0,0.0,0.0,0.0,0.0,0.0,0.0,0.0,0.0,0.0,0.0,0.0,0.0,0.0,0.0,0.0,0.0,0.0,0.0,0.0,0.0,0.0,0.0,0.0,0.0,0.0,0.0,0.0,0.0,0.0,0.0,0.0,0.0,0.0,0.0,0.0,0.0,0.0,0.0,0.0,0.0,0.0,0.0,0.0,0.0,0.0,0.0,0.0,0.0,0.0,0.0,0.0,0.0,0.0,0.0,0.0,0.0,0.0,0.0,0.0,0.0,0.0,0.0,0.0,0.0,0.0,0.0,0.0,0.0,0.0,0.0,0.0,0.0,0.0,0.0,0.0,0.0,0.0,0.0,0.0,0.0,0.0,0.0,0.0,0.0,0.0,0.0,0.0,0.0,0.0,0.0,0.0,0.0,0.0,0.0,0.0,0.0,0.0,0.0,0.0,0.0,0.0,0.0,0.0,0.0,0.0,0.0,0.0,0.0,0.0,0.0,0.0,0.0,0.0,0.0,0.0,0.0,0.0,0.0,0.0,0.0,0.0,0.0,0.0,0.0,0.0,0.0,0.0,-1.6162,0.0,0.0,0.0,0.0,0.0,0.0,0.0,0.0,0.0,0.0,0.0,0.0,0.0,0.0,0.0,0.0,0.0,0.0,0.0,0.0,0.0,0.0,0.0,0.0,0.0,0.0,0.0,0.0,0.0,0.0,0.0,0.0,0.0,0.0,0.0,0.0,0.0,0.0,0.0,0.0,0.0,0.0,0.0,0.0,0.0,0.0,0.0,0.0,0.0,0.0,0.0,0.0,0.0,0.0,0.0,0.0,0.0,0.0,0.0,0.0,0.0,0.0,0.0,0.0,0.0,0.0,0.0,0.0,0.0,0.0,0.0,0.0,0.0,0.0,0.0,0.0,0.0,0.0,0.0,0.0,0.0,0.0,0.0,0.0,0.0,0.0,0.0,0.0,0.0,0.0,0.0,0.0,0.0,0.0,0.0,0.0,0.0,0.0,0.0,0.0,0.0,0.0,0.0,0.0,0.0,0.0,0.0,0.0,0.0,0.0,-1.5821,-1.5765,-1.5515,-1.5853,-1.6781,0.0,0.0,0.0,0.0,0.0,0.0,0.0,0.0,0.0,0.0,0.0,0.0,0.0,0.0,0.0,0.0,0.0,0.0,0.0,0.0,0.0,0.0,0.0,0.0,0.0,0.0,0.0,0.0,0.0,0.0,0.0,0.0,0.0,0.0,0.0,0.0,0.0,0.0,0.0,0.0,0.0,0.0,0.0,0.0,0.0,0.0,0.0,0.0,0.0,0.0,0.0,0.0,0.0,0.0,0.0,0.0,0.0,0.0,0.0,0.0,0.0,0.0,0.0,0.0,0.0,0.0,0.0,0.0,0.0,0.0,0.0,0.0,0.0,0.0,0.0,0.0,0.0,0.0,0.0,0.0,0.0,0.0,0.0,0.0,0.0,0.0,0.0,0.0,0.0,0.0,0.0,0.0,0.0,0.0,0.0,0.0,0.0,0.0,0.0,0.0,0.0,0.0,0.0,0.0,0.0,0.0,0.0,0.0,0.0,0.0,0.0,0.0,-1.5653,-1.5816,-1.6523,0.0,0.0,0.0,0.0,0.0,0.0,0.0,0.0,0.0,0.0,0.0,0.0,0.0,0.0,0.0,0.0,0.0,0.0,0.0,0.0,0.0,0.0,0.0,0.0,0.0,0.0,0.0,0.0,0.0,0.0,0.0,0.0,0.0,0.0,0.0,0.0,0.0,0.0,0.0,0.0,0.0,0.0,0.0,0.0,0.0,0.0,0.0,0.0,0.0,0.0,0.0,0.0,0.0,0.0,0.0,0.0,0.0,0.0,0.0,0.0,0.0,0.0,0.0,0.0,0.0,0.0,0.0,0.0,0.0,0.0,0.0,0.0,0.0,0.0,0.0,0.0,0.0,0.0,0.0,0.0,0.0,0.0,0.0,0.0,0.0,0.0,0.0,0.0,0.0,0.0,0.0,0.0,0.0,0.0,0.0,0.0,0.0,0.0,0.0,0.0,0.0,0.0,0.0,0.0,0.0,0.0,0.0,0.0,0.0,0.0,-1.6108,-1.6593,-1.6573,0.0,-1.5661,0.0,0.0,0.0,0.0,0.0,0.0,0.0,0.0,0.0,0.0,0.0,0.0,0.0,0.0,0.0,0.0,0.0,0.0,0.0,0.0,0.0,0.0,0.0,0.0,0.0,0.0,0.0,0.0,0.0,0.0,0.0,0.0,0.0,0.0,0.0,0.0,0.0,0.0,0.0,0.0,0.0,0.0,0.0,0.0,0.0,0.0,0.0,0.0,0.0,0.0,0.0,0.0,0.0,0.0,0.0,0.0,0.0,0.0,0.0,0.0,0.0,0.0,0.0,0.0,0.0,0.0,0.0,0.0,0.0,0.0,0.0,0.0,0.0,0.0,0.0,0.0,0.0,0.0,0.0,0.0,0.0,0.0,0.0,0.0,0.0,0.0,0.0,0.0,0.0,0.0,0.0,0.0,0.0,0.0,0.0,0.0,0.0,0.0,0.0,0.0,0.0,0.0,0.0,0.0,0.0,0.0,0.0,0.0,0.0,0.0,-1.6697,-1.644,-1.7312,-1.6923,0.0,0.0,0.0,0.0,0.0,0.0,0.0,0.0,0.0,0.0,0.0,0.0,0.0,0.0,0.0,0.0,0.0,0.0,0.0,0.0,0.0,0.0,0.0,0.0,0.0,0.0,0.0,0.0,0.0,0.0,0.0,0.0,0.0,0.0,0.0,0.0,0.0,0.0,0.0,0.0,0.0,0.0,0.0,0.0,0.0,0.0,0.0,0.0,0.0,0.0,0.0,0.0,0.0,0.0,0.0,0.0,0.0,0.0,0.0,0.0,0.0,0.0,0.0,0.0,0.0,0.0,0.0,0.0,0.0,0.0,0.0,0.0,0.0,0.0,0.0,0.0,0.0,0.0,0.0,0.0,0.0,0.0,0.0,0.0,0.0,0.0,0.0,0.0,0.0,0.0,0.0,0.0,0.0,0.0,0.0,0.0,0.0,0.0,0.0,0.0,0.0,0.0,0.0,0.0,0.0,0.0,0.0,0.0,0.0,0.0,-1.6784,-1.6798,-1.6305,-1.7288,-1.6896,-1.4737,0.0,0.0,0.0,0.0,0.0,0.0,0.0,0.0,0.0,0.0,0.0,0.0,0.0,0.0,0.0,0.0,0.0,0.0,0.0,0.0,0.0,0.0,0.0,0.0,0.0,0.0,0.0,0.0,0.0,0.0,0.0,0.0,0.0,0.0,0.0,0.0,0.0,0.0,0.0,0.0,0.0,0.0,0.0,0.0,0.0,0.0,0.0,0.0,0.0,0.0,0.0,0.0,0.0,0.0,0.0,0.0,0.0,0.0,0.0,0.0,0.0,0.0,0.0,0.0,0.0,0.0,0.0,0.0,0.0,0.0,0.0,0.0,0.0,0.0,0.0,0.0,0.0,0.0,0.0,0.0,0.0,0.0,0.0,0.0,0.0,0.0,0.0,0.0,0.0,0.0,0.0,0.0,0.0,0.0,0.0,0.0,0.0,0.0,0.0,0.0,0.0,0.0,0.0,0.0,0.0,0.0,0.0,0.0,-1.66,-1.6112,-1.5838,-1.5832,-1.6042,-1.5857,0.0,0.0,0.0,0.0,0.0,0.0,0.0,0.0,0.0,0.0,0.0,0.0,0.0,0.0,0.0,0.0,0.0,0.0,0.0,0.0,0.0,0.0,0.0,0.0,0.0,0.0,0.0,0.0,0.0,0.0,0.0,0.0,0.0,0.0,0.0,0.0,0.0,0.0,0.0,0.0,0.0,0.0,0.0,0.0,0.0,0.0,0.0,0.0,0.0,0.0,0.0,0.0,0.0,0.0,0.0,0.0,0.0,0.0,0.0,0.0,0.0,0.0,0.0,0.0,0.0,0.0,0.0,0.0,0.0,0.0,0.0,0.0,0.0,0.0,0.0,0.0,0.0,0.0,0.0,0.0,0.0,0.0,0.0,0.0,0.0,0.0,0.0,0.0,0.0,0.0,0.0,0.0,0.0,0.0,0.0,0.0,0.0,0.0,0.0,0.0,0.0,0.0,0.0,0.0,0.0,0.0,0.0,0.0,0.0,-1.5845,-1.5658,-1.5445,-1.5318,-1.5995,-1.5965,0.0,0.0,0.0,0.0,0.0,0.0,0.0,0.0,0.0,0.0,0.0,0.0,0.0,0.0,0.0,0.0,0.0,0.0,0.0,0.0,0.0,0.0,0.0,0.0,0.0,0.0,0.0,0.0,0.0,0.0,0.0,0.0,0.0,0.0,0.0,0.0,0.0,0.0,0.0,0.0,0.0,0.0,0.0,0.0,0.0,0.0,0.0,0.0,0.0,0.0,0.0,0.0,0.0,0.0,0.0,0.0,0.0,0.0,0.0,0.0,0.0,0.0,0.0,0.0,0.0,0.0,0.0,0.0,0.0,0.0,0.0,0.0,0.0,0.0,0.0,0.0,0.0,0.0,0.0,0.0,0.0,0.0,0.0,0.0,0.0,0.0,0.0,0.0,0.0,0.0,0.0,0.0,0.0,0.0,0.0,0.0,0.0,0.0,0.0,0.0,0.0,0.0,0.0,0.0,0.0,0.0,0.0,0.0,0.0,-1.5292,0.0,-1.5106,-1.4702,-1.5408,-1.5444,0.0,0.0,0.0,0.0,0.0,0.0,0.0,0.0,0.0,0.0,0.0,0.0,0.0,0.0,0.0,0.0,0.0,0.0,0.0,0.0,0.0,0.0,0.0,0.0,0.0,0.0,0.0,0.0,0.0,0.0,0.0,0.0,0.0,0.0,0.0,0.0,0.0,0.0,0.0,0.0,0.0,0.0,0.0,0.0,0.0,0.0,0.0,0.0,0.0,0.0,0.0,0.0,0.0,0.0,0.0,0.0,0.0,0.0,0.0,0.0,0.0,0.0,0.0,0.0,0.0,0.0,0.0,0.0,0.0,0.0,0.0,0.0,0.0,0.0,0.0,0.0,0.0,0.0,0.0,0.0,0.0,0.0,0.0,0.0,0.0,0.0,0.0,0.0,0.0,0.0,0.0,0.0,0.0,0.0,0.0,0.0,0.0,0.0,0.0,0.0,0.0,0.0,0.0,0.0,0.0,0.0,0.0,0.0,-1.5464,-1.4982,-1.4993,-1.4747,-1.4167,-1.419,-1.4108,0.0,0.0,0.0,0.0,0.0,0.0,0.0,0.0,0.0,0.0,0.0,0.0,0.0,0.0,0.0,0.0,0.0,0.0,0.0,0.0,0.0,0.0,0.0,0.0,0.0,0.0,0.0,0.0,0.0,0.0,0.0,0.0,0.0,0.0,0.0,0.0,0.0,0.0,0.0,0.0,0.0,0.0,0.0,0.0,0.0,0.0,0.0,0.0,0.0,0.0,0.0,0.0,0.0,0.0,0.0,0.0,0.0,0.0,0.0,0.0,0.0,0.0,0.0,0.0,0.0,0.0,0.0,0.0,0.0,0.0,0.0,0.0,0.0,0.0,0.0,0.0,0.0,0.0,0.0,0.0,0.0,0.0,0.0,0.0,0.0,0.0,0.0,0.0,0.0,0.0,0.0,0.0,0.0,0.0,0.0,0.0,0.0,0.0,0.0,0.0,0.0,0.0,0.0,0.0,0.0,0.0,0.0,0.0,0.0,-1.4987,-1.4609,-1.5089,-1.6354,-1.467,-1.4349,0.0,0.0,0.0,0.0,0.0,0.0,0.0,0.0,0.0,0.0,0.0,0.0,0.0,0.0,0.0,0.0,0.0,0.0,0.0,0.0,0.0,0.0,0.0,0.0,0.0,0.0,0.0,0.0,0.0,0.0,0.0,0.0,0.0,0.0,0.0,0.0,0.0,0.0,0.0,0.0,0.0,0.0,0.0,0.0,0.0,0.0,0.0,0.0,0.0,0.0,0.0,0.0,0.0,0.0,0.0,0.0,0.0,0.0,0.0,0.0,0.0,0.0,0.0,0.0,0.0,0.0,0.0,0.0,0.0,0.0,0.0,0.0,0.0,0.0,0.0,0.0,0.0,0.0,0.0,0.0,0.0,0.0,0.0,0.0,0.0,0.0,0.0,0.0,0.0,0.0,0.0,0.0,0.0,0.0,0.0,0.0,0.0,0.0,0.0,0.0,0.0,0.0,0.0,0.0,0.0,0.0,0.0,0.0,0.0,-1.4846,-1.4174,-1.434,-1.5553,-1.4097,-1.3954,-1.5224,0.0,0.0,0.0,0.0,0.0,0.0,0.0,0.0,0.0,0.0,0.0,0.0,0.0,0.0,0.0,0.0,0.0,0.0,0.0,0.0,0.0,0.0,0.0,0.0,0.0,0.0,0.0,0.0,0.0,0.0,0.0,0.0,0.0,0.0,0.0,0.0,0.0,0.0,0.0,0.0,0.0,0.0,0.0,0.0,0.0,0.0,0.0,0.0,0.0,0.0,0.0,0.0,0.0,0.0,0.0,0.0,0.0,0.0,0.0,0.0,0.0,0.0,0.0,0.0,0.0,0.0,0.0,0.0,0.0,0.0,0.0,0.0,0.0,0.0,0.0,0.0,0.0,0.0,0.0,0.0,0.0,0.0,0.0,0.0,0.0,0.0,0.0,0.0,0.0,0.0,0.0,0.0,0.0,0.0,0.0,0.0,0.0,0.0,0.0,0.0,0.0,0.0,0.0,0.0,0.0,0.0,0.0,0.0,-1.4536,-1.3619,-1.2718,-1.2104,-1.2462,-1.2975,0.0,0.0,0.0,0.0,0.0,0.0,0.0,0.0,0.0,0.0,0.0,0.0,0.0,0.0,0.0,0.0,0.0,0.0,0.0,0.0,0.0,0.0,0.0,0.0,0.0,0.0,0.0,0.0,0.0,0.0,0.0,0.0,0.0,0.0,0.0,0.0,0.0,0.0,0.0,0.0,0.0,0.0,0.0,0.0,0.0,0.0,0.0,0.0,0.0,0.0,0.0,0.0,0.0,0.0,0.0,0.0,0.0,0.0,0.0,0.0,0.0,0.0,0.0,0.0,0.0,0.0,0.0,0.0,0.0,0.0,0.0,0.0,0.0,0.0,0.0,0.0,0.0,0.0,0.0,0.0,0.0,0.0,0.0,0.0,0.0,0.0,0.0,0.0,0.0,0.0,0.0,0.0,0.0,0.0,0.0,0.0,0.0,0.0,0.0,0.0,0.0,0.0,0.0,0.0,0.0,0.0,0.0,0.0,0.0,-0.9929,-1.0932,-1.089,-0.9583,-1.0674,-1.1801,0.0,0.0,0.0,0.0,0.0,0.0,0.0,0.0,0.0,0.0,0.0,0.0,0.0,0.0,0.0,0.0,0.0,0.0,0.0,0.0,0.0,0.0,0.0,0.0,0.0,0.0,0.0,0.0,0.0,0.0,0.0,0.0,0.0,0.0,0.0,0.0,0.0,0.0,0.0,0.0,0.0,0.0,0.0,0.0,0.0,0.0,0.0,0.0,0.0,0.0,0.0,0.0,0.0,0.0,0.0,0.0,0.0,0.0,0.0,0.0,0.0,0.0,0.0,0.0,0.0,0.0,0.0,0.0,0.0,0.0,0.0,0.0,0.0,0.0,0.0,0.0,0.0,0.0,0.0,0.0,0.0,0.0,0.0,0.0,0.0,0.0,0.0,0.0,0.0,0.0,0.0,0.0,0.0,0.0,0.0,0.0,0.0,0.0,0.0,0.0,0.0,0.0,0.0,0.0,0.0,0.0,0.0,0.0,-0.8776,-0.8037,-0.9615,-1.0011,-0.9322,-1.0317,-1.1169,0.0,0.0,0.0,0.0,0.0,0.0,0.0,0.0,0.0,0.0,0.0,0.0,0.0,0.0,0.0,0.0,0.0,0.0,0.0,0.0,0.0,0.0,0.0,0.0,0.0,0.0,0.0,0.0,0.0,0.0,0.0,0.0,0.0,0.0,0.0,0.0,0.0,0.0,0.0,0.0,0.0,0.0,0.0,0.0,0.0,0.0,0.0,0.0,0.0,0.0,0.0,0.0,0.0,0.0,0.0,0.0,0.0,0.0,0.0,0.0,0.0,0.0,0.0,0.0,0.0,0.0,0.0,0.0,0.0,0.0,0.0,0.0,0.0,0.0,0.0,0.0,0.0,0.0,0.0,0.0,0.0,0.0,0.0,0.0,0.0,0.0,0.0,0.0,0.0,0.0,0.0,0.0,0.0,0.0,0.0,0.0,0.0,0.0,0.0,0.0,0.0,0.0,0.0,0.0,0.0,0.0,0.0,0.0,-0.8272,-0.7984,-0.9153,-0.9961,-1.0311,-1.0665,-1.0761,0.0,0.0,0.0,0.0,0.0,0.0,0.0,0.0,0.0,0.0,0.0,0.0,0.0,0.0,0.0,0.0,0.0,0.0,0.0,0.0,0.0,0.0,0.0,0.0,0.0,0.0,0.0,0.0,0.0,0.0,0.0,0.0,0.0,0.0,0.0,0.0,0.0,0.0,0.0,0.0,0.0,0.0,0.0,0.0,0.0,0.0,0.0,0.0,0.0,0.0,0.0,0.0,0.0,0.0,0.0,0.0,0.0,0.0,0.0,0.0,0.0,0.0,0.0,0.0,0.0,0.0,0.0,0.0,0.0,0.0,0.0,0.0,0.0,0.0,0.0,0.0,0.0,0.0,0.0,0.0,0.0,0.0,0.0,0.0,0.0,0.0,0.0,0.0,0.0,0.0,0.0,0.0,0.0,0.0,0.0,0.0,0.0,0.0,0.0,0.0,0.0,0.0,0.0,0.0,0.0,0.0,0.0,0.0,-0.8183,-0.7715,-0.9268,-1.007,-1.0322,-0.9655,-0.9154,0.0,0.0,0.0,0.0,0.0,0.0,0.0,0.0,0.0,0.0,0.0,0.0,0.0,0.0,0.0,0.0,0.0,0.0,0.0,0.0,0.0,0.0,0.0,0.0,0.0,0.0,0.0,0.0,0.0,0.0,0.0,0.0,0.0,0.0,0.0,0.0,0.0,0.0,0.0,0.0,0.0,0.0,0.0,0.0,0.0,0.0,0.0,0.0,-2.0322,0.0,0.0,0.0,0.0,0.0,0.0,0.0,0.0,0.0,0.0,0.0,0.0,0.0,0.0,0.0,0.0,0.0,0.0,0.0,0.0,0.0,0.0,0.0,0.0,0.0,0.0,0.0,0.0,0.0,0.0,0.0,0.0,0.0,0.0,0.0,0.0,0.0,0.0,0.0,0.0,0.0,0.0,0.0,0.0,0.0,0.0,0.0,0.0,0.0,0.0,0.0,0.0,0.0,0.0,0.0,0.0,0.0,0.0,0.0,-0.8384,-0.8208,-0.9479,-0.9981,-0.9815,-0.9432,-0.9121,0.0,0.0,0.0,0.0,0.0,0.0,0.0,0.0,0.0,0.0,0.0,0.0,0.0,0.0,0.0,0.0,0.0,0.0,0.0,0.0,0.0,0.0,0.0,0.0,0.0,0.0,0.0,0.0,0.0,0.0,0.0,0.0,0.0,0.0,0.0,0.0,0.0,0.0,0.0,0.0,0.0,0.0,0.0,0.0,0.0,0.0,0.0,0.0,0.0,0.0,0.0,0.0,0.0,0.0,0.0,0.0,0.0,0.0,0.0,0.0,0.0,0.0,0.0,0.0,0.0,0.0,0.0,0.0,0.0,0.0,0.0,0.0,0.0,0.0,0.0,0.0,0.0,0.0,0.0,0.0,0.0,0.0,0.0,0.0,0.0,0.0,0.0,0.0,0.0,0.0,0.0,0.0,0.0,0.0,0.0,0.0,0.0,0.0,0.0,0.0,0.0,0.0,0.0,0.0,0.0,0.0,0.0,-0.8851,-0.8707,-0.8897,-0.9625,-0.9883,-0.9379,-0.9777,-0.9907,-1.0002,0.0,0.0,0.0,0.0,0.0,0.0,0.0,0.0,0.0,0.0,0.0,0.0,0.0,0.0,0.0,0.0,0.0,0.0,0.0,0.0,0.0,0.0,0.0,0.0,0.0,0.0,0.0,0.0,0.0,0.0,0.0,0.0,0.0,0.0,0.0,0.0,0.0,0.0,-1.6498,-1.6695,0.0,0.0,0.0,0.0,0.0,0.0,0.0,0.0,-1.9609,0.0,0.0,0.0,0.0,0.0,0.0,0.0,0.0,0.0,0.0,0.0,0.0,0.0,0.0,0.0,0.0,0.0,0.0,0.0,0.0,0.0,0.0,0.0,0.0,0.0,0.0,0.0,0.0,0.0,0.0,0.0,0.0,0.0,0.0,0.0,0.0,0.0,0.0,0.0,0.0,0.0,0.0,0.0,0.0,0.0,0.0,0.0,0.0,0.0,0.0,0.0,0.0,0.0,0.0,0.0,0.0,-0.8248,-0.9141,-0.9335,-0.8872,-0.9478,-0.96,-0.9319,-1.0986,-1.1339,-1.0083,0.0,0.0,0.0,0.0,0.0,0.0,0.0,0.0,0.0,0.0,0.0,0.0,0.0,0.0,0.0,0.0,0.0,0.0,0.0,0.0,0.0,0.0,0.0,0.0,0.0,0.0,0.0,0.0,0.0,0.0,0.0,0.0,0.0,0.0,0.0,0.0,0.0,0.0,0.0,-1.7107,-1.7975,0.0,0.0,0.0,0.0,0.0,0.0,0.0,0.0,-1.8965,0.0,0.0,0.0,0.0,0.0,0.0,0.0,0.0,0.0,0.0,0.0,0.0,0.0,0.0,0.0,0.0,0.0,0.0,0.0,0.0,0.0,0.0,0.0,0.0,0.0,0.0,0.0,0.0,0.0,0.0,0.0,0.0,0.0,0.0,0.0,0.0,0.0,0.0,0.0,0.0,0.0,0.0,0.0,0.0,0.0,0.0,0.0,0.0,0.0,0.0,0.0,0.0,0.0,0.0,0.0,-0.9784,-0.9891,-0.9961,-1.0103,-0.972,-0.9425,-0.8914,-0.9356,-0.9447,0.0,0.0,0.0,0.0,0.0,0.0,0.0,0.0,0.0,0.0,0.0,0.0,0.0,0.0,0.0,0.0,0.0,0.0,0.0,0.0,0.0,0.0,0.0,0.0,0.0,0.0,0.0,0.0,0.0,0.0,0.0,0.0,0.0,0.0,0.0,0.0,0.0,0.0,0.0,0.0,-1.7172,-1.7674,-1.692,0.0,0.0,0.0,0.0,0.0,0.0,-1.9492,-1.918,0.0,0.0,0.0,0.0,0.0,0.0,0.0,0.0,0.0,0.0,0.0,0.0,0.0,0.0,0.0,0.0,0.0,0.0,0.0,0.0,0.0,0.0,0.0,0.0,0.0,0.0,0.0,0.0,0.0,0.0,0.0,0.0,0.0,0.0,0.0,0.0,0.0,0.0,0.0,0.0,0.0,0.0,0.0,0.0,0.0,0.0,0.0,0.0,0.0,0.0,0.0,0.0,0.0,0.0,0.0,-1.0979,-1.0556,-1.0403,-1.0584,-0.9749,-0.9051,-0.8666,-0.7742,-0.7419,0.0,0.0,0.0,0.0,0.0,0.0,0.0,0.0,0.0,0.0,0.0,0.0,0.0,0.0,0.0,0.0,0.0,0.0,0.0,0.0,0.0,0.0,0.0,0.0,0.0,0.0,0.0,0.0,0.0,0.0,0.0,0.0,0.0,0.0,0.0,0.0,0.0,0.0,0.0,0.0,0.0,-1.7658,-1.7279,-1.8543,0.0,0.0,0.0,0.0,-2.0332,-2.0225,0.0,0.0,0.0,0.0,0.0,0.0,0.0,0.0,0.0,0.0,0.0,0.0,0.0,0.0,0.0,0.0,0.0,0.0,0.0,0.0,0.0,0.0,0.0,0.0,0.0,0.0,0.0,0.0,0.0,0.0,0.0,0.0,0.0,0.0,0.0,0.0,0.0,0.0,0.0,0.0,0.0,0.0,0.0,0.0,0.0,0.0,0.0,0.0,0.0,0.0,0.0,0.0,0.0,0.0,0.0,0.0,-1.0156,-1.0882,-1.051,-0.892,-0.8931,-0.8906,-0.874,-0.8161,-0.7929,0.0,0.0,0.0,0.0,0.0,0.0,0.0,0.0,0.0,0.0,0.0,0.0,0.0,0.0,0.0,0.0,0.0,0.0,0.0,0.0,0.0,0.0,0.0,0.0,0.0,0.0,0.0,0.0,0.0,0.0,0.0,0.0,0.0,0.0,0.0,0.0,0.0,0.0,0.0,0.0,0.0,-1.9192,-1.7986,-1.9279,-2.0537,0.0,0.0,-2.04,-2.1963,-2.249,0.0,0.0,0.0,0.0,0.0,0.0,0.0,0.0,0.0,0.0,0.0,0.0,0.0,0.0,0.0,0.0,0.0,0.0,0.0,0.0,0.0,0.0,0.0,0.0,0.0,0.0,0.0,0.0,0.0,0.0,0.0,0.0,0.0,0.0,0.0,0.0,0.0,0.0,0.0,0.0,0.0,0.0,0.0,0.0,0.0,0.0,0.0,0.0,0.0,0.0,0.0,0.0,0.0,0.0,0.0,-1.1945,-1.083,-1.056,-0.9731,-0.8457,-0.868,-0.8725,-0.8462,-0.8041,-0.7841,0.0,0.0,0.0,0.0,0.0,0.0,0.0,0.0,0.0,0.0,0.0,0.0,0.0,0.0,0.0,0.0,0.0,0.0,0.0,0.0,0.0,0.0,0.0,0.0,0.0,0.0,0.0,0.0,0.0,0.0,0.0,0.0,0.0,0.0,0.0,0.0,0.0,0.0,0.0,0.0,0.0,0.0,-1.9478,-2.0516,0.0,0.0,0.0,-2.1738,-2.2734,0.0,0.0,0.0,0.0,0.0,0.0,0.0,0.0,0.0,0.0,0.0,0.0,0.0,0.0,0.0,0.0,0.0,0.0,0.0,0.0,0.0,0.0,0.0,0.0,0.0,0.0,0.0,0.0,0.0,0.0,0.0,0.0,0.0,0.0,0.0,0.0,0.0,0.0,0.0,0.0,0.0,0.0,0.0,0.0,0.0,0.0,0.0,0.0,0.0,0.0,0.0,0.0,0.0,0.0,0.0,0.0,0.0,-1.1019,-0.9997,-0.9147,-0.8416,-0.864,-0.8647,-0.8319,-0.7911,0.0,0.0,0.0,0.0,0.0,0.0,0.0,0.0,0.0,0.0,0.0,0.0,0.0,0.0,0.0,0.0,0.0,0.0,0.0,0.0,0.0,0.0,0.0,0.0,0.0,0.0,0.0,-1.1015,0.0,0.0,0.0,0.0,0.0,0.0,0.0,0.0,0.0,0.0,0.0,0.0,0.0,0.0,-2.1172,-2.1064,-2.1894,-2.2598,0.0,0.0,-2.3105,-2.3428,-2.3574,-2.3271,0.0,0.0,0.0,0.0,0.0,0.0,0.0,0.0,0.0,0.0,0.0,0.0,0.0,0.0,0.0,0.0,0.0,0.0,0.0,0.0,0.0,0.0,0.0,0.0,0.0,0.0,0.0,0.0,0.0,0.0,0.0,0.0,0.0,0.0,0.0,0.0,0.0,0.0,0.0,0.0,0.0,0.0,0.0,0.0,0.0,0.0,0.0,0.0,0.0,0.0,0.0,0.0,0.0,0.0,-1.0692,-0.9888,-0.9619,-0.9197,-0.8549,-0.8476,-0.8479,-0.8465,-0.7951,-0.7628,0.0,0.0,0.0,0.0,0.0,0.0,0.0,0.0,0.0,0.0,0.0,0.0,0.0,0.0,0.0,0.0,0.0,0.0,0.0,0.0,0.0,0.0,0.0,0.0,0.0,0.0,0.0,0.0,0.0,0.0,0.0,0.0,0.0,0.0,0.0,0.0,0.0,0.0,0.0,0.0,0.0,-2.2842,-2.2441,-2.3447,-2.4531,0.0,-2.4805,-2.4297,-2.4336,-2.5664,-2.5742,-2.293,0.0,0.0,0.0,0.0,0.0,0.0,0.0,0.0,0.0,0.0,0.0,0.0,0.0,0.0,0.0,0.0,0.0,0.0,0.0,0.0,0.0,0.0,0.0,0.0,0.0,0.0,0.0,0.0,0.0,0.0,0.0,0.0,0.0,0.0,0.0,0.0,0.0,0.0,0.0,0.0,0.0,0.0,0.0,0.0,0.0,0.0,0.0,0.0,0.0,0.0,0.0,0.0,0.0,-0.9013,-0.9871,-0.8913,-0.8236,-0.8191,-0.8418,-0.8418,-0.8211,-0.8004,-0.7831,0.0,0.0,0.0,0.0,0.0,0.0,0.0,0.0,0.0,0.0,0.0,0.0,0.0,0.0,0.0,0.0,0.0,0.0,0.0,0.0,0.0,0.0,0.0,0.0,0.0,0.0,0.0,0.0,-1.0962,-1.1245,-1.219,0.0,0.0,0.0,0.0,0.0,0.0,0.0,0.0,0.0,0.0,-2.2978,-2.3594,-2.5259,0.0,0.0,-2.7694,-2.81,-2.8389,-2.7974,-2.6996,-2.5254,-2.4446,0.0,0.0,0.0,0.0,0.0,0.0,0.0,0.0,0.0,0.0,0.0,0.0,0.0,0.0,0.0,0.0,0.0,0.0,0.0,0.0,0.0,0.0,0.0,0.0,0.0,0.0,0.0,0.0,0.0,0.0,0.0,0.0,0.0,0.0,0.0,0.0,0.0,0.0,0.0,0.0,0.0,0.0,0.0,0.0,0.0,0.0,0.0,0.0,0.0,0.0,0.0,0.0,-0.7915,-0.9323,-0.8196,-0.7767,-0.8102,-0.8313,-0.8334,-0.8163,-0.8082,-0.7911,0.0,0.0,0.0,0.0,0.0,0.0,0.0,0.0,0.0,0.0,0.0,0.0,0.0,0.0,0.0,0.0,0.0,0.0,0.0,0.0,0.0,0.0,0.0,0.0,0.0,0.0,0.0,0.0,-1.1303,-1.1701,-1.2766,0.0,0.0,0.0,0.0,0.0,0.0,0.0,0.0,0.0,0.0,-2.3536,-2.5005,-2.6826,-2.8413,-2.9182,-2.9646,-3.0139,-3.0476,-2.8998,-2.739,-2.62,0.0,0.0,0.0,0.0,0.0,0.0,0.0,0.0,0.0,0.0,0.0,0.0,0.0,0.0,0.0,0.0,0.0,0.0,0.0,0.0,0.0,0.0,0.0,0.0,0.0,0.0,0.0,0.0,0.0,0.0,-0.8038,0.0,0.0,0.0,0.0,0.0,0.0,0.0,0.0,0.0,0.0,0.0,0.0,0.0,0.0,0.0,0.0,0.0,0.0,0.0,0.0,0.0,0.0,-0.7516,-0.7907,-0.7682,-0.7821,-0.8248,-0.8156,-0.8114,-0.8452,-0.8191,-0.7967,-0.7814,0.0,0.0,0.0,0.0,0.0,0.0,0.0,0.0,0.0,0.0,0.0,0.0,0.0,0.0,0.0,0.0,0.0,0.0,0.0,0.0,0.0,0.0,0.0,0.0,0.0,0.0,-1.2278,-1.2017,-1.2151,0.0,0.0,0.0,0.0,0.0,0.0,0.0,0.0,0.0,0.0,-2.3057,-2.4983,-2.6629,-2.803,-2.9501,-3.1162,-3.0253,-2.9441,-2.9485,-2.838,-2.6825,0.0,0.0,0.0,0.0,0.0,0.0,0.0,0.0,0.0,0.0,0.0,0.0,0.0,0.0,0.0,0.0,0.0,0.0,0.0,0.0,0.0,0.0,0.0,0.0,0.0,0.0,0.0,-0.8333,-0.8333,0.0,0.0,0.0,0.0,0.0,0.0,0.0,0.0,0.0,0.0,0.0,-0.5322,-0.5377,0.0,0.0,0.0,0.0,0.0,0.0,0.0,0.0,0.0,0.0,0.0,0.0,-0.7719,-0.8085,-0.7868,-0.7957,-0.8394,-0.821,-0.8127,-0.8476,-0.8598,-0.8477,-0.8116,0.0,0.0,0.0,0.0,0.0,0.0,0.0,0.0,0.0,0.0,0.0,0.0,0.0,0.0,0.0,0.0,0.0,0.0,0.0,0.0,0.0,0.0,0.0,0.0,0.0,-1.2632,0.0,0.0,0.0,0.0,0.0,0.0,0.0,0.0,0.0,0.0,0.0,-2.1907,-2.3053,-2.3927,-2.5279,-2.7713,-2.8357,-2.9235,0.0,0.0,0.0,0.0,0.0,0.0,0.0,0.0,0.0,0.0,0.0,0.0,0.0,0.0,-2.6494,-2.4199,-2.3555,-2.3359,-2.3359,0.0,0.0,0.0,0.0,0.0,0.0,0.0,0.0,0.0,0.0,0.0,0.0,0.0,0.0,-0.8468,0.0,-0.8444,0.0,0.0,0.0,0.0,0.0,0.0,0.0,0.0,-0.2658,-0.2617,-0.2553,-0.2597,-0.3166,0.0,-0.7056,-0.8286,0.0,0.0,0.0,0.0,0.0,0.0,0.0,0.0,-0.7818,-0.8089,-0.7967,-0.8082,-0.8459,-0.8229,-0.8252,-0.8557,-0.8678,-0.8525,-0.8119,-0.7733,-0.7526,0.0,0.0,0.0,0.0,0.0,0.0,0.0,0.0,0.0,0.0,0.0,0.0,0.0,0.0,0.0,0.0,0.0,0.0,0.0,0.0,0.0,0.0,0.0,-1.2552,0.0,0.0,0.0,0.0,0.0,0.0,0.0,0.0,0.0,-2.0596,-2.1602,-2.2834,-2.4308,-2.4765,-2.5849,-2.8158,0.0,0.0,0.0,0.0,0.0,0.0,0.0,-2.9386,-2.8959,-2.8612,-2.8025,-2.7051,-2.7764,-2.8281,-2.7568,0.0,0.0,-2.4902,-2.4238,-2.3952,-2.4033,-2.4375,-2.4687,-2.4844,-2.5098,-2.5303,0.0,0.0,0.0,0.0,0.0,0.0,0.0,0.0,-0.8496,-0.8471,0.0,-0.8399,0.0,0.0,0.0,0.0,0.0,-0.7939,0.0,0.0,-0.0442,-0.0227,-0.0231,-0.0352,-0.1857,-0.4966,-0.8143,-0.9298,-0.8316,-0.7758,0.0,0.0,0.0,0.0,0.0,0.0,-0.7821,-0.7851,-0.7987,-0.8201,-0.8492,-0.8525,-0.8598,-0.871,-0.8442,-0.8153,-0.7858,-0.7838,-0.7695,-0.7417,-0.7668,0.0,0.0,0.0,0.0,0.0,0.0,0.0,0.0,0.0,0.0,0.0,0.0,0.0,0.0,0.0,0.0,0.0,0.0,0.0,0.0,-1.2692,0.0,0.0,0.0,0.0,0.0,0.0,0.0,0.0,0.0,0.0,-2.1836,-2.2666,-2.3652,-2.4996,0.0,0.0,0.0,0.0,-3.0959,-3.0858,-3.1662,-3.1935,-3.0767,-2.9867,-2.8956,-2.8213,0.0,0.0,-2.7851,-2.8447,-2.8603,-2.7353,-2.7104,-2.6968,-2.689,-2.6092,-2.5664,-2.5654,-2.5381,-2.5312,-2.5664,-2.583,-2.5859,-0.5178,0.0,0.0,0.0,0.0,-0.9045,-0.9283,-0.9544,-0.9479,-0.9341,-0.9261,-0.7615,0.0,0.0,0.0,0.0,0.0,0.0,-0.8333,-0.6646,-0.476,-0.382,-0.3799,-0.3857,-0.4365,-0.5315,-0.8053,-0.9178,-0.8916,-0.8452,-0.8123,-0.7916,0.0,0.0,0.0,0.0,-0.8079,-0.8279,-0.8336,-0.8503,-0.8804,-0.8632,-0.8649,-0.8872,-0.8686,-0.8489,-0.8296,-0.8191,-0.8048,-0.7862,-0.7929,0.0,0.0,0.0,0.0,0.0,0.0,0.0,0.0,0.0,0.0,0.0,0.0,0.0,0.0,0.0,0.0,0.0,0.0,0.0,-1.3554,-1.336,-1.3213,0.0,0.0,0.0,0.0,0.0,0.0,0.0,0.0,0.0,-2.3038,-2.3711,-2.469,0.0,0.0,-2.6707,-2.9091,-2.8232,-2.7923,-2.9647,-2.9446,0.0,-2.9282,-2.9048,-2.8749,-2.8588,-2.8846,-2.9365,-2.9883,-3.0166,-3.0,-2.8994,-2.7933,-2.6985,-2.606,-2.5781,-2.5703,-2.5752,-2.6103,-2.6475,-2.6631,-2.6885,-2.7119,-0.235,-0.2755,-0.6068,-0.8227,-0.9324,-0.9744,-0.9975,-1.0226,-1.0109,-0.9472,-0.8548,-0.7969,-0.8284,-0.9174,-0.8401,0.0,0.0,0.0,-0.9763,-0.9362,-0.7875,-0.7219,-0.7434,-0.7547,-0.744,-0.751,-0.8895,-0.959,-0.9435,-0.9096,-0.8774,-0.8479,0.0,0.0,-0.8045,-0.8157,-0.8275,-0.8397,-0.8516,-0.8693,-0.893,-0.8736,-0.8732,-0.893,-0.8788,-0.8665,-0.8574,-0.8431,-0.8258,-0.8052,-0.8099,-0.8035,0.0,0.0,0.0,0.0,0.0,0.0,0.0,0.0,0.0,0.0,0.0,-1.3801,-1.3981,0.0,0.0,0.0,-1.4048,-1.3888,-1.3828,-1.3607,0.0,0.0,0.0,0.0,0.0,0.0,0.0,-1.8846,-2.0683,-2.2413,-2.4069,-2.4824,-2.5737,-2.7084,-2.6838,-2.7426,-2.9473,0.0,-2.7893,-2.9366,-2.9096,-2.8609,-2.8553,-2.8654,-2.8766,-2.8755,-2.9411,-2.9932,-3.0488,-3.0762,-3.0393,-2.9184,-2.8048,-2.6843,-2.5305,-2.4995,-2.4893,-2.4756,-2.5629,-2.6418,-2.6598,-2.741,-2.8164,-0.0,-0.0,-0.391,-0.7185,-1.0215,-1.0473,-1.0575,-1.0568,-1.0578,-0.9303,-0.7335,-0.9233,-1.0119,-1.0038,-0.8735,0.0,-0.9898,-1.0153,-1.0098,-0.9655,-0.9794,-1.0153,-1.0726,-1.0734,-1.0581,-1.0421,-1.0414,-1.0183,-0.9883,-0.9727,-0.9507,-0.9201,-0.8794,-0.8428,-0.8143,-0.8374,-0.8442,-0.8333,-0.8594,-0.8798,-0.8933,-0.8937,-0.893,-0.8806,-0.8784,-0.8699,-0.8669,-0.855,-0.8347,-0.8065,-0.8187,-0.8136,-0.7949,0.0,0.0,0.0,0.0,0.0,0.0,0.0,0.0,0.0,0.0,0.0,0.0,0.0,0.0,0.0,-1.4062,0.0,-1.4135,-1.3667,0.0,0.0,0.0,-1.3961,-1.4502,-1.649,-1.8201,-1.9007,0.0,0.0,-2.4912,-2.583,-2.6523,-2.6914,-2.7531,-2.8396,-2.9471,-2.9612,-2.9742,-2.9565,-2.9798,-2.9544,-2.8611,-2.8643,-2.8829,-2.8908,-2.957,-3.0029,-3.0156,-3.0209,-2.9842,-2.8223,-2.7319,-2.6347,-2.4619,-2.3729,-2.3278,-2.2921,-2.4179,-2.538,-2.5811,-2.7076,-2.8272,-0.0,-0.0,-0.102,-0.5227,-1.1145,-1.1267,-1.1301,-1.1196,-1.1465,-1.1111,-1.0461,-1.0449,-1.0236,-0.9851,-0.9317,-0.9615,-1.047,-1.059,-1.044,-1.0206,-1.0246,-1.05,-1.0687,-1.0724,-1.0721,-1.0673,-1.0558,-1.0443,-1.0327,-1.0188,-0.9964,-0.9669,-0.9554,-0.9242,-0.8743,-0.8679,-0.8696,-0.8777,-0.8849,-0.8899,-0.8937,-0.8937,-0.8769,-0.8547,-0.8618,-0.8604,-0.8384,-0.8445,-0.8343,-0.8062,-0.8187,-0.8184,-0.7997,-0.9441,0.0,0.0,0.0,0.0,0.0,0.0,0.0,0.0,0.0,-1.4863,-1.4863,0.0,-1.493,0.0,-1.473,-1.4683,-1.475,-1.4629,0.0,0.0,-1.4656,-1.4703,-1.4843,-1.6228,-1.7683,-1.9372,-2.1256,-2.3155,-2.4857,-2.583,-2.6426,-2.6533,-2.7206,-2.7934,-2.8555,-2.8405,-2.8448,-2.9,-2.9142,-2.9075,-2.879,-2.8574,-2.8535,-2.8867,-2.9092,-2.9336,-2.9668,-2.8861,-2.7866,-2.7019,-2.5015,-2.332,-2.2443,-2.131,-2.0472,-2.0509,-2.2375,-2.4157,-2.4369,-2.4906,-2.5735,-0.0,-0.0,-0.0,-0.2562,-0.6729,-1.0104,-1.161,-1.1809,-1.1847,-1.1822,-1.1632,-1.12,-1.0707,-1.0193,-1.0042,-1.0314,-1.0849,-1.0739,-1.0774,-1.0782,-1.0724,-1.0741,-1.0822,-1.0822,-1.0785,-1.0721,-1.0633,-1.0592,-1.0585,-1.0446,-1.0256,-1.0029,-0.9958,-0.9724,-0.9337,-0.912,-0.9052,-0.9133,-0.9005,-0.8937,-0.8933,-0.8872,-0.8716,-0.8696,-0.8679,-0.853,-0.837,-0.8442,-0.8347,-0.8065,-0.8187,-0.8197,-0.8048,-0.9801,-1.1113,0.0,0.0,0.0,0.0,0.0,0.0,0.0,0.0,0.0,0.0,0.0,-1.5351,-1.5344,-1.5117,-1.5017,-1.515,-1.5037,-1.506,-1.506,-1.506,-1.5017,-1.5144,-1.6854,-1.8627,-2.007,-2.2101,-2.3937,-2.5188,-2.5957,-2.6387,-2.6387,-2.6797,-2.7452,-2.8314,-2.7915,-2.7747,-2.88,-2.847,-2.8066,-2.8066,-2.7881,-2.7861,-2.8281,-2.7946,-2.7757,-2.8182,-2.7241,-2.595,-2.4792,-2.3328,-2.1799,-2.0587,-1.9825,-1.9138,-1.9226,-2.0294,-2.16,-2.2647,-2.3659,-2.483,-0.0,-0.0,-0.0,-0.0,-0.0,-0.7255,-1.0644,-1.1663,-1.1858,-1.1844,-1.1779,-1.1372,-1.1121,-1.072,-1.0709,-1.085,-1.1243,-1.098,-1.0917,-1.1151,-1.104,-1.0982,-1.0978,-1.0955,-1.088,-1.0751,-1.0731,-1.0721,-1.0714,-1.0585,-1.0449,-1.0438,-1.0154,-1.0012,-0.9873,-0.9588,-0.9412,-0.9351,-0.9117,-0.8984,-0.8964,-0.8835,-0.8811,-0.8779,-0.8632,-0.8462,-0.8428,-0.8425,-0.8306,-0.8062,-0.8167,-0.818,-0.8048,-1.019,-1.156,0.0,-1.4082,0.0,0.0,0.0,0.0,0.0,0.0,0.0,0.0,-1.5825,-1.5825,-1.5825,-1.5364,-1.5177,-1.5431,-1.5224,-1.5077,-1.5077,-1.5077,-1.5177,-1.5517,-1.7858,-1.9769,-2.0479,-2.2944,-2.4898,-2.5353,-2.5898,-2.6133,-2.6143,-2.6094,-2.6596,-2.7914,-2.7412,-2.7221,-2.8489,-2.7623,-2.6924,-2.6982,-2.6759,-2.6782,-2.7083,-2.6384,-2.5872,-2.6202,-2.5298,-2.4061,-2.2636,-2.1982,-2.1119,-1.9239,-1.8931,-1.8838,-1.8591,-1.8648,-1.9327,-2.1077,-2.2667,-2.4557,-0.0,-0.0,-0.0,-0.0,-0.0,-0.1564,-0.4783,-0.892,-1.1042,-1.1791,-1.165,-1.144,-1.1335,-1.1151,-1.0862,-1.0953,-1.1262,-1.1406,-1.1279,-1.1162,-1.1168,-1.1151,-1.1114,-1.1002,-1.0934,-1.0897,-1.0778,-1.0721,-1.0717,-1.0694,-1.0605,-1.0582,-1.0434,-1.0222,-1.0178,0.0,0.0,0.0,-0.9266,-0.9121,-0.8888,-0.9083,-0.8853,-0.8202,-0.8358,0.0,-0.814,-0.8123,-0.8099,-0.8045,-0.8069,0.0,0.0,0.0,0.0,0.0,0.0,0.0,0.0,0.0,0.0,0.0,-1.5745,-1.5772,-1.5825,-1.5825,-1.5825,-1.5825,-1.5732,-1.5691,-1.5738,-1.5698,-1.5665,-1.5665,-1.5665,-1.5691,-1.5745,-1.7188,-1.83,-1.9039,-2.1156,-2.2942,-2.3966,-2.4507,-2.4951,-2.5273,-2.501,-2.4918,-2.5288,-2.574,-2.6055,-2.6251,-2.6065,-2.6113,-2.6455,-2.5513,-2.4969,-2.524,-2.4667,-2.3947,-2.3981,-2.3039,-2.2337,-2.1683,-2.0787,-1.9788,-1.8978,-1.8925,-1.8798,-1.8537,-1.8484,-1.8954,-2.0347,-2.1158,-2.2371,-0.0,0.0,-0.0,-0.0,0.0,-0.2024,-0.449,-0.7358,-1.0646,-1.1791,-1.1609,-1.1457,-1.1392,-1.1385,-1.1087,-1.1064,-1.1416,-1.1504,-1.1549,-1.1385,-1.1331,-1.1294,-1.127,-1.1124,-1.1019,-1.0945,-1.0792,-1.0721,-1.0721,-1.0721,-1.0778,-1.0627,-1.0551,-1.0351,-1.0273,-1.0049,-0.9751,-0.9381,-0.9306,-0.9232,-0.915,-0.9008,-0.8749,-0.8272,-0.8384,0.0,0.0,0.0,0.0,0.0,0.0,0.0,0.0,-0.8627,0.0,-1.0872,-1.2139,-1.3204,-1.3884,-1.5051,-1.5534,-1.4949,-1.5439,-1.5825,-1.5825,-1.5825,-1.5825,-1.5825,-1.5825,-1.5825,-1.5825,-1.5825,-1.5825,-1.5825,-1.5825,-1.5825,-1.5933,-1.7079,-1.8145,-1.8624,-2.021,-2.1881,-2.3024,-2.337,-2.3841,-2.4584,-2.4375,-2.4102,-2.416,-2.4658,-2.5078,-2.4993,-2.4498,-2.4268,-2.4359,-2.3412,-2.2807,-2.3125,-2.2518,-2.2021,-2.2253,-2.1264,-2.0479,-2.0465,-1.9699,-1.9052,-1.8771,-1.8597,-1.8404,-1.8123,-1.8043,-1.8461,-1.9733,-2.0401,-2.1604,-0.0,-0.0,-0.1554,-0.1706,-0.123,-0.446,-0.6326,-0.7429,0.0,0.0,0.0,-1.1487,-1.1433,-1.1571,-1.1301,-1.1454,-1.1568,-1.1594,-1.153,-1.1606,-1.1463,-1.1396,-1.1382,-1.1209,-1.1063,-1.0945,-1.0795,-1.0721,-1.0721,-1.0721,-1.066,-1.0675,-1.0507,-1.0409,-1.0243,-1.011,-0.9914,-0.9649,-0.9374,-0.9336,-0.9301,-0.893,-0.8665,-0.8527,-0.8459,-0.8235,-0.8089,-0.8052,-0.798,-0.7862,-0.797,-0.8038,-0.8038,-0.9019,-0.9817,-1.0139,-1.2058,-1.2829,-1.2093,-1.3908,-1.4752,-1.3968,-1.5051,-1.5825,-1.5825,-1.5825,-1.5825,-1.5825,-1.5825,-1.5825,-1.5825,-1.5825,-1.5825,-1.5825,-1.5825,-1.5825,-1.5838,-1.6968,-1.7794,-1.8074,-1.928,-2.0637,-2.164,-2.2178,-2.2712,-2.3668,-2.3554,-2.3204,-2.3152,-2.3592,-2.4098,-2.3721,-2.3047,-2.2414,-2.2017,-2.1198,-2.067,-2.1285,-2.0454,-1.9927,-2.0245,-1.9892,-1.9307,-1.9273,-1.8998,-1.8751,-1.8464,-1.8243,-1.7943,-1.7642,-1.7589,-1.8094,-1.9569,-2.0144,-2.1246,-0.0,-0.0607,-0.7161,-0.8083,-0.5017,-0.5603,-0.7679,-1.0925,-1.1739,-1.1901,-1.1619,-1.1596,-1.1586,-1.1589,-1.1565,-1.1565,-1.1589,-1.1586,-1.1599,-1.1613,-1.148,-1.1409,-1.1379,-1.1107,-1.0968,-1.0934,-1.0792,-1.0721,-1.0721,-1.0721,-1.0711,-1.0673,-1.0558,-1.0358,-1.01,-1.0059,-0.9964,-0.9791,-0.9629,-0.9359,-0.899,-0.9064,-0.9032,-0.8903,-0.8615,-0.8384,-0.8241,-0.8113,-0.8028,-0.8007,-0.8028,-0.8038,-0.8038,-0.8237,-0.8885,-1.0004,-1.0479,-1.1044,-1.2098,-1.2345,-1.2915,-1.3872,-1.5045,-1.5825,-1.5825,-1.5825,-1.5825,-1.5825,-1.5825,-1.5825,-1.5825,-1.5825,-1.5825,-1.5825,-1.5825,-1.5825,-1.5825,-1.6055,-1.6375,-1.6691,-1.7479,-1.8438,-1.9317,-2.05,-2.1581,-2.2144,-2.1971,-2.132,-2.0896,-2.1993,-2.2672,-2.202,-2.1644,-2.1236,-2.0492,-1.936,-1.8895,-1.9406,-1.8772,-1.8287,-1.8686,-1.8692,-1.8677,-1.8637,-1.8597,-1.8444,-1.8183,-1.809,-1.801,-1.7853,-1.7786,-1.8596,-2.0735,-2.0664,-2.0814,-0.2449,-0.6522,-1.019,-1.0613,-0.903,-0.8908,-0.9829,-1.1362,-1.1769,-1.1748,-1.1626,-1.1616,-1.1616,-1.1616,-1.1616,-1.1616,-1.1619,-1.163,-1.1582,-1.1494,-1.1433,-1.1355,-1.1253,-1.105,-1.0948,-1.0938,-1.0792,-1.0721,-1.0721,-1.0721,-1.0721,-1.0714,-1.0649,-1.0507,-1.03,-1.0212,-1.01,-0.9947,-0.9724,-0.9453,-0.914,-0.9235,-0.9167,-0.8947,-0.8794,-0.8621,-0.8394,-0.8316,-0.8279,-0.8279,-0.8204,-0.8167,-0.8163,-0.8089,-0.8265,-0.9022,-0.9652,-0.9933,-0.9917,-1.1119,-1.2528,-1.3776,-1.5045,-1.554,-1.4854,-1.5432,-1.5825,-1.5825,-1.5825,-1.5825,-1.5825,-1.5825,-1.5825,-1.5825,-1.5825,-1.5825,-1.5825,-1.5825,-1.5885,-1.5999,-1.6381,-1.7058,-1.7992,-1.8877,-1.9729,-2.0446,-2.04,-2.0034,-1.9488,-2.0314,-2.0953,-2.0395,-1.9761,-1.9288,-1.88,-1.7712,-1.723,-1.7696,-1.7551,-1.7515,-1.7929,-1.8277,-1.845,-1.8477,-1.8364,-1.821,-1.8043,-1.8524,-1.8675,-1.8786,-1.942,-2.0428,-2.133,-2.1511,-2.2045,-0.4571,-1.1495,-1.1632,-1.1537,-1.155,-1.1488,-1.1448,-1.1248,-1.1474,-1.1514,-1.1514,-1.1514,-1.1535,-1.1565,-1.1569,-1.1569,-1.1569,-1.1569,-1.1484,-1.1348,-1.1304,-1.1229,-1.1107,-1.0968,-1.0897,-1.0884,-1.0775,-1.0721,-1.0721,-1.0721,-1.0721,-1.0721,-1.0721,-1.0643,-1.049,-1.0351,-1.0205,-1.0042,-0.9791,-0.9639,-0.9483,-0.9459,-0.9269,-0.9174,-0.9005,-0.8876,-0.8648,-0.857,-0.853,-0.8526,-0.8397,-0.8306,-0.8265,-0.816,-0.8106,-0.823,-0.8958,-0.9118,-0.8233,-1.019,-1.194,-1.2909,-1.4459,-1.4854,-1.3782,-1.4657,-1.5242,-1.4956,-1.5146,-1.5337,-1.5343,-1.5635,-1.5825,-1.5825,-1.5825,-1.5825,-1.5825,-1.5825,-1.5825,-1.5825,-1.5825,-1.6204,-1.7037,-1.7505,-1.8156,-1.8872,-1.9139,-1.9023,-1.8676,-1.8601,-1.8656,-1.8501,-1.7995,-1.7692,-1.7318,-1.6581,-1.6155,-1.654,-1.6854,-1.7194,-1.7615,-1.7963,-1.8156,-1.8103,-1.7976,-1.8083,-1.8311,-1.9012,-1.9561,-1.993,-2.0735,-2.1541,-2.1634,-2.2477,-2.3277,-0.4496,-1.1088,-1.1484,-1.1486,-1.1463,-1.1342,-1.1238,-1.1206,-1.1202,-1.1206,-1.1206,-1.1202,-1.1284,-1.1402,-1.1557,-1.1557,-1.1413,-1.1265,-1.1188,-1.1179,-1.105,-1.0982,-1.0958,-1.0816,-1.0741,-1.0744,-1.0727,-1.0721,-1.0721,-1.0721,-1.0721,-1.0721,-1.0721,-1.0649,-1.0497,-1.0354,-1.0205,-1.0053,-0.9883,-0.9741,-0.9731,-0.958,-0.9487,-0.9701,-0.9325,-0.9123,-0.9069,-0.8832,-0.8693,-0.8679,-0.855,-0.8408,-0.8296,-0.8258,-0.8306,-0.8414,-0.8289,-0.8137,-0.8137,-0.9312,-1.0288,-1.048,-1.2716,-1.3494,-1.2334,-1.3301,-1.3494,-1.2818,-1.3397,-1.4166,-1.4166,-1.5146,-1.5825,-1.5825,-1.5825,-1.5825,-1.5825,-1.5825,-1.5825,-1.5825,-1.5825,-1.5927,-1.6197,-1.6943,-1.7591,-1.777,-1.7863,-1.7509,-1.6501,-1.6427,-1.6483,-1.6316,-1.6757,-1.7109,-1.6386,-1.592,-1.5985,-1.6286,-1.6553,-1.68,-1.7001,-1.7168,-1.7295,-1.7442,-1.7529,-1.7867,-1.8844,-1.9627,-2.0097,-2.1107,-2.1636,-2.1828,-2.1845,-2.2746,-2.3831,-0.3128,-0.7826,-0.7977,-0.9272,-1.1131,-1.1144,-1.1057,-1.104,-1.104,-1.0985,-1.0907,-1.09,-1.1029,-1.1253,-1.1542,-1.1542,-1.1257,-1.0971,-1.103,-1.104,-1.0972,-1.0904,-1.0812,-1.0751,-1.0721,-1.0721,-1.0721,-1.0721,-1.0721,-1.0721,-1.0721,-1.0721,-1.0721,-1.0687,-1.0619,-1.048,-1.0334,-1.0188,-1.0032,-0.9886,-0.9751,-0.9673,-0.9602,-0.9641,-0.9456,-0.9378,-0.9293,-0.9167,-0.9066,-0.8974,-0.8835,-0.8682,-0.854,-0.8445,-0.8421,-0.8462,-0.8289,-0.8133,-0.8045,-0.9217,-1.0002,-1.0002,-1.1648,-1.2139,-1.097,-1.1945,-1.2139,-1.1263,-1.2619,-1.4172,-1.4848,-1.5439,-1.5825,-1.5825,-1.5825,-1.5825,-1.5825,-1.5825,-1.5825,-1.5825,-1.5825,-1.5825,-1.5825,-1.6204,-1.6574,-1.6567,-1.6567,-1.6317,-1.5759,-1.5758,-1.5765,-1.5698,-1.623,-1.6278,-1.592,-1.5825,-1.5965,-1.6199,-1.6366,-1.6473,-1.6667,-1.6774,-1.6894,-1.6887,-1.7379,-1.7902,-1.8706,-2.0424,-2.1514,-2.216,-2.3241,-2.3721,-2.373,-2.3932,-2.4098,-0.2077,-0.5304,-0.6478,-0.8461,-1.1107,-1.099,-1.0903,-1.0894,-1.0887,-1.0822,-1.0724,-1.0721,-1.0836,-1.1029,-1.1224,-1.1248,-1.1104,-1.0819,-1.0743,-1.0897,-1.0884,-1.0826,-1.0727,-1.0721,-1.0721,-1.0721,-1.0721,-1.0721,-1.0721,-1.0721,-1.0721,-1.0721,-1.0721,-1.0721,-1.0704,-1.0568,-1.0443,-1.0334,-1.0154,-0.9995,-0.9893,-0.9842,-0.9771,-0.9556,-0.9666,-0.9615,-0.951,-0.9462,-0.9395,-0.9279,-0.91,-0.893,-0.8781,-0.8628,-0.8526,-0.8479,-0.8387,-0.8262,-0.8113,-0.895,-0.941,-0.9509,-1.0681,-1.0877,-0.9998,-1.0974,-1.1458,-1.097,-1.2619,-1.4364,-1.5051,-1.5635,-1.5825,-1.5825,-1.5825,-1.5825,-1.5825,-1.5825,-1.5825,-1.5825,-1.5825,-1.5825,-1.5825,-1.5825,-1.592,-1.592,-1.5825,-1.5778,-1.5745,-1.5752,-1.5805,-1.5732,-1.5765,-1.5825,-1.5825,-1.5825,-1.5952,-1.6072,-1.6199,-1.6333,-1.648,-1.65,-1.6587,-1.6686,-1.7457,-1.8415,-1.9246,-2.0845,-2.1622,-2.2072,-2.2926,-2.3804,-2.3222,-2.3439,-2.3168,-0.2069,-0.5696,-0.9074,-1.0553,-1.0958,-1.0958,-1.0877,-1.0748,-1.0738,-1.0727,-1.0721,-1.0721,-1.0727,-1.0765,-1.0762,-1.0819,-1.0819,-1.0816,-1.0745,-1.0751,-1.0741,-1.0731,-1.0721,-1.0721,-1.0721,-1.0721,-1.0721,-1.0721,-1.0721,-1.0721,-1.0721,-1.0721,-1.0721,-1.0721,-1.07,-1.0578,-1.049,-1.0443,-1.0215,-1.0053,-1.0025,-0.9903,-0.9839,-0.9829,-0.9812,-0.9802,-0.9774,-0.9669,-0.9595,-0.9588,-0.931,-0.9086,-0.894,-0.8788,-0.8648,-0.8509,-0.8479,-0.8408,-0.8262,-0.8227,-0.824,-0.8333,-0.9312,-0.9509,-0.8627,-1.0485,-1.175,-1.175,-1.3102,-1.4166,-1.4364,-1.5242,-1.5825,-1.5825,-1.5825,-1.5825,-1.5825,-1.5825,-1.5825,-1.5825,-1.5825,-1.5825,-1.5825,-1.5825,-1.5825,-1.5825,-1.5825,-1.5758,-1.5591,-1.5685,-1.5705,-1.5605,-1.5665,-1.5825,-1.5825,-1.5825,-1.5838,-1.5925,-1.6072,-1.6179,-1.6092,-1.6066,-1.6199,-1.6384,-1.6766,-1.7821,-1.9492,-2.0151,-2.0079,-2.0471,-2.0965,-2.1544,-2.1942,-2.1266,-2.1225,-0.2173,-0.5677,-0.9203,-1.0705,-1.0812,-1.0802,-1.0768,-1.0721,-1.0721,-1.0721,-1.0721,-1.0721,-1.0721,-1.0724,-1.0775,-1.0665,-1.0802,-1.0665,-1.0768,-1.0721,-1.0721,-1.0721,-1.0721,-1.0721,-1.0721,-1.0721,-1.0721,-1.0721,-1.0721,-1.0721,-1.0721,-1.0721,-1.0721,-1.0721,-1.0711,-1.0666,-1.0595,-1.049,-1.0375,-1.029,-1.0202,-1.0015,-0.9988,-1.011,-1.0019,-0.992,-0.9822,-0.9863,-0.9805,-0.9618,-0.9503,-0.9378,-0.9228,-0.9079,-0.8882,-0.8662,-0.8628,-0.8523,-0.8306,-0.8221,-0.814,-0.8052,-0.8432,-0.8638,-0.8531,-1.0288,-1.1945,-1.2237,-1.3884,-1.5045,-1.5146,-1.554,-1.5825,-1.5825,-1.5825,-1.5825,-1.5825,-1.5825,-1.5825,-1.5825,-1.5825,-1.5825,-1.5825,-1.5825,-1.5825,-1.5825,-1.5825,-1.5772,-1.5725,-1.5778,-1.5792,-1.5718,-1.5758,-1.5825,-1.5825,-1.5825,-1.5832,-1.5852,-1.5919,-1.5952,-1.5905,-1.5912,-1.6019,-1.6148,-1.6416,-1.7003,-1.8719,-1.9367,-1.9178,-1.9351,-1.9862,-1.9827,-2.0412,-1.9844,-2.0071,-0.1429,-0.4192,-0.8785,-1.0723,-1.0744,-1.0724,-1.0721,-1.0721,-1.0721,-1.0721,-1.0721,-1.0721,-1.0721,-1.0721,-1.0721,-1.0721,-1.0721,-1.0721,-1.0721,-1.0721,-1.0721,-1.0721,-1.0721,-1.0721,-1.0721,-1.0721,-1.0721,-1.0721,-1.0721,-1.0721,-1.0721,-1.0721,-1.0721,-1.0721,-1.0721,-1.0721,-1.0663,-1.0571,-1.0517,-1.0436,-1.0354,-1.03,-1.0149,-1.0273,-1.0352,-1.0249,-0.9978,-1.007,-1.0015,-0.9788,-0.9707,-0.9568,-0.9327,-0.9208,-0.9042,-0.8818,-0.8733,-0.8628,-0.8442,-0.8367,-0.8292,-0.8197,-0.8184,-0.8184,-0.8278,-1.012,-1.1368,-1.2335,-1.3817,-1.5242,-1.573,-1.5825,-1.5825,-1.5825,-1.5825,-1.5825,-1.5825,-1.5825,-1.5825,-1.5825,-1.5825,-1.5825,-1.5825,-1.5825,-1.5825,-1.5825,-1.5825,-1.5825,-1.5832,-1.5925,-1.5912,-1.5858,-1.5925,-1.5919,-1.5872,-1.5832,-1.5832,-1.5845,-1.5845,-1.5832,-1.5825,-1.5825,-1.5825,-1.6015,-1.6292,-1.685,-1.749,-1.8218,-1.8503,-1.8503,-1.817,-1.7983,-1.8361,-1.8542,-1.8809,-0.0,-0.0,-0.7591,-1.0238,-1.0628,-1.0731,-1.0721,-1.0721,-1.0721,-1.0721,-1.0721,-1.0721,-1.0721,-1.0721,-1.0721,-1.0721,-1.0721,-1.0724,-1.0721,-1.0721,-1.0721,-1.0721,-1.0721,-1.0721,-1.0721,-1.0721,-1.0721,-1.0721,-1.0721,-1.0721,-1.0721,-1.0721,-1.0721,-1.0721,-1.0721,-1.0721,-1.0721,-1.068,-1.0582,-1.0507,-1.048,-1.0385,-1.0334,-1.0334,-1.0558,-1.0555,-1.0293,-1.0283,-1.0195,-1.0032,-0.9897,-0.9615,-0.9262,-0.9164,-0.9086,-0.893,-0.8798,-0.8723,-0.8679,-0.856,-0.8479,-0.8431,-0.8459,-0.8435,-0.8612,-0.9642,-1.0865,-1.2144,-1.3367,-1.449,-1.5573,-1.5845,-1.5825,-1.5825,-1.5825,-1.5825,-1.5825,-1.5825,-1.5825,-1.5825,-1.5825,-1.5825,-1.5825,-1.5825,-1.5825,-1.5825,-1.5825,-1.5825,-1.5838,-1.5999,-1.6066,-1.5985,-1.6025,-1.6092,-1.5959,-1.5838,-1.5838,-1.5838,-1.5832,-1.5825,-1.5825,-1.5825,-1.5825,-1.592,-1.592,-1.6386,-1.6473,-1.7117,-1.7124,-1.7044,-1.6529,-1.6543,-1.6753,-1.7152,-1.7399,-0.0,-0.0,-0.2341,-0.6256,-1.0381,-1.0755,-1.0744,-1.0744,-1.0727,-1.0721,-1.0721,-1.0721,-1.0721,-1.0724,-1.0734,-1.0738,-1.0721,-1.0738,-1.0738,-1.0731,-1.0724,-1.0721,-1.0721,-1.0721,-1.0721,-1.0721,-1.0721,-1.0721,-1.0724,-1.0721,-1.0721,-1.0721,-1.0721,-1.0721,-1.0721,-1.0738,-1.0738,-1.0717,-1.0714,-1.0697,-1.0677,-1.0518,-1.0639,-1.0646,-1.0687,-1.0683,-1.0639,-1.0504,-1.0307,-1.007,-1.0002,-0.9774,-0.9391,-0.9211,-0.9086,-0.8954,-0.8896,-0.8811,-0.872,-0.8672,-0.8594,-0.8513,-0.8486,-0.8482,-0.8587,-0.9576,-1.0861,-1.2273,-1.3397,-1.4643,-1.5712,-1.5945,-1.5852,-1.5825,-1.5825,-1.5825,-1.5825,-1.5825,-1.5825,-1.5825,-1.5825,-1.5825,-1.5825,-1.5825,-1.5825,-1.5825,-1.5825,-1.5825,-1.5852,-1.5939,-1.6066,-1.6112,-1.6213,-1.6233,-1.6059,-1.5965,-1.5972,-1.5885,-1.5832,-1.5825,-1.5825,-1.5825,-1.5825,-1.5825,-1.5825,-1.5825,-1.592,-1.6008,-1.6109,-1.6109,-1.613,-1.6028,-1.5832,-1.6109,-1.648,-0.0,-0.0,-0.0,-0.3286,-0.855,-0.9201,-0.9841,-1.0611,-1.0724,-1.0721,-1.0721,-1.0727,-1.0731,-1.0751,-1.0682,-1.0712,-1.0709,-1.0762,-1.0654,-1.0749,-1.0755,-1.0721,-1.0721,-1.0721,-1.0758,-1.0785,-1.0748,-1.0751,-1.0802,-1.0748,-1.0721,-1.0721,-1.0731,-1.0734,-1.0744,-1.0675,-1.028,-0.9137,-1.0012,-1.0028,-0.9288,-0.9974,-1.012,-0.916,-0.9984,-0.9984,-0.9015,-0.9036,-0.9522,-0.9926,-1.0042,-0.9778,-0.9418,-0.9283,-0.915,-0.8981,-0.8933,-0.8893,-0.8808,-0.8798,-0.876,-0.8669,-0.8652,-0.8655,-0.8749,-0.9455,-1.0544,-1.2383,-1.3132,-1.4313,-1.5986,-1.6172,-1.6012,-1.5992,-1.5892,-1.5838,-1.5825,-1.5825,-1.5825,-1.5825,-1.5825,-1.5825,-1.5825,-1.5825,-1.5825,-1.5825,-1.5825,-1.5825,-1.5852,-1.5932,-1.6066,-1.6206,-1.6333,-1.6273,-1.6126,-1.6092,-1.6106,-1.5972,-1.5825,-1.5825,-1.5825,-1.5825,-1.5825,-1.5825,-1.5825,-1.5825,-1.5825,-1.5825,-1.592,-1.5825,-1.5825,-1.5825,-1.5825,-1.5825,-1.6109,-0.0,-0.0,-0.0,-0.1939,-0.5211,-0.6972,-0.8974,-1.0512,-1.0772,-1.0652,-1.0648,-1.0682,-1.0401,-1.0421,-1.0422,-1.0763,-1.0649,-1.0731,-1.077,-1.0554,-1.0248,-1.0114,-1.0672,-1.0809,-1.0867,-1.0796,-1.0836,-1.0843,-1.0948,-1.0719,-1.0748,-1.0789,-1.0685,-1.0385,-1.0162,-1.0412,-0.9036,-0.6772,-0.8335,-0.791,-0.6327,-0.794,-0.8215,-0.5503,-0.8622,-0.9442,-0.739,-0.7609,-0.8568,-1.0048,-1.0005,-0.9713,-0.9459,-0.9388,-0.9242,-0.9015,-0.8964,-0.896,-0.895,-0.892,-0.8913,-0.8893,-0.8889,-0.8937,-0.8879,-0.9211,-1.0313,-1.2514,-1.306,-1.405,-1.6066,-1.6466,-1.6306,-1.6233,-1.5992,-1.5845,-1.5825,-1.5825,-1.5825,-1.5825,-1.5825,-1.5825,-1.5825,-1.5825,-1.5825,-1.573,-1.5635,-1.5439,-1.5471,-1.5447,-1.5846,-1.6005,-1.6085,-1.6426,-1.6319,-1.6333,-1.6319,-1.6086,-1.5912,-1.5825,-1.5825,-1.5825,-1.5825,-1.5825,-1.5825,-1.5825,-1.5825,-1.5825,-1.5825,-1.5825,-1.5825,-1.5825,-1.5825,-1.5832,-1.5845,-0.0,-0.0,-0.0,-0.0554,-0.2225,-0.7181,-0.9964,-1.0711,-1.0688,-1.0519,-1.0679,-1.0695,-0.9408,-0.719,-0.9628,-1.0651,-1.0234,-1.0417,-1.0699,-1.024,-0.7781,-0.8576,-1.026,-1.0806,-1.0953,-1.0987,-1.0926,-1.107,-1.1101,-1.0933,-1.0783,-1.0943,-1.0659,-0.9414,-0.7477,-0.9342,-0.8783,-0.5524,-0.3298,-0.5355,-0.7934,-0.487,-0.242,-0.2286,-0.7428,-1.0024,-0.9308,-0.9459,-0.9707,-1.0163,-0.9992,-0.9744,-0.9557,-0.9445,-0.9347,-0.9256,-0.915,-0.9093,-0.9072,-0.9008,-0.895,-0.8937,-0.8964,-0.8937,-0.894,-0.9877,-1.1246,-1.2929,-1.3825,-1.5039,-1.6566,-1.6754,-1.652,-1.6273,-1.5827,-1.5648,-1.573,-1.5825,-1.5825,-1.5825,-1.573,-1.573,-1.5534,-1.5534,-1.5534,-1.5439,-1.4949,-1.437,-1.44,-1.4418,-1.4588,-1.5237,-1.5518,-1.6222,-1.6573,-1.6587,-1.6486,-1.6233,-1.6019,-1.5825,-1.5825,-1.5825,-1.5825,-1.5825,-1.5825,-1.5825,-1.5825,-1.5825,-1.5825,-1.5825,-1.5872,-1.5892,-1.5852,-1.5838,-1.5865,-0.0,-0.0,-0.0,-0.0,-0.0,-0.4485,-0.7004,-0.8276,-0.8547,-0.8542,-0.8686,-1.0119,-0.9553,-0.7715,-0.6635,-0.6247,-0.6271,-0.6173,-0.6935,-0.8124,-0.6342,-0.6687,-0.8154,-0.8668,-0.9405,-1.1024,-1.0955,-1.1097,-1.1274,-1.1114,-1.0228,-0.9087,-1.0113,-0.955,-0.7985,-0.6067,-0.0,-0.3079,-0.0977,-0.2366,-0.5366,-0.5361,-0.5038,-0.515,-0.8836,-1.065,-1.0672,-1.0558,-1.0397,-1.0293,-1.0049,-0.9825,-0.9629,-0.953,-0.9449,-0.9391,-0.9293,-0.9225,-0.9164,-0.9123,-0.9096,-0.9062,-0.9076,-0.9083,-0.9269,-1.0338,-1.1735,-1.2904,-1.4356,-1.5682,-1.6697,-1.6462,-1.587,-1.5404,-1.4728,-1.4491,-1.4873,-1.4943,-1.4657,-1.4465,-1.4561,-1.4758,-1.4274,-1.4184,-1.4184,-1.398,-1.3494,-1.3204,-1.3108,-1.3113,-1.3482,-1.4225,-1.5134,-1.585,-1.6494,-1.6607,-1.64,-1.6166,-1.6086,-1.5892,-1.5865,-1.5858,-1.5825,-1.5825,-1.5825,-1.5825,-1.5825,-1.5825,-1.5825,-1.5852,-1.5919,-1.5952,-1.5919,-1.6005,-1.6012,-0.0,-0.0,-0.0,-0.0,-0.0,-0.0,-0.2275,-0.4508,-0.4808,-0.4811,-0.5383,-0.8086,-0.8287,-0.9095,-0.0,-0.0,-0.0,-0.0,-0.239,-0.4044,-0.4321,-0.4683,-0.4701,-0.48,-0.6377,-0.8857,-1.0058,-1.0668,-1.014,-1.0073,-0.9024,-0.7622,-0.8919,-0.906,-0.6954,-0.0,-0.0,-0.0,-0.0,-0.0,-0.0,-0.6279,-0.9164,-0.942,-0.9823,-1.0769,-1.0665,-1.0724,-1.0609,-1.0314,-1.0168,-0.9985,-0.9744,-0.9686,-0.9612,-0.95,-0.9449,-0.9351,-0.9252,-0.9313,-0.9293,-0.9188,-0.9256,-0.9516,-0.9803,-1.0838,-1.2156,-1.3391,-1.4652,-1.6026,-1.6399,-1.5685,-1.485,-1.4153,-1.2952,-1.2699,-1.3241,-1.3665,-1.3272,-1.2206,-1.3094,-1.2991,-1.2402,-1.1898,-1.2088,-1.2932,-1.2304,-1.1843,-1.1945,-1.2242,-1.284,-1.3633,-1.4612,-1.5582,-1.6095,-1.66,-1.6306,-1.6046,-1.6059,-1.5972,-1.5952,-1.5925,-1.5858,-1.5825,-1.5825,-1.5825,-1.5825,-1.5825,-1.5852,-1.5952,-1.6072,-1.6066,-1.6052,-1.6239,-1.6319,-0.0,-0.0,-0.0,-0.0,-0.0,-0.0,-0.0,-0.0,-0.0,-0.0,-0.0,-0.0,-0.0,-0.0,-0.0,-0.0,-0.0,-0.0,-0.0,-0.0907,-0.1209,-0.0,-0.0,-0.0,-0.0,-0.0,-0.8837,-0.9562,-0.7373,-0.5043,-0.5337,-0.912,-0.4754,-0.0,-0.0,-0.0,-0.0,-0.0,-0.0,-0.0,-0.0,-0.6912,-1.0809,-1.075,-1.0772,-1.0678,-1.0772,-1.0738,-1.0636,-1.049,-1.0402,-1.0283,-1.0097,-0.9992,-0.991,-0.9819,-0.9663,-0.9547,-0.9507,-0.9425,-0.932,-0.9201,-0.9443,-0.9694,-1.0753,-1.2055,-1.3413,-1.4697,-1.6249,-1.6673,-1.594,-1.5309,-1.4286,-1.3132,-1.1789,-1.0878,-1.1244,-1.2141,-1.242,-1.2329,-1.2329,-1.2557,-1.2238,-1.1849,-1.1805,-1.188,-1.1396,-1.0609,-1.0904,-1.1423,-1.2574,-1.3696,-1.4642,-1.5739,-1.6384,-1.6727,-1.6433,-1.6206,-1.6179,-1.6166,-1.6146,-1.6086,-1.6052,-1.5945,-1.5825,-1.5865,-1.6005,-1.5945,-1.5992,-1.6112,-1.6253,-1.6319,-1.64,-1.654,-1.662,-0.0,-0.0,-0.0,-0.0,-0.0,-0.0,-0.0,-0.0,-0.0,-0.0,-0.0,-0.0,-0.0,-0.0,-0.0,-0.0,-0.0,-0.0,-0.0,-0.0,-0.0,-0.0,-0.0,-0.0,-0.0,-0.0,-0.382,-0.4543,-0.277,-0.0,-0.2182,-0.5693,-0.0,-0.0,-0.0,-0.0,-0.0,-0.0,-0.0,-0.0,-0.0,-0.7166,-1.0933,-1.0731,-1.0812,-1.0819,-1.0748,-1.0727,-1.068,-1.0619,-1.0592,-1.046,-1.0239,-1.0161,-1.01,-0.9934,-0.99,-0.9724,-0.9635,-0.9588,-0.95,-0.9394,-0.9889,-1.0568,-1.1646,-1.3088,-1.4482,-1.5447,-1.6405,-1.7041,-1.5618,-1.4439,-1.3477,-1.2072,-1.0534,-0.9633,-0.9832,-1.0711,-1.1165,-1.0958,-1.1039,-1.0936,-1.0793,-1.0932,-1.0591,-1.0157,-1.1034,-1.0454,-1.101,-1.1654,-1.2962,-1.4044,-1.5083,-1.6017,-1.6688,-1.6881,-1.662,-1.648,-1.646,-1.646,-1.6466,-1.638,-1.6293,-1.6206,-1.6152,-1.6253,-1.6353,-1.6259,-1.6226,-1.6413,-1.6567,-1.6653,-1.6734,-1.6807,-1.6874,-0.0,-0.0,-0.0,-0.0,-0.0,-0.0,-0.0,-0.0,-0.0,-0.0,-0.0,-0.0,-0.0,-0.0,-0.0,-0.0,-0.0,-0.0,-0.0,-0.0,-0.0,-0.0,-0.0,-0.0,-0.0,-0.0,-0.0,-0.0,-0.0,-0.0,-0.0,-0.0,-0.0,-0.0,-0.0,-0.0,-0.0,-0.0,-0.0,-0.0,-0.0,-0.8559,-1.0934,-1.0935,-1.0836,-1.0833,-1.0744,-1.0721,-1.0714,-1.0721,-1.0721,-1.05,-1.0273,-1.0209,-1.0219,-0.9951,-1.0012,-0.9914,-0.9778,-0.9747,-0.968,-0.9559,-1.0903,-1.1752,-1.2289,-1.3961,-1.5155,-1.5529,-1.6028,-1.6012,-1.4934,-1.3628,-1.2107,-1.0782,-0.9388,-0.8852,-0.8939,-0.9674,-0.9644,-0.9213,-0.9678,-0.9906,-0.941,-0.9238,-0.8804,-0.8661,-0.9772,-1.0641,-1.1097,-1.2088,-1.3453,-1.4607,-1.5645,-1.6305,-1.6972,-1.7081,-1.6814,-1.6714,-1.67,-1.676,-1.6794,-1.6847,-1.6787,-1.6627,-1.6593,-1.664,-1.6627,-1.6533,-1.658,-1.676,-1.6867,-1.6941,-1.7007,-1.7068,-1.7128,-0.0,-0.0,-0.0,-0.0,-0.0,-0.0,-0.0,-0.0,-0.0,-0.0,-0.0,-0.0,-0.0,-0.0,-0.0,-0.0,-0.0,-0.0,-0.0,-0.0,-0.0,-0.0,-0.0,-0.0,-0.0,-0.0,-0.0,-0.0,-0.0,-0.0,-0.0,-0.0,-0.0,-0.0,-0.0,-0.0,-0.0,-0.0,-0.5291,-0.8334,-0.9047,-1.0032,-1.1093,-1.1047,-1.0806,-1.0789,-1.0738,-1.0721,-1.0721,-1.0721,-1.0721,-1.0605,-1.0463,-1.0439,-1.0405,-1.03,-1.0148,-1.0025,-0.9944,-0.9852,-0.9751,-0.9975,-1.0989,-1.2423,-1.3369,-1.4874,-1.5549,-1.5544,-1.47,-1.3826,-1.2224,-1.1908,-1.0969,-0.9702,-0.9102,-0.8886,-0.8876,-0.9064,-0.9352,-0.9226,-0.9251,-0.9356,-0.9262,-0.9187,-0.9158,-0.9516,-1.0327,-1.0927,-1.1449,-1.2668,-1.4242,-1.524,-1.6169,-1.671,-1.7237,-1.7141,-1.7041,-1.6934,-1.6934,-1.7061,-1.7148,-1.7341,-1.7315,-1.7048,-1.6867,-1.6814,-1.6794,-1.68,-1.6894,-1.7054,-1.7141,-1.7215,-1.7275,-1.7328,-1.7388,-0.0,-0.0,-0.0,-0.0,-0.0,-0.0,-0.0,-0.0,-0.0,-0.0,-0.0,-0.0,-0.0,-0.0,-0.0,-0.0,-0.0,-0.0,-0.0,-0.0,-0.0,-0.0,-0.0,-0.0,-0.0,-0.0,-0.0,-0.0,-0.0,-0.0,-0.0,-0.0,-0.0,-0.0,-0.0,-0.0,-0.0,-0.0,-0.7229,-1.1477,-1.1576,-1.1338,-1.1117,-1.0895,-1.0819,-1.0812,-1.0724,-1.0721,-1.0721,-1.0721,-1.0721,-1.0677,-1.0633,-1.0592,-1.0541,-1.0405,-1.0253,-1.0127,-1.0042,-0.9907,-0.9758,-0.9751,-1.1012,-1.1962,-1.2855,-1.3798,-1.4853,-1.4729,-1.4374,-1.3088,-1.1746,-1.1318,-1.0559,-0.95,-0.9102,-0.9058,-0.8944,-0.9054,-0.9382,-0.9824,-0.9559,-0.9749,-1.0284,-1.0105,-0.995,-1.0387,-1.0998,-1.144,-1.1824,-1.3226,-1.4891,-1.6028,-1.6892,-1.6996,-1.7308,-1.7295,-1.7281,-1.7188,-1.7148,-1.7275,-1.7361,-1.7495,-1.7482,-1.7321,-1.7174,-1.7061,-1.7168,-1.7248,-1.7301,-1.7315,-1.7368,-1.7422,-1.7508,-1.7582,-1.7589,-0.0,-0.0,-0.0,-0.0,-0.0,-0.0,-0.0,-0.0,-0.0,-0.0,-0.0,-0.0,-0.0,-0.0,-0.0,-0.0,-0.0,-0.0,-0.0,-0.0,-0.0,-0.0,-0.0,-0.0,-0.0,-0.0,-0.0,-0.0,-0.0,-0.0,-0.0,-0.0,-0.0,-0.0,-0.0,-0.0,-0.0,-0.4003,-0.6772,-1.0411,-1.1352,-1.1335,-1.1147,-1.0701,-1.0839,-1.0829,-1.0734,-1.0721,-1.0721,-1.0721,-1.0721,-1.0717,-1.0717,-1.0717,-1.0609,-1.0415,-1.0348,-1.0239,-1.011,-0.9964,-0.9849,-0.9758,-1.1446,-1.1921,-1.1962,-1.2859,-1.3404,-1.3365,-1.2758,-1.2492,-1.1507,-1.1364,-1.1052,-1.0679,-1.0266,-0.9983,-1.0354,-1.058,-1.0986,-1.0855,-1.0158,-1.0562,-1.1407,-1.1498,-1.1423,-1.1478,-1.2087,-1.2226,-1.2708,-1.3857,-1.5419,-1.6749,-1.7423,-1.7423,-1.7522,-1.7495,-1.7482,-1.7428,-1.7402,-1.7462,-1.7508,-1.7569,-1.7515,-1.7462,-1.7475,-1.7402,-1.7549,-1.7589,-1.7508,-1.7482,-1.7555,-1.7589,-1.7589,-1.7589,-1.7589,-0.0,-0.0,-0.0,-0.0,-0.0,-0.0,-0.0,-0.0,-0.0,-0.0,-0.0,-0.0,-0.0,-0.0,-0.0,-0.0,-0.0,-0.0,-0.0,-0.0,-0.0,-0.0,-0.0,-0.0,-0.0,-0.0,-0.0,-0.0,-0.0,-0.0,-0.0,-0.0,-0.0,-0.0,-0.0,-0.6035,-1.0159,-0.9678,-0.7927,-0.8398,-1.1038,-1.1304,-1.1003,-1.0849,-1.0712,-1.0755,-1.0724,-1.0721,-1.0721,-1.0721,-1.0721,-1.0721,-1.0721,-1.0721,-1.0714,-1.0639,-1.0544,-1.0402,-1.0256,-1.0336,-1.0235,-1.0764,-1.2487,-1.3136,-1.2776,-1.2399,-1.2754,-1.226,-1.1402,-1.1233,-1.1651,-1.1481,-1.1957,-1.2376,-1.246,-1.2748,-1.2936,-1.2055,-1.2455,-1.2908,-1.2535,-1.2668,-1.3259,-1.3146,-1.3018,-1.2959,-1.3026,-1.3153,-1.3479,-1.4523,-1.5798,-1.7095,-1.7589,-1.7589,-1.7589,-1.7589,-1.7589,-1.7589,-1.7589,-1.7589,-1.7589,-1.7589,-1.7589,-1.7555,-1.7589,-1.7589,-1.7589,-1.7589,-1.7589,-1.7589,-1.7589,-1.7589,-1.7589,-1.7589,-1.7595,-0.0,-0.0,-0.0,-0.0,-0.0,-0.0,-0.0,-0.0,-0.0,-0.0,-0.0,-0.0,-0.0,-0.0,-0.0,-0.0,-0.0,-0.0,-0.0,-0.0,-0.0,-0.0,-0.0,-0.0,-0.0,-0.0,-0.0,-0.0,-0.0,-0.0,-0.0,-0.0,-0.0,-0.0,-0.5124,-0.9615,-1.1211,-1.0956,-1.0184,-0.9982,-1.1137,-1.1396,-1.109,-1.0674,-1.0662,-1.0734,-1.0721,-1.0721,-1.0721,-1.0721,-1.0721,-1.0721,-1.0721,-1.0711,-1.069,-1.0585,-1.0619,-1.0548,-1.0531,-1.1055,-1.1193,-1.1721,-1.3166,-1.4059,-1.3509,-1.3226,-1.3166,-1.3049,-1.24,-1.2307,-1.2548,-1.2604,-1.3048,-1.3593,-1.4235,-1.4239,-1.4333,-1.4056,-1.3851,-1.4404,-1.4937,-1.4945,-1.4945,-1.4669,-1.455,-1.441,-1.4158,-1.3955,-1.4078,-1.45,-1.5901,-1.7338,-1.7582,-1.7589,-1.7589,-1.7589,-1.7595,-1.7589,-1.7589,-1.7589,-1.7589,-1.7589,-1.7589,-1.7589,-1.7589,-1.7589,-1.7589,-1.7589,-1.7589,-1.7589,-1.7589,-1.7622,-1.7649,-1.7622,-1.7669,-0.1363,-0.1391,-0.0461,-0.0,-0.0,-0.0,-0.0,-0.0,-0.0,-0.0,-0.0,-0.0,-0.0,-0.0,-0.0,-0.0,-0.0,-0.0,-0.0,-0.0,-0.0,-0.0,-0.0,-0.0,-0.0,-0.0,-0.0,-0.0,-0.0,-0.0,-0.0,-0.0471,-0.0,-0.6096,-0.9669,-1.0413,-1.0076,-1.1501,-1.1315,-1.1402,-1.1509,-1.1375,-1.1063,-1.0776,-1.0655,-1.0721,-1.0721,-1.0721,-1.0721,-1.0721,-1.0721,-1.0721,-1.0721,-1.0714,-1.0683,-1.075,-1.1048,-1.1534,-1.1607,-1.1897,-1.2581,-1.3166,-1.3707,-1.4539,-1.4766,-1.4567,-1.4019,-1.3526,-1.3424,-1.363,-1.402,-1.4077,-1.4568,-1.4961,-1.5367,-1.526,-1.5252,-1.5597,-1.5795,-1.6375,-1.6759,-1.6711,-1.6586,-1.6236,-1.6074,-1.5956,-1.5524,-1.4877,-1.4871,-1.4978,-1.5949,-1.7371,-1.7729,-1.7702,-1.7615,-1.7609,-1.7609,-1.7602,-1.7602,-1.7589,-1.7589,-1.7589,-1.7589,-1.7589,-1.7589,-1.7589,-1.7589,-1.7589,-1.7589,-1.7589,-1.7602,-1.7689,-1.7722,-1.7716,-1.7816,-0.5225,-0.5059,-0.1657,-0.0,-0.0,-0.0,-0.0,-0.0,-0.0,-0.0,-0.0,-0.0,-0.0,-0.0,-0.0,-0.0,-0.0,-0.0,-0.0,-0.0,-0.0,-0.0,-0.0,-0.0,-0.0,-0.0,-0.0,-0.0,-0.0,-0.6123,-0.471,-0.1882,-0.6087,-1.012,-1.1112,-0.9239,-0.9489,-1.103,-1.163,-1.1605,-1.1563,-1.1283,-1.1019,-1.0806,-1.0731,-1.0721,-1.0721,-1.085,-1.1111,-1.1111,-1.1083,-1.1076,-1.1197,-1.1069,-1.1038,-1.1297,-1.2465,-1.2921,-1.3242,-1.3326,-1.3522,-1.4139,-1.4831,-1.5395,-1.623,-1.4738,-1.3942,-1.4215,-1.4388,-1.4652,-1.5119,-1.5579,-1.6156,-1.6771,-1.7079,-1.7353,-1.7464,-1.7742,-1.8045,-1.8413,-1.8302,-1.7889,-1.7607,-1.7141,-1.6868,-1.6736,-1.5849,-1.5198,-1.5417,-1.563,-1.6274,-1.7099,-1.7762,-1.7862,-1.7682,-1.7689,-1.7789,-1.7716,-1.7642,-1.7615,-1.7589,-1.7589,-1.7589,-1.7589,-1.7589,-1.7589,-1.7615,-1.7682,-1.7702,-1.7622,-1.7655,-1.7869,-1.8036,-1.8116,-1.8203,-0.8661,-0.8604,-0.735,-0.5583,-0.3621,-0.3612,-0.2265,-0.0,-0.0,-0.0,-0.0,-0.0,-0.0,-0.0,-0.0,-0.0,-0.0,-0.0,-0.0,-0.0,-0.0,-0.0,-0.5228,-0.6654,-0.0,-0.4419,-0.3773,-0.2034,-0.0,-0.6895,-0.8585,-0.809,-0.8871,-0.7909,-0.7814,-0.9166,-1.0471,-1.0756,-1.1525,-1.1509,-1.1493,-1.12,-1.0931,-1.0748,-1.0721,-1.0721,-1.085,-1.1894,-1.2153,-1.2262,-1.2188,-1.2165,-1.2153,-1.2149,-1.2145,-1.2401,-1.3815,-1.4714,-1.5564,-1.5649,-1.6325,-1.7304,-1.7517,-1.7456,-1.7773,-1.704,-1.6579,-1.6404,-1.5999,-1.6271,-1.6786,-1.7099,-1.7444,-1.8321,-1.8831,-1.8991,-1.9112,-1.9138,-1.9085,-1.8831,-1.8639,-1.8393,-1.8107,-1.7842,-1.7662,-1.7411,-1.6405,-1.563,-1.5956,-1.6193,-1.6636,-1.7177,-1.7848,-1.8076,-1.7916,-1.7943,-1.8003,-1.7849,-1.7702,-1.7662,-1.7629,-1.7589,-1.7589,-1.7589,-1.7662,-1.7749,-1.7816,-1.7856,-1.7869,-1.7876,-1.8003,-1.8203,-1.835,-1.8477,-1.8577,-1.0695,-1.0727,-1.097,-0.966,-0.7357,-0.7342,-0.589,-0.3414,-0.0,-0.0907,-0.0,-0.0,-0.1553,-0.2329,-0.0,-0.0,-0.0,-0.0,-0.0,-0.0,-0.0,-0.681,-0.9677,-1.1091,-0.9931,-0.8353,-0.7994,-0.6375,-0.4814,-0.7022,-0.9024,-1.0078,-0.9449,-0.8636,-0.8844,-1.0036,-1.1633,-1.1623,-1.147,-1.1461,-1.1452,-1.1166,-1.0884,-1.0877,-1.124,-1.163,-1.2153,-1.3062,-1.397,-1.4065,-1.3998,-1.3918,-1.3882,-1.3855,-1.3842,-1.4345,-1.5296,-1.6675,-1.728,-1.8028,-1.8507,-1.8985,-1.8925,-1.8922,-1.9011,-1.8724,-1.7955,-1.7921,-1.78,-1.7943,-1.8176,-1.7978,-1.8123,-1.8751,-1.8844,-1.8991,-1.9205,-1.9285,-1.9212,-1.9105,-1.8911,-1.8711,-1.849,-1.819,-1.7862,-1.7689,-1.7166,-1.6605,-1.6823,-1.6961,-1.6906,-1.7495,-1.7948,-1.8136,-1.8183,-1.821,-1.8183,-1.7936,-1.7802,-1.7742,-1.7695,-1.7675,-1.7796,-1.7983,-1.8036,-1.8009,-1.8096,-1.8243,-1.8237,-1.819,-1.8323,-1.845,-1.8604,-1.8724,-1.8858,-1.0822,-1.0928,-1.0806,-1.0677,-1.0293,-1.0847,-1.0621,-0.9377,-0.6903,-0.4028,-0.1359,-0.0,-0.3793,-0.6999,-0.3042,-0.0,-0.0,-0.0,-0.3869,-0.8464,-0.9443,-0.9321,-0.9438,-1.0175,-1.1683,-1.2086,-1.1275,-1.08,-1.1134,-1.0892,-1.1798,-1.1841,-1.1315,-1.112,-1.1639,-1.1626,-1.1759,-1.1619,-1.147,-1.1734,-1.1717,-1.1693,-1.1799,-1.2211,-1.2676,-1.3193,-1.3582,-1.4879,-1.5784,-1.5893,-1.5837,-1.5787,-1.5787,-1.5523,-1.5666,-1.5926,-1.7002,-1.7684,-1.7702,-1.8726,-1.9325,-1.9599,-1.9305,-1.9145,-1.9165,-1.8885,-1.8537,-1.847,-1.8377,-1.8404,-1.847,-1.8504,-1.8691,-1.8865,-1.8971,-1.9052,-1.9272,-1.9366,-1.9279,-1.9239,-1.9078,-1.8885,-1.8698,-1.8444,-1.8023,-1.7782,-1.7642,-1.7589,-1.7602,-1.7583,-1.7449,-1.7639,-1.8196,-1.8317,-1.839,-1.843,-1.8357,-1.809,-1.7896,-1.7816,-1.7862,-1.7929,-1.8103,-1.8343,-1.829,-1.815,-1.8404,-1.8691,-1.8671,-1.8644,-1.8571,-1.8664,-1.8818,-1.8951,-1.9045,-1.066,-1.0792,-1.0741,-1.0652,-1.0776,-1.092,-1.1047,-1.0914,-1.0009,-0.8864,-0.7317,-0.5256,-0.3012,-0.4221,-0.739,-0.7099,-0.7286,-0.7608,-1.0289,-0.8361,-1.1029,-1.1472,-1.0965,-1.092,-1.194,-1.2035,-1.2176,-1.2388,-1.2169,-1.2369,-1.2284,-1.2159,-1.1996,-1.1887,-1.172,-1.1775,-1.1653,-1.1879,-1.2581,-1.338,-1.3489,-1.3975,-1.4581,-1.4955,-1.5033,-1.5009,-1.5135,-1.6695,-1.7468,-1.7574,-1.7641,-1.7539,-1.7523,-1.7376,-1.7399,-1.7736,-1.8753,-1.9453,-1.9152,-1.9351,-1.9426,-1.9412,-1.9366,-1.9239,-1.9305,-1.9018,-1.8838,-1.8738,-1.8637,-1.8657,-1.8718,-1.8764,-1.8925,-1.9145,-1.9245,-1.9252,-1.9359,-1.9366,-1.9332,-1.9325,-1.9225,-1.9072,-1.8891,-1.8691,-1.8317,-1.8056,-1.7929,-1.7729,-1.7689,-1.7842,-1.7855,-1.8041,-1.835,-1.849,-1.8577,-1.8557,-1.8551,-1.8384,-1.8096,-1.7862,-1.7956,-1.8183,-1.8317,-1.8517,-1.8397,-1.8303,-1.8644,-1.8945,-1.9092,-1.9105,-1.8971,-1.8938,-1.9078,-1.9145,-1.9158,-1.0504,-1.0636,-1.0639,-1.0673,-1.0731,-1.0826,-1.0829,-1.1,-1.1211,-1.1389,-1.0784,-0.8647,-0.6743,-0.6301,-0.8685,-1.1623,-1.1656,-1.1521,-1.1195,-0.868,-1.0646,-1.1582,-1.1871,-1.1935,-1.1881,-1.1986,-1.1989,-1.204,-1.2111,-1.2182,-1.2121,-1.1959,-1.1745,-1.1725,-1.1856,-1.2093,-1.2757,-1.3243,-1.4064,-1.538,-1.575,-1.6087,-1.6493,-1.6936,-1.7136,-1.6824,-1.7211,-1.8244,-1.9413,-1.9357,-1.9265,-1.9268,-1.9243,-1.9113,-1.9131,-1.9575,-1.9801,-2.0301,-1.9754,-1.9422,-1.9406,-1.9372,-1.9366,-1.9419,-1.9432,-1.9252,-1.9132,-1.9018,-1.8858,-1.8905,-1.9011,-1.9058,-1.9138,-1.9352,-1.9359,-1.9359,-1.9359,-1.9366,-1.9366,-1.9366,-1.9345,-1.9205,-1.9092,-1.8878,-1.8617,-1.8424,-1.8237,-1.8043,-1.7862,-1.8003,-1.8203,-1.841,-1.8584,-1.8744,-1.8738,-1.8617,-1.8624,-1.8637,-1.835,-1.7996,-1.831,-1.8577,-1.8631,-1.8704,-1.8751,-1.8831,-1.8965,-1.9158,-1.9185,-1.9252,-1.9272,-1.9285,-1.9366,-1.9325,-1.9265,-1.0358,-1.0483,-1.0493,-1.0585,-1.0707,-1.0738,-1.0822,-1.0955,-1.0968,-1.1084,-1.124,-1.0994,-1.0171,-1.0696,-1.1399,-1.1554,-1.1599,-1.1489,-1.1358,-1.1353,-1.1633,-1.1979,-1.1948,-1.1864,-1.1796,-1.1803,-1.183,-1.1857,-1.171,-1.303,-1.3015,-1.2575,-1.2842,-1.2768,-1.3159,-1.4119,-1.4377,-1.4429,-1.581,-1.6974,-1.747,-1.7292,-1.777,-1.8214,-1.8425,-1.8518,-1.9024,-1.9807,-2.0583,-2.0829,-2.0816,-2.0949,-2.079,-2.0555,-2.0722,-2.0748,-2.0514,-2.0174,-1.996,-1.9686,-1.9466,-1.9459,-1.9379,-1.9526,-1.9553,-1.9419,-1.9305,-1.9279,-1.9192,-1.9252,-1.9325,-1.9312,-1.9312,-1.9366,-1.9366,-1.9366,-1.9366,-1.9366,-1.9366,-1.9366,-1.9366,-1.9299,-1.9265,-1.9092,-1.8905,-1.8818,-1.8657,-1.8577,-1.8397,-1.8237,-1.845,-1.8718,-1.8885,-1.9025,-1.8951,-1.8751,-1.8637,-1.8637,-1.845,-1.8217,-1.8591,-1.8878,-1.8905,-1.8998,-1.9225,-1.9299,-1.9138,-1.9105,-1.9145,-1.9232,-1.9352,-1.9366,-1.9366,-1.9366,-1.9332,-1.0259,-1.0487,-1.0493,-1.0582,-1.0711,-1.0717,-1.0806,-1.0938,-1.0951,-1.1036,-1.1179,-1.1179,-1.1148,-1.1037,-1.1185,-1.1233,-1.1274,-1.1324,-1.143,-1.1521,-1.1575,-1.1545,-1.1545,-1.1558,-1.1525,-1.1558,-1.1616,-1.1839,-1.2383,-1.3806,-1.5827,-1.5844,-1.503,-1.5053,-1.5658,-1.7,-1.6029,-1.5709,-1.7339,-1.8396,-1.9141,-1.9238,-1.9469,-1.9883,-1.9966,-2.0068,-2.0456,-2.0709,-2.1102,-2.1102,-2.1102,-2.1102,-2.1062,-2.0762,-2.0708,-2.0708,-2.0474,-2.0247,-2.0301,-1.9947,-1.9653,-1.9573,-1.9479,-1.9392,-1.9439,-1.9446,-1.9379,-1.9366,-1.9366,-1.9366,-1.9366,-1.9366,-1.9406,-1.9439,-1.9426,-1.9392,-1.9392,-1.9386,-1.9386,-1.9366,-1.9366,-1.9359,-1.9339,-1.9305,-1.9145,-1.9125,-1.9072,-1.8985,-1.8858,-1.8671,-1.8677,-1.8945,-1.9078,-1.9185,-1.9058,-1.8865,-1.8731,-1.8611,-1.8484,-1.847,-1.8764,-1.9005,-1.9105,-1.9199,-1.9279,-1.9199,-1.9038,-1.9052,-1.9125,-1.9252,-1.9366,-1.9366,-1.9366,-1.9366,-1.9366,-1.01,-1.0304,-1.0317,-1.0405,-1.0531,-1.0544,-1.0633,-1.0758,-1.0829,-1.0914,-1.0978,-1.0982,-1.0985,-1.0839,-1.0975,-1.1016,-1.1084,-1.0963,-1.1047,-1.127,-1.1331,-1.126,-1.129,-1.1437,-1.1311,-1.1482,-1.1931,-1.2266,-1.3267,-1.6334,-1.8898,-1.6718,-1.6887,-1.6924,-1.7082,-1.7863,-1.7944,-1.776,-1.8479,-1.97,-2.0459,-2.078,-2.0994,-2.1156,-2.1109,-2.1102,-2.1102,-2.1102,-2.1102,-2.1102,-2.1102,-2.1102,-2.1056,-2.0842,-2.0454,-2.0394,-2.0174,-2.0194,-2.0254,-1.9893,-1.9766,-1.9693,-1.9546,-1.9492,-1.9459,-1.9479,-1.9412,-1.9366,-1.9366,-1.9366,-1.9366,-1.9379,-1.9459,-1.9533,-1.9486,-1.9432,-1.9426,-1.9419,-1.9399,-1.9372,-1.9366,-1.9366,-1.9366,-1.9366,-1.9359,-1.9285,-1.9245,-1.9212,-1.9092,-1.8925,-1.8951,-1.9132,-1.9225,-1.9299,-1.9138,-1.9011,-1.8918,-1.8831,-1.8771,-1.8818,-1.9018,-1.9125,-1.9232,-1.9239,-1.9232,-1.9152,-1.9098,-1.9078,-1.9132,-1.9265,-1.9366,-1.9366,-1.9366,-1.9366,-1.9366,-0.9914,-1.0063,-1.0063,-1.0181,-1.0273,-1.03,-1.0371,-1.0483,-1.0619,-1.0707,-1.0731,-1.0731,-1.0755,-1.0789,-1.0789,-1.0843,-1.0904,-1.0796,-1.0839,-1.1262,-1.1614,-1.1758,-1.1769,-1.1682,-1.2506,-1.2506,-1.2952,-1.3988,-1.4591,-1.7491,-1.9545,-1.6871,-1.7307,-1.7717,-1.8132,-1.9136,-1.9297,-1.9239,-1.9999,-2.1109,-2.1186,-2.1269,-2.1102,-2.1109,-2.1102,-2.1102,-2.1102,-2.1102,-2.1102,-2.1102,-2.1062,-2.1049,-2.0808,-2.0668,-2.0254,-2.006,-1.9907,-2.0054,-2.0114,-1.9833,-1.972,-1.9639,-1.9553,-1.9512,-1.9479,-1.9452,-1.9386,-1.9446,-1.9466,-1.9392,-1.9366,-1.9372,-1.9432,-1.9472,-1.9459,-1.9446,-1.9466,-1.9439,-1.9386,-1.9366,-1.9366,-1.9366,-1.9366,-1.9366,-1.9366,-1.9359,-1.9352,-1.9339,-1.9279,-1.9125,-1.9165,-1.9272,-1.9305,-1.9339,-1.9292,-1.9178,-1.9132,-1.9065,-1.9005,-1.8978,-1.9045,-1.9185,-1.9352,-1.9319,-1.9279,-1.9265,-1.9225,-1.9205,-1.9205,-1.9292,-1.9366,-1.9366,-1.9366,-1.9366,-1.9366,-0.991,-1.0059,-1.0178,-1.0249,-1.0276,-1.028,-1.0293,-1.0334,-1.0365,-1.0514,-1.0687,-1.0711,-1.0721,-1.0721,-1.0721,-1.0761,-1.0905,-1.1484,-1.0936,-1.1636,-1.2315,-1.2877,-1.3115,-1.3888,-1.4459,-1.5055,-1.5649,-1.6096,-1.7449,-1.9759,-2.1436,-2.0868,-2.0306,-2.0001,-1.9995,-2.0822,-2.0592,-2.024,-2.0739,-2.1263,-2.1229,-2.1196,-2.1102,-2.1102,-2.1102,-2.1102,-2.1102,-2.1102,-2.1102,-2.1089,-2.0875,-2.0568,-2.0134,-2.0074,-1.996,-1.9826,-1.978,-1.9927,-1.9993,-1.9846,-1.972,-1.9653,-1.9573,-1.9472,-1.9412,-1.9386,-1.9419,-1.9512,-1.9526,-1.9426,-1.9372,-1.9379,-1.9412,-1.9432,-1.9432,-1.9459,-1.9492,-1.9432,-1.9372,-1.9366,-1.9366,-1.9366,-1.9366,-1.9366,-1.9366,-1.9366,-1.9366,-1.9359,-1.9359,-1.9272,-1.9252,-1.9325,-1.9339,-1.9352,-1.9332,-1.9312,-1.9239,-1.9199,-1.9138,-1.9112,-1.9092,-1.9225,-1.9366,-1.9359,-1.9332,-1.9319,-1.9312,-1.9325,-1.9345,-1.9366,-1.9366,-1.9366,-1.9366,-1.9366,-1.9366,-0.9778,-0.9869,-1.0012,-1.0076,-1.0076,-1.0076,-1.011,-1.0168,-1.0178,-1.0307,-1.0517,-1.0588,-1.0653,-1.0704,-1.0721,-1.1233,-1.1765,-1.2724,-1.3252,-1.3608,-1.3713,-1.425,-1.5076,-1.5657,-1.5551,-1.6014,-1.6277,-1.7118,-1.9644,-2.0571,-2.145,-2.185,-2.1683,-2.1623,-2.1603,-2.1423,-2.1289,-2.1122,-2.1102,-2.1102,-2.1102,-2.1102,-2.1102,-2.1102,-2.1102,-2.1102,-2.1102,-2.1102,-2.1102,-2.1096,-2.0969,-2.0601,-2.0247,-2.0087,-1.988,-1.9679,-1.9619,-1.9733,-1.9867,-1.9826,-1.9686,-1.9639,-1.9533,-1.9406,-1.9566,-1.9539,-1.9392,-1.9459,-1.9452,-1.9366,-1.9366,-1.9372,-1.9512,-1.9579,-1.9466,-1.9406,-1.9419,-1.9392,-1.9366,-1.9366,-1.9366,-1.9366,-1.9366,-1.9366,-1.9366,-1.9366,-1.9366,-1.9366,-1.9366,-1.9366,-1.9366,-1.9366,-1.9366,-1.9366,-1.9359,-1.9339,-1.9312,-1.9279,-1.9259,-1.9252,-1.9239,-1.9299,-1.9366,-1.9359,-1.9359,-1.9359,-1.9359,-1.9366,-1.9366,-1.9366,-1.9366,-1.9366,-1.9366,-1.9366,-1.9366,-0.9595,-0.9629,-0.9768,-0.9947,-1.0058,-1.0186,-1.0386,-1.0616,-1.0387,-1.0478,-1.064,-1.051,-1.0531,-1.0646,-1.0822,-1.1867,-1.335,-1.5439,-1.6196,-1.5959,-1.6053,-1.6177,-1.6302,-1.6711,-1.7125,-1.7232,-1.7339,-1.8792,-2.0827,-2.1115,-2.1129,-2.1156,-2.1136,-2.1136,-2.1142,-2.1122,-2.1102,-2.1109,-2.1102,-2.1102,-2.1102,-2.1102,-2.1102,-2.1102,-2.1102,-2.1102,-2.1102,-2.1102,-2.1102,-2.1056,-2.0989,-2.0588,-2.0267,-2.0027,-1.978,-1.9566,-1.9439,-1.9553,-1.9639,-1.9553,-1.9579,-1.9586,-1.9446,-1.9459,-1.9613,-1.9573,-1.9419,-1.9379,-1.9372,-1.9366,-1.9366,-1.9412,-1.9559,-1.9633,-1.9486,-1.9372,-1.9372,-1.9366,-1.9366,-1.9366,-1.9366,-1.9366,-1.9366,-1.9366,-1.9366,-1.9366,-1.9366,-1.9366,-1.9366,-1.9366,-1.9366,-1.9366,-1.9366,-1.9366,-1.9366,-1.9359,-1.9339,-1.9339,-1.9319,-1.9345,-1.9366,-1.9366,-1.9366,-1.9366,-1.9366,-1.9366,-1.9366,-1.9366,-1.9366,-1.9366,-1.9366,-1.9366,-1.9366,-1.9366,-1.9366,-0.9496,-0.9622,-0.9761,-1.0536,-1.1607,-1.1732,-1.2479,-1.3343,-1.2268,-1.189,-1.1534,-1.0621,-1.0273,-1.0534,-1.0671,-1.1464,-1.2832,-1.6713,-1.8103,-1.7471,-1.7842,-1.7971,-1.825,-1.8768,-1.9807,-1.9782,-1.9503,-2.0436,-2.1102,-2.1116,-2.1223,-2.139,-2.1162,-2.1209,-2.139,-2.1289,-2.1102,-2.1102,-2.1102,-2.1102,-2.1102,-2.1102,-2.1102,-2.1102,-2.1102,-2.1102,-2.1102,-2.1102,-2.1102,-2.1042,-2.0902,-2.0528,-2.0247,-2.0034,-1.982,-1.9646,-1.9499,-1.9526,-1.9586,-1.9512,-1.9579,-1.9533,-1.9426,-1.9386,-1.9472,-1.9466,-1.9372,-1.9372,-1.9366,-1.9366,-1.9372,-1.9412,-1.9512,-1.9512,-1.9426,-1.9392,-1.9379,-1.9372,-1.9366,-1.9366,-1.9366,-1.9366,-1.9366,-1.9366,-1.9366,-1.9366,-1.9366,-1.9366,-1.9366,-1.9366,-1.9366,-1.9366,-1.9366,-1.9366,-1.9366,-1.9366,-1.9359,-1.9366,-1.9366,-1.9366,-1.9366,-1.9366,-1.9366,-1.9366,-1.9366,-1.9366,-1.9366,-1.9366,-1.9366,-1.9366,-1.9366,-1.9366,-1.9366,-1.9366,-1.9366]},{"header":{"parameterUnit":"m.s-1","parameterCategory":1,"la1":31.0,"la2":29.5877,"lo1":-88.7671,"lo2":-86.6584,"dy":0.0162,"dx":0.0185,"nx":115,"ny":88,"refTime":"2023-06-12T06:00:00:Z","depth":0,"parameterNumber":3,"parameterNumberName":"V-component_of_WINDS"},"data":[0.0,0.0,0.0,0.0,0.0,0.0,0.0,0.0,0.0,0.0,0.0,0.0,0.0,0.0,0.0,0.0,0.0,0.0,0.0,0.0,0.0,0.0,0.0,0.0,0.0,0.0,0.0,0.0,0.0,0.0,0.0,0.0,0.0,0.0,0.0,0.0,0.0,0.0,0.0,0.0,0.0,0.0,0.0,0.0,0.0,0.0,0.0,0.0,0.0,0.0,0.0,0.0,0.0,0.0,0.0,0.0,0.0,0.0,0.0,0.0,0.0,0.0,0.0,0.0,0.0,0.0,0.0,0.0,0.0,0.0,0.0,0.0,0.0,0.0,0.0,0.0,0.0,0.0,0.0,0.0,0.0,0.0,0.0,0.0,0.0,0.0,0.0,0.0,0.0,0.0,0.0,0.0,0.0,0.0,0.0,0.0,0.0,0.0,0.0,0.0,0.0,0.0,0.0,0.0,0.0,0.0,0.0,0.0,0.0,0.0,0.0,0.0,0.0,0.0,0.0,0.0,0.0,0.0,0.0,0.0,0.0,0.0,0.0,0.0,0.0,0.0,0.0,0.0,0.0,0.0,0.0,0.0,0.0,0.0,0.0,0.0,0.0,0.0,0.0,0.0,0.0,0.0,0.0,0.0,0.0,0.0,0.0,0.0,0.0,0.0,0.0,0.0,0.0,0.0,0.0,0.0,0.0,0.0,0.0,0.0,0.0,0.0,0.0,0.0,0.0,0.0,0.0,0.0,0.0,0.0,0.0,0.0,0.0,0.0,0.0,0.0,0.0,0.0,0.0,0.0,0.0,0.0,0.0,0.0,0.0,0.0,0.0,0.0,0.0,0.0,0.0,0.0,0.0,0.0,0.0,0.0,0.0,0.0,0.0,0.0,0.0,0.0,0.0,0.0,0.0,0.0,0.0,0.0,0.0,0.0,0.0,0.0,0.0,0.0,0.0,0.0,0.0,0.0,0.0,0.0,0.0,0.0,0.0,0.0,0.0,0.0,0.0,0.0,0.0,0.0,0.0,0.0,0.0,0.0,0.0,0.0,0.0,0.0,0.0,0.0,0.0,0.0,0.0,0.0,0.0,0.0,0.0,0.0,0.0,0.0,0.0,0.0,0.0,0.0,0.0,0.0,0.0,0.0,0.0,0.0,0.0,0.0,0.0,0.0,0.0,0.0,0.0,0.0,0.0,0.0,0.0,0.0,0.0,0.0,0.0,0.0,0.0,0.0,0.0,0.0,0.0,0.0,0.0,0.0,0.0,0.0,0.0,0.0,0.0,0.0,0.0,0.0,0.0,0.0,0.0,0.0,0.0,0.0,0.0,0.0,0.0,0.0,0.0,0.0,0.0,0.0,0.0,0.0,0.0,0.0,0.0,0.0,0.0,0.0,0.0,0.0,0.0,0.0,0.0,0.0,0.0,0.0,0.0,0.0,0.0,0.0,0.0,0.0,0.0,0.0,0.0,0.0,0.0,0.0,0.0,0.0,0.0,0.0,0.0,0.0,0.0,0.0,0.0,0.0,0.0,0.0,0.0,0.0,0.0,0.0,0.0,0.0,0.0,0.0,0.0,0.0,0.0,0.0,0.0,0.0,0.0,0.0,0.0,0.0,0.0,0.0,0.0,0.0,0.0,0.0,0.0,0.0,0.0,0.0,0.0,0.0,0.0,0.0,0.0,0.0,0.0,0.0,0.0,0.0,0.0,0.0,0.0,0.0,0.0,0.0,0.0,0.0,0.0,0.0,0.0,0.0,0.0,0.0,0.0,0.0,0.0,0.0,0.0,0.0,0.0,0.0,0.0,0.0,0.0,0.0,0.0,0.0,0.0,0.0,0.0,0.0,0.0,0.0,0.0,0.0,0.0,0.0,0.0,0.0,0.0,0.0,0.0,0.0,0.0,0.0,0.0,0.0,0.0,0.0,0.0,0.0,0.0,0.0,0.0,0.0,0.0,0.0,0.0,0.0,0.0,0.0,0.0,0.0,0.0,0.0,0.0,0.0,0.0,0.0,0.0,0.0,0.0,0.0,0.0,0.0,0.0,0.0,0.0,0.0,0.0,0.0,0.0,0.0,0.0,0.0,0.0,0.0,0.0,0.0,0.0,0.0,0.0,0.0,0.0,0.0,0.0,0.0,0.0,0.0,0.0,0.0,0.0,0.0,0.0,0.0,0.0,0.0,0.0,0.0,0.0,0.0,0.0,0.0,0.0,0.0,0.0,0.0,0.0,0.0,0.0,0.0,0.0,0.0,0.0,0.0,0.0,0.0,0.0,0.0,0.0,0.0,0.0,0.0,0.0,0.0,0.0,0.0,0.0,0.0,0.0,0.0,0.0,0.0,0.0,0.0,0.0,0.0,0.0,0.0,0.0,0.0,0.0,0.0,0.0,0.0,0.0,0.0,0.0,0.0,0.0,0.0,0.0,0.0,0.0,0.0,0.0,0.0,0.0,0.0,0.0,0.0,0.0,0.0,0.0,0.0,0.0,0.0,0.0,0.0,0.0,0.0,0.0,0.0,0.0,0.0,0.0,0.0,0.0,0.0,0.0,0.0,0.0,0.0,0.0,0.0,0.0,0.0,0.0,0.0,0.0,0.0,0.0,0.0,0.0,0.0,0.0,0.0,0.0,0.0,0.0,0.0,0.0,0.0,0.0,0.0,0.0,0.0,0.0,0.0,0.0,0.0,0.0,0.0,0.0,0.0,0.0,0.0,0.0,0.0,0.0,0.0,0.0,0.0,0.0,0.0,0.0,0.0,0.0,0.0,0.0,0.0,0.0,0.0,0.0,0.0,0.0,0.0,0.0,0.0,0.0,0.0,0.0,0.0,0.0,0.0,0.0,0.0,0.0,0.0,0.0,0.0,0.0,0.0,0.0,0.0,0.0,0.0,0.0,0.0,0.0,0.0,0.0,0.0,0.0,0.0,0.0,0.0,0.0,0.0,0.0,0.0,0.0,0.0,0.0,0.0,0.0,0.0,0.0,0.0,0.0,0.0,0.0,0.0,0.0,0.0,0.0,0.0,0.0,0.0,0.0,0.0,0.0,0.0,0.0,0.0,0.0,0.0,0.0,0.0,0.0,0.0,0.0,0.0,0.0,0.0,0.0,0.0,0.0,0.0,0.0,0.0,0.0,0.0,0.0,0.0,0.0,0.0,0.0,0.0,0.0,0.0,0.0,0.0,0.0,0.0,0.0,0.0,0.0,0.0,0.0,0.0,0.0,0.0,0.0,0.0,0.0,0.0,0.0,0.0,0.0,0.0,0.0,0.0,0.0,0.0,0.0,0.0,0.0,0.0,0.0,0.0,0.0,0.0,0.0,0.0,0.0,0.0,0.0,0.0,0.0,0.0,0.0,0.0,0.0,0.0,0.0,0.0,0.0,0.0,0.0,0.0,0.0,0.0,0.0,0.0,0.0,0.0,0.0,0.0,0.0,0.0,0.0,0.0,0.0,0.0,0.0,0.0,0.0,0.0,0.0,0.0,0.0,0.0,0.0,0.0,0.0,0.0,0.0,0.0,0.0,0.0,0.0,0.0,0.0,0.0,0.0,0.0,0.0,0.0,0.0,0.0,0.0,0.0,0.0,0.0,0.0,0.0,0.0,0.0,0.0,0.0,0.0,0.0,0.0,0.0,0.0,0.0,0.0,0.0,0.0,0.0,0.0,0.0,0.0,0.0,0.0,0.0,0.0,0.0,0.0,0.0,0.0,0.0,0.0,0.0,0.0,0.0,0.0,0.0,0.0,0.0,0.0,0.0,0.0,0.0,0.0,0.0,0.0,0.0,0.0,0.0,0.0,0.0,0.0,0.0,0.0,0.0,0.0,0.0,0.0,0.0,0.0,0.0,0.0,0.0,0.0,0.0,0.0,0.0,0.0,0.0,0.0,0.0,0.0,0.0,0.0,0.0,0.0,0.0,0.0,0.0,0.0,0.0,0.0,0.0,0.0,0.0,0.0,0.0,0.0,0.0,0.0,0.0,0.0,0.0,0.0,0.0,0.0,0.0,0.0,0.0,0.0,0.0,0.0,0.0,0.0,0.0,0.0,0.0,0.0,0.0,0.0,0.0,0.0,0.0,0.0,0.0,0.0,0.0,0.0,0.0,0.0,0.0,0.0,0.0,0.0,0.0,0.0,0.0,0.0,0.0,0.0,0.0,0.0,0.0,0.0,0.0,0.0,0.0,0.0,0.0,0.0,0.0,0.0,0.0,0.0,0.0,0.0,0.0,0.0,0.0,0.0,0.0,0.0,0.0,0.0,0.0,0.0,0.0,0.0,0.0,-4.0003,0.0,0.0,0.0,0.0,0.0,0.0,0.0,0.0,0.0,0.0,0.0,0.0,0.0,0.0,0.0,0.0,0.0,0.0,0.0,0.0,0.0,0.0,0.0,0.0,0.0,0.0,0.0,0.0,0.0,0.0,0.0,0.0,0.0,0.0,0.0,0.0,0.0,0.0,0.0,0.0,0.0,0.0,0.0,0.0,0.0,0.0,0.0,0.0,0.0,0.0,0.0,0.0,0.0,0.0,0.0,0.0,0.0,0.0,0.0,0.0,0.0,0.0,0.0,0.0,0.0,0.0,0.0,0.0,0.0,0.0,0.0,0.0,0.0,0.0,0.0,0.0,0.0,0.0,0.0,0.0,0.0,0.0,0.0,0.0,0.0,0.0,0.0,0.0,0.0,0.0,0.0,0.0,0.0,0.0,0.0,0.0,0.0,0.0,0.0,0.0,0.0,0.0,0.0,0.0,0.0,0.0,0.0,0.0,0.0,0.0,-4.0684,-4.3314,-3.8642,-3.7574,-4.0763,0.0,0.0,0.0,0.0,0.0,0.0,0.0,0.0,0.0,0.0,0.0,0.0,0.0,0.0,0.0,0.0,0.0,0.0,0.0,0.0,0.0,0.0,0.0,0.0,0.0,0.0,0.0,0.0,0.0,0.0,0.0,0.0,0.0,0.0,0.0,0.0,0.0,0.0,0.0,0.0,0.0,0.0,0.0,0.0,0.0,0.0,0.0,0.0,0.0,0.0,0.0,0.0,0.0,0.0,0.0,0.0,0.0,0.0,0.0,0.0,0.0,0.0,0.0,0.0,0.0,0.0,0.0,0.0,0.0,0.0,0.0,0.0,0.0,0.0,0.0,0.0,0.0,0.0,0.0,0.0,0.0,0.0,0.0,0.0,0.0,0.0,0.0,0.0,0.0,0.0,0.0,0.0,0.0,0.0,0.0,0.0,0.0,0.0,0.0,0.0,0.0,0.0,0.0,0.0,0.0,0.0,0.0,0.0,0.0,0.0,0.0,0.0,-3.8987,-3.7949,-4.1415,0.0,0.0,0.0,0.0,0.0,0.0,0.0,0.0,0.0,0.0,0.0,0.0,0.0,0.0,0.0,0.0,0.0,0.0,0.0,0.0,0.0,0.0,0.0,0.0,0.0,0.0,0.0,0.0,0.0,0.0,0.0,0.0,0.0,0.0,0.0,0.0,0.0,0.0,0.0,0.0,0.0,0.0,0.0,0.0,0.0,0.0,0.0,0.0,0.0,0.0,0.0,0.0,0.0,0.0,0.0,0.0,0.0,0.0,0.0,0.0,0.0,0.0,0.0,0.0,0.0,0.0,0.0,0.0,0.0,0.0,0.0,0.0,0.0,0.0,0.0,0.0,0.0,0.0,0.0,0.0,0.0,0.0,0.0,0.0,0.0,0.0,0.0,0.0,0.0,0.0,0.0,0.0,0.0,0.0,0.0,0.0,0.0,0.0,0.0,0.0,0.0,0.0,0.0,0.0,0.0,0.0,0.0,0.0,0.0,0.0,-4.3958,-4.559,-4.4327,0.0,-4.2166,0.0,0.0,0.0,0.0,0.0,0.0,0.0,0.0,0.0,0.0,0.0,0.0,0.0,0.0,0.0,0.0,0.0,0.0,0.0,0.0,0.0,0.0,0.0,0.0,0.0,0.0,0.0,0.0,0.0,0.0,0.0,0.0,0.0,0.0,0.0,0.0,0.0,0.0,0.0,0.0,0.0,0.0,0.0,0.0,0.0,0.0,0.0,0.0,0.0,0.0,0.0,0.0,0.0,0.0,0.0,0.0,0.0,0.0,0.0,0.0,0.0,0.0,0.0,0.0,0.0,0.0,0.0,0.0,0.0,0.0,0.0,0.0,0.0,0.0,0.0,0.0,0.0,0.0,0.0,0.0,0.0,0.0,0.0,0.0,0.0,0.0,0.0,0.0,0.0,0.0,0.0,0.0,0.0,0.0,0.0,0.0,0.0,0.0,0.0,0.0,0.0,0.0,0.0,0.0,0.0,0.0,0.0,0.0,0.0,0.0,-4.4072,-4.5168,-4.3393,-4.1886,0.0,0.0,0.0,0.0,0.0,0.0,0.0,0.0,0.0,0.0,0.0,0.0,0.0,0.0,0.0,0.0,0.0,0.0,0.0,0.0,0.0,0.0,0.0,0.0,0.0,0.0,0.0,0.0,0.0,0.0,0.0,0.0,0.0,0.0,0.0,0.0,0.0,0.0,0.0,0.0,0.0,0.0,0.0,0.0,0.0,0.0,0.0,0.0,0.0,0.0,0.0,0.0,0.0,0.0,0.0,0.0,0.0,0.0,0.0,0.0,0.0,0.0,0.0,0.0,0.0,0.0,0.0,0.0,0.0,0.0,0.0,0.0,0.0,0.0,0.0,0.0,0.0,0.0,0.0,0.0,0.0,0.0,0.0,0.0,0.0,0.0,0.0,0.0,0.0,0.0,0.0,0.0,0.0,0.0,0.0,0.0,0.0,0.0,0.0,0.0,0.0,0.0,0.0,0.0,0.0,0.0,0.0,0.0,0.0,0.0,-4.3725,-4.3761,-4.4198,-4.1737,-4.0292,-4.0217,0.0,0.0,0.0,0.0,0.0,0.0,0.0,0.0,0.0,0.0,0.0,0.0,0.0,0.0,0.0,0.0,0.0,0.0,0.0,0.0,0.0,0.0,0.0,0.0,0.0,0.0,0.0,0.0,0.0,0.0,0.0,0.0,0.0,0.0,0.0,0.0,0.0,0.0,0.0,0.0,0.0,0.0,0.0,0.0,0.0,0.0,0.0,0.0,0.0,0.0,0.0,0.0,0.0,0.0,0.0,0.0,0.0,0.0,0.0,0.0,0.0,0.0,0.0,0.0,0.0,0.0,0.0,0.0,0.0,0.0,0.0,0.0,0.0,0.0,0.0,0.0,0.0,0.0,0.0,0.0,0.0,0.0,0.0,0.0,0.0,0.0,0.0,0.0,0.0,0.0,0.0,0.0,0.0,0.0,0.0,0.0,0.0,0.0,0.0,0.0,0.0,0.0,0.0,0.0,0.0,0.0,0.0,0.0,-4.5608,-4.4268,-4.3516,-4.3497,-4.0724,-3.9746,0.0,0.0,0.0,0.0,0.0,0.0,0.0,0.0,0.0,0.0,0.0,0.0,0.0,0.0,0.0,0.0,0.0,0.0,0.0,0.0,0.0,0.0,0.0,0.0,0.0,0.0,0.0,0.0,0.0,0.0,0.0,0.0,0.0,0.0,0.0,0.0,0.0,0.0,0.0,0.0,0.0,0.0,0.0,0.0,0.0,0.0,0.0,0.0,0.0,0.0,0.0,0.0,0.0,0.0,0.0,0.0,0.0,0.0,0.0,0.0,0.0,0.0,0.0,0.0,0.0,0.0,0.0,0.0,0.0,0.0,0.0,0.0,0.0,0.0,0.0,0.0,0.0,0.0,0.0,0.0,0.0,0.0,0.0,0.0,0.0,0.0,0.0,0.0,0.0,0.0,0.0,0.0,0.0,0.0,0.0,0.0,0.0,0.0,0.0,0.0,0.0,0.0,0.0,0.0,0.0,0.0,0.0,0.0,0.0,-4.3534,-4.302,-4.2724,-4.2665,-4.0868,-4.0271,0.0,0.0,0.0,0.0,0.0,0.0,0.0,0.0,0.0,0.0,0.0,0.0,0.0,0.0,0.0,0.0,0.0,0.0,0.0,0.0,0.0,0.0,0.0,0.0,0.0,0.0,0.0,0.0,0.0,0.0,0.0,0.0,0.0,0.0,0.0,0.0,0.0,0.0,0.0,0.0,0.0,0.0,0.0,0.0,0.0,0.0,0.0,0.0,0.0,0.0,0.0,0.0,0.0,0.0,0.0,0.0,0.0,0.0,0.0,0.0,0.0,0.0,0.0,0.0,0.0,0.0,0.0,0.0,0.0,0.0,0.0,0.0,0.0,0.0,0.0,0.0,0.0,0.0,0.0,0.0,0.0,0.0,0.0,0.0,0.0,0.0,0.0,0.0,0.0,0.0,0.0,0.0,0.0,0.0,0.0,0.0,0.0,0.0,0.0,0.0,0.0,0.0,0.0,0.0,0.0,0.0,0.0,0.0,0.0,-4.2301,0.0,-4.1787,-4.1517,-4.0404,-3.9972,0.0,0.0,0.0,0.0,0.0,0.0,0.0,0.0,0.0,0.0,0.0,0.0,0.0,0.0,0.0,0.0,0.0,0.0,0.0,0.0,0.0,0.0,0.0,0.0,0.0,0.0,0.0,0.0,0.0,0.0,0.0,0.0,0.0,0.0,0.0,0.0,0.0,0.0,0.0,0.0,0.0,0.0,0.0,0.0,0.0,0.0,0.0,0.0,0.0,0.0,0.0,0.0,0.0,0.0,0.0,0.0,0.0,0.0,0.0,0.0,0.0,0.0,0.0,0.0,0.0,0.0,0.0,0.0,0.0,0.0,0.0,0.0,0.0,0.0,0.0,0.0,0.0,0.0,0.0,0.0,0.0,0.0,0.0,0.0,0.0,0.0,0.0,0.0,0.0,0.0,0.0,0.0,0.0,0.0,0.0,0.0,0.0,0.0,0.0,0.0,0.0,0.0,0.0,0.0,0.0,0.0,0.0,0.0,-4.307,-4.2308,-4.1475,-4.0795,-4.0007,-3.9252,-3.8762,0.0,0.0,0.0,0.0,0.0,0.0,0.0,0.0,0.0,0.0,0.0,0.0,0.0,0.0,0.0,0.0,0.0,0.0,0.0,0.0,0.0,0.0,0.0,0.0,0.0,0.0,0.0,0.0,0.0,0.0,0.0,0.0,0.0,0.0,0.0,0.0,0.0,0.0,0.0,0.0,0.0,0.0,0.0,0.0,0.0,0.0,0.0,0.0,0.0,0.0,0.0,0.0,0.0,0.0,0.0,0.0,0.0,0.0,0.0,0.0,0.0,0.0,0.0,0.0,0.0,0.0,0.0,0.0,0.0,0.0,0.0,0.0,0.0,0.0,0.0,0.0,0.0,0.0,0.0,0.0,0.0,0.0,0.0,0.0,0.0,0.0,0.0,0.0,0.0,0.0,0.0,0.0,0.0,0.0,0.0,0.0,0.0,0.0,0.0,0.0,0.0,0.0,0.0,0.0,0.0,0.0,0.0,0.0,0.0,-4.1456,-4.0139,-4.0899,-4.3742,-4.0033,-3.9423,0.0,0.0,0.0,0.0,0.0,0.0,0.0,0.0,0.0,0.0,0.0,0.0,0.0,0.0,0.0,0.0,0.0,0.0,0.0,0.0,0.0,0.0,0.0,0.0,0.0,0.0,0.0,0.0,0.0,0.0,0.0,0.0,0.0,0.0,0.0,0.0,0.0,0.0,0.0,0.0,0.0,0.0,0.0,0.0,0.0,0.0,0.0,0.0,0.0,0.0,0.0,0.0,0.0,0.0,0.0,0.0,0.0,0.0,0.0,0.0,0.0,0.0,0.0,0.0,0.0,0.0,0.0,0.0,0.0,0.0,0.0,0.0,0.0,0.0,0.0,0.0,0.0,0.0,0.0,0.0,0.0,0.0,0.0,0.0,0.0,0.0,0.0,0.0,0.0,0.0,0.0,0.0,0.0,0.0,0.0,0.0,0.0,0.0,0.0,0.0,0.0,0.0,0.0,0.0,0.0,0.0,0.0,0.0,0.0,-4.2811,-4.1163,-4.1354,-4.3618,-4.0652,-3.9958,-4.1827,0.0,0.0,0.0,0.0,0.0,0.0,0.0,0.0,0.0,0.0,0.0,0.0,0.0,0.0,0.0,0.0,0.0,0.0,0.0,0.0,0.0,0.0,0.0,0.0,0.0,0.0,0.0,0.0,0.0,0.0,0.0,0.0,0.0,0.0,0.0,0.0,0.0,0.0,0.0,0.0,0.0,0.0,0.0,0.0,0.0,0.0,0.0,0.0,0.0,0.0,0.0,0.0,0.0,0.0,0.0,0.0,0.0,0.0,0.0,0.0,0.0,0.0,0.0,0.0,0.0,0.0,0.0,0.0,0.0,0.0,0.0,0.0,0.0,0.0,0.0,0.0,0.0,0.0,0.0,0.0,0.0,0.0,0.0,0.0,0.0,0.0,0.0,0.0,0.0,0.0,0.0,0.0,0.0,0.0,0.0,0.0,0.0,0.0,0.0,0.0,0.0,0.0,0.0,0.0,0.0,0.0,0.0,0.0,-4.5754,-4.4199,-4.2595,-4.0862,-4.1407,-4.0533,0.0,0.0,0.0,0.0,0.0,0.0,0.0,0.0,0.0,0.0,0.0,0.0,0.0,0.0,0.0,0.0,0.0,0.0,0.0,0.0,0.0,0.0,0.0,0.0,0.0,0.0,0.0,0.0,0.0,0.0,0.0,0.0,0.0,0.0,0.0,0.0,0.0,0.0,0.0,0.0,0.0,0.0,0.0,0.0,0.0,0.0,0.0,0.0,0.0,0.0,0.0,0.0,0.0,0.0,0.0,0.0,0.0,0.0,0.0,0.0,0.0,0.0,0.0,0.0,0.0,0.0,0.0,0.0,0.0,0.0,0.0,0.0,0.0,0.0,0.0,0.0,0.0,0.0,0.0,0.0,0.0,0.0,0.0,0.0,0.0,0.0,0.0,0.0,0.0,0.0,0.0,0.0,0.0,0.0,0.0,0.0,0.0,0.0,0.0,0.0,0.0,0.0,0.0,0.0,0.0,0.0,0.0,0.0,0.0,-4.5252,-4.7829,-4.912,-4.8735,-4.4459,-4.2554,0.0,0.0,0.0,0.0,0.0,0.0,0.0,0.0,0.0,0.0,0.0,0.0,0.0,0.0,0.0,0.0,0.0,0.0,0.0,0.0,0.0,0.0,0.0,0.0,0.0,0.0,0.0,0.0,0.0,0.0,0.0,0.0,0.0,0.0,0.0,0.0,0.0,0.0,0.0,0.0,0.0,0.0,0.0,0.0,0.0,0.0,0.0,0.0,0.0,0.0,0.0,0.0,0.0,0.0,0.0,0.0,0.0,0.0,0.0,0.0,0.0,0.0,0.0,0.0,0.0,0.0,0.0,0.0,0.0,0.0,0.0,0.0,0.0,0.0,0.0,0.0,0.0,0.0,0.0,0.0,0.0,0.0,0.0,0.0,0.0,0.0,0.0,0.0,0.0,0.0,0.0,0.0,0.0,0.0,0.0,0.0,0.0,0.0,0.0,0.0,0.0,0.0,0.0,0.0,0.0,0.0,0.0,0.0,-4.6225,-4.739,-5.1254,-5.3366,-5.355,-4.9064,-4.5645,0.0,0.0,0.0,0.0,0.0,0.0,0.0,0.0,0.0,0.0,0.0,0.0,0.0,0.0,0.0,0.0,0.0,0.0,0.0,0.0,0.0,0.0,0.0,0.0,0.0,0.0,0.0,0.0,0.0,0.0,0.0,0.0,0.0,0.0,0.0,0.0,0.0,0.0,0.0,0.0,0.0,0.0,0.0,0.0,0.0,0.0,0.0,0.0,0.0,0.0,0.0,0.0,0.0,0.0,0.0,0.0,0.0,0.0,0.0,0.0,0.0,0.0,0.0,0.0,0.0,0.0,0.0,0.0,0.0,0.0,0.0,0.0,0.0,0.0,0.0,0.0,0.0,0.0,0.0,0.0,0.0,0.0,0.0,0.0,0.0,0.0,0.0,0.0,0.0,0.0,0.0,0.0,0.0,0.0,0.0,0.0,0.0,0.0,0.0,0.0,0.0,0.0,0.0,0.0,0.0,0.0,0.0,0.0,-4.8776,-5.0407,-5.3975,-5.5778,-5.5634,-5.3617,-4.9048,0.0,0.0,0.0,0.0,0.0,0.0,0.0,0.0,0.0,0.0,0.0,0.0,0.0,0.0,0.0,0.0,0.0,0.0,0.0,0.0,0.0,0.0,0.0,0.0,0.0,0.0,0.0,0.0,0.0,0.0,0.0,0.0,0.0,0.0,0.0,0.0,0.0,0.0,0.0,0.0,0.0,0.0,0.0,0.0,0.0,0.0,0.0,0.0,0.0,0.0,0.0,0.0,0.0,0.0,0.0,0.0,0.0,0.0,0.0,0.0,0.0,0.0,0.0,0.0,0.0,0.0,0.0,0.0,0.0,0.0,0.0,0.0,0.0,0.0,0.0,0.0,0.0,0.0,0.0,0.0,0.0,0.0,0.0,0.0,0.0,0.0,0.0,0.0,0.0,0.0,0.0,0.0,0.0,0.0,0.0,0.0,0.0,0.0,0.0,0.0,0.0,0.0,0.0,0.0,0.0,0.0,0.0,0.0,-4.7622,-4.8709,-5.3936,-5.6393,-5.5692,-5.2737,-4.9393,0.0,0.0,0.0,0.0,0.0,0.0,0.0,0.0,0.0,0.0,0.0,0.0,0.0,0.0,0.0,0.0,0.0,0.0,0.0,0.0,0.0,0.0,0.0,0.0,0.0,0.0,0.0,0.0,0.0,0.0,0.0,0.0,0.0,0.0,0.0,0.0,0.0,0.0,0.0,0.0,0.0,0.0,0.0,0.0,0.0,0.0,0.0,0.0,-3.5199,0.0,0.0,0.0,0.0,0.0,0.0,0.0,0.0,0.0,0.0,0.0,0.0,0.0,0.0,0.0,0.0,0.0,0.0,0.0,0.0,0.0,0.0,0.0,0.0,0.0,0.0,0.0,0.0,0.0,0.0,0.0,0.0,0.0,0.0,0.0,0.0,0.0,0.0,0.0,0.0,0.0,0.0,0.0,0.0,0.0,0.0,0.0,0.0,0.0,0.0,0.0,0.0,0.0,0.0,0.0,0.0,0.0,0.0,0.0,-4.8162,-4.9717,-5.4454,-5.6607,-5.5665,-5.2817,-4.9816,0.0,0.0,0.0,0.0,0.0,0.0,0.0,0.0,0.0,0.0,0.0,0.0,0.0,0.0,0.0,0.0,0.0,0.0,0.0,0.0,0.0,0.0,0.0,0.0,0.0,0.0,0.0,0.0,0.0,0.0,0.0,0.0,0.0,0.0,0.0,0.0,0.0,0.0,0.0,0.0,0.0,0.0,0.0,0.0,0.0,0.0,0.0,0.0,0.0,0.0,0.0,0.0,0.0,0.0,0.0,0.0,0.0,0.0,0.0,0.0,0.0,0.0,0.0,0.0,0.0,0.0,0.0,0.0,0.0,0.0,0.0,0.0,0.0,0.0,0.0,0.0,0.0,0.0,0.0,0.0,0.0,0.0,0.0,0.0,0.0,0.0,0.0,0.0,0.0,0.0,0.0,0.0,0.0,0.0,0.0,0.0,0.0,0.0,0.0,0.0,0.0,0.0,0.0,0.0,0.0,0.0,0.0,-4.6071,-4.876,-5.1106,-5.4587,-5.6049,-5.5304,-5.2754,-4.9805,-4.6555,0.0,0.0,0.0,0.0,0.0,0.0,0.0,0.0,0.0,0.0,0.0,0.0,0.0,0.0,0.0,0.0,0.0,0.0,0.0,0.0,0.0,0.0,0.0,0.0,0.0,0.0,0.0,0.0,0.0,0.0,0.0,0.0,0.0,0.0,0.0,0.0,0.0,0.0,-3.1861,-3.2243,0.0,0.0,0.0,0.0,0.0,0.0,0.0,0.0,-3.3964,0.0,0.0,0.0,0.0,0.0,0.0,0.0,0.0,0.0,0.0,0.0,0.0,0.0,0.0,0.0,0.0,0.0,0.0,0.0,0.0,0.0,0.0,0.0,0.0,0.0,0.0,0.0,0.0,0.0,0.0,0.0,0.0,0.0,0.0,0.0,0.0,0.0,0.0,0.0,0.0,0.0,0.0,0.0,0.0,0.0,0.0,0.0,0.0,0.0,0.0,0.0,0.0,0.0,0.0,0.0,0.0,-4.5052,-4.5437,-4.6932,-4.9683,-5.2412,-5.3759,-5.3531,-5.0598,-4.8156,-4.6437,0.0,0.0,0.0,0.0,0.0,0.0,0.0,0.0,0.0,0.0,0.0,0.0,0.0,0.0,0.0,0.0,0.0,0.0,0.0,0.0,0.0,0.0,0.0,0.0,0.0,0.0,0.0,0.0,0.0,0.0,0.0,0.0,0.0,0.0,0.0,0.0,0.0,0.0,0.0,-3.4312,-3.4901,0.0,0.0,0.0,0.0,0.0,0.0,0.0,0.0,-3.2848,0.0,0.0,0.0,0.0,0.0,0.0,0.0,0.0,0.0,0.0,0.0,0.0,0.0,0.0,0.0,0.0,0.0,0.0,0.0,0.0,0.0,0.0,0.0,0.0,0.0,0.0,0.0,0.0,0.0,0.0,0.0,0.0,0.0,0.0,0.0,0.0,0.0,0.0,0.0,0.0,0.0,0.0,0.0,0.0,0.0,0.0,0.0,0.0,0.0,0.0,0.0,0.0,0.0,0.0,0.0,-4.3683,-4.508,-4.6863,-4.9108,-5.1811,-5.2778,-5.1876,-4.8699,-4.6431,0.0,0.0,0.0,0.0,0.0,0.0,0.0,0.0,0.0,0.0,0.0,0.0,0.0,0.0,0.0,0.0,0.0,0.0,0.0,0.0,0.0,0.0,0.0,0.0,0.0,0.0,0.0,0.0,0.0,0.0,0.0,0.0,0.0,0.0,0.0,0.0,0.0,0.0,0.0,0.0,-3.3885,-3.4133,-3.2676,0.0,0.0,0.0,0.0,0.0,0.0,-3.3761,-3.322,0.0,0.0,0.0,0.0,0.0,0.0,0.0,0.0,0.0,0.0,0.0,0.0,0.0,0.0,0.0,0.0,0.0,0.0,0.0,0.0,0.0,0.0,0.0,0.0,0.0,0.0,0.0,0.0,0.0,0.0,0.0,0.0,0.0,0.0,0.0,0.0,0.0,0.0,0.0,0.0,0.0,0.0,0.0,0.0,0.0,0.0,0.0,0.0,0.0,0.0,0.0,0.0,0.0,0.0,0.0,-4.2451,-4.4829,-4.6927,-4.8747,-5.1348,-5.1991,-5.0433,-4.7538,-4.5552,0.0,0.0,0.0,0.0,0.0,0.0,0.0,0.0,0.0,0.0,0.0,0.0,0.0,0.0,0.0,0.0,0.0,0.0,0.0,0.0,0.0,0.0,0.0,0.0,0.0,0.0,0.0,0.0,0.0,0.0,0.0,0.0,0.0,0.0,0.0,0.0,0.0,0.0,0.0,0.0,0.0,-3.3921,-3.337,-3.3624,0.0,0.0,0.0,0.0,-3.5216,-3.503,0.0,0.0,0.0,0.0,0.0,0.0,0.0,0.0,0.0,0.0,0.0,0.0,0.0,0.0,0.0,0.0,0.0,0.0,0.0,0.0,0.0,0.0,0.0,0.0,0.0,0.0,0.0,0.0,0.0,0.0,0.0,0.0,0.0,0.0,0.0,0.0,0.0,0.0,0.0,0.0,0.0,0.0,0.0,0.0,0.0,0.0,0.0,0.0,0.0,0.0,0.0,0.0,0.0,0.0,0.0,0.0,-4.3558,-4.4469,-4.5982,-4.8126,-5.001,-5.051,-4.9567,-4.8121,-4.6754,0.0,0.0,0.0,0.0,0.0,0.0,0.0,0.0,0.0,0.0,0.0,0.0,0.0,0.0,0.0,0.0,0.0,0.0,0.0,0.0,0.0,0.0,0.0,0.0,0.0,0.0,0.0,0.0,0.0,0.0,0.0,0.0,0.0,0.0,0.0,0.0,0.0,0.0,0.0,0.0,0.0,-3.7064,-3.4367,-3.478,-3.5571,0.0,0.0,-3.5334,-3.8041,-3.8954,0.0,0.0,0.0,0.0,0.0,0.0,0.0,0.0,0.0,0.0,0.0,0.0,0.0,0.0,0.0,0.0,0.0,0.0,0.0,0.0,0.0,0.0,0.0,0.0,0.0,0.0,0.0,0.0,0.0,0.0,0.0,0.0,0.0,0.0,0.0,0.0,0.0,0.0,0.0,0.0,0.0,0.0,0.0,0.0,0.0,0.0,0.0,0.0,0.0,0.0,0.0,0.0,0.0,0.0,0.0,-4.1316,-4.3436,-4.3984,-4.5295,-4.7356,-4.8606,-4.8856,-4.799,-4.5605,-4.447,0.0,0.0,0.0,0.0,0.0,0.0,0.0,0.0,0.0,0.0,0.0,0.0,0.0,0.0,0.0,0.0,0.0,0.0,0.0,0.0,0.0,0.0,0.0,0.0,0.0,0.0,0.0,0.0,0.0,0.0,0.0,0.0,0.0,0.0,0.0,0.0,0.0,0.0,0.0,0.0,0.0,0.0,-3.5138,-3.6078,0.0,0.0,0.0,-3.7652,-3.9377,0.0,0.0,0.0,0.0,0.0,0.0,0.0,0.0,0.0,0.0,0.0,0.0,0.0,0.0,0.0,0.0,0.0,0.0,0.0,0.0,0.0,0.0,0.0,0.0,0.0,0.0,0.0,0.0,0.0,0.0,0.0,0.0,0.0,0.0,0.0,0.0,0.0,0.0,0.0,0.0,0.0,0.0,0.0,0.0,0.0,0.0,0.0,0.0,0.0,0.0,0.0,0.0,0.0,0.0,0.0,0.0,0.0,-4.3388,-4.3735,-4.4958,-4.7125,-4.778,-4.7818,-4.7182,-4.4299,0.0,0.0,0.0,0.0,0.0,0.0,0.0,0.0,0.0,0.0,0.0,0.0,0.0,0.0,0.0,0.0,0.0,0.0,0.0,0.0,0.0,0.0,0.0,0.0,0.0,0.0,0.0,-3.0265,0.0,0.0,0.0,0.0,0.0,0.0,0.0,0.0,0.0,0.0,0.0,0.0,0.0,0.0,-3.6671,-3.6485,-3.7922,-3.914,0.0,0.0,-4.002,-4.0578,-4.0832,-4.0307,0.0,0.0,0.0,0.0,0.0,0.0,0.0,0.0,0.0,0.0,0.0,0.0,0.0,0.0,0.0,0.0,0.0,0.0,0.0,0.0,0.0,0.0,0.0,0.0,0.0,0.0,0.0,0.0,0.0,0.0,0.0,0.0,0.0,0.0,0.0,0.0,0.0,0.0,0.0,0.0,0.0,0.0,0.0,0.0,0.0,0.0,0.0,0.0,0.0,0.0,0.0,0.0,0.0,0.0,-4.1718,-4.37,-4.384,-4.5207,-4.7875,-4.8067,-4.8086,-4.8009,-4.6275,-4.4983,0.0,0.0,0.0,0.0,0.0,0.0,0.0,0.0,0.0,0.0,0.0,0.0,0.0,0.0,0.0,0.0,0.0,0.0,0.0,0.0,0.0,0.0,0.0,0.0,0.0,0.0,0.0,0.0,0.0,0.0,0.0,0.0,0.0,0.0,0.0,0.0,0.0,0.0,0.0,0.0,0.0,-3.9563,-3.887,-4.0612,-4.2489,0.0,-4.2963,-4.2083,-4.2151,-4.4451,-4.4587,-3.9715,0.0,0.0,0.0,0.0,0.0,0.0,0.0,0.0,0.0,0.0,0.0,0.0,0.0,0.0,0.0,0.0,0.0,0.0,0.0,0.0,0.0,0.0,0.0,0.0,0.0,0.0,0.0,0.0,0.0,0.0,0.0,0.0,0.0,0.0,0.0,0.0,0.0,0.0,0.0,0.0,0.0,0.0,0.0,0.0,0.0,0.0,0.0,0.0,0.0,0.0,0.0,0.0,0.0,-4.1953,-4.4524,-4.3809,-4.4438,-4.6451,-4.655,-4.655,-4.6567,-4.5393,-4.4412,0.0,0.0,0.0,0.0,0.0,0.0,0.0,0.0,0.0,0.0,0.0,0.0,0.0,0.0,0.0,0.0,0.0,0.0,0.0,0.0,0.0,0.0,0.0,0.0,0.0,0.0,0.0,0.0,-3.0118,-3.0076,-3.0947,0.0,0.0,0.0,0.0,0.0,0.0,0.0,0.0,0.0,0.0,-3.98,-4.0865,-4.2038,0.0,0.0,-4.3471,-4.286,-4.3301,-4.2872,-4.197,-4.0415,-3.9698,0.0,0.0,0.0,0.0,0.0,0.0,0.0,0.0,0.0,0.0,0.0,0.0,0.0,0.0,0.0,0.0,0.0,0.0,0.0,0.0,0.0,0.0,0.0,0.0,0.0,0.0,0.0,0.0,0.0,0.0,0.0,0.0,0.0,0.0,0.0,0.0,0.0,0.0,0.0,0.0,0.0,0.0,0.0,0.0,0.0,0.0,0.0,0.0,0.0,0.0,0.0,0.0,-4.2194,-4.4822,-4.3691,-4.4047,-4.5951,-4.5973,-4.6088,-4.6297,-4.526,-4.4299,0.0,0.0,0.0,0.0,0.0,0.0,0.0,0.0,0.0,0.0,0.0,0.0,0.0,0.0,0.0,0.0,0.0,0.0,0.0,0.0,0.0,0.0,0.0,0.0,0.0,0.0,0.0,0.0,-3.1054,-3.0885,-3.082,0.0,0.0,0.0,0.0,0.0,0.0,0.0,0.0,0.0,0.0,-4.0561,-4.203,-4.314,-4.3961,-4.4509,-4.3541,-4.2844,-4.3323,-4.1996,-4.0799,-4.0345,0.0,0.0,0.0,0.0,0.0,0.0,0.0,0.0,0.0,0.0,0.0,0.0,0.0,0.0,0.0,0.0,0.0,0.0,0.0,0.0,0.0,0.0,0.0,0.0,0.0,0.0,0.0,0.0,0.0,0.0,-4.5586,0.0,0.0,0.0,0.0,0.0,0.0,0.0,0.0,0.0,0.0,0.0,0.0,0.0,0.0,0.0,0.0,0.0,0.0,0.0,0.0,0.0,0.0,-4.2624,-4.428,-4.3566,-4.4355,-4.6778,-4.6854,-4.7218,-4.7932,-4.6451,-4.5182,-4.4316,0.0,0.0,0.0,0.0,0.0,0.0,0.0,0.0,0.0,0.0,0.0,0.0,0.0,0.0,0.0,0.0,0.0,0.0,0.0,0.0,0.0,0.0,0.0,0.0,0.0,0.0,-3.3733,-3.3018,-3.2072,0.0,0.0,0.0,0.0,0.0,0.0,0.0,0.0,0.0,0.0,-3.9935,-4.2202,-4.2204,-4.3998,-4.5211,-4.513,-4.3407,-4.2045,-4.2109,-4.2675,-4.231,0.0,0.0,0.0,0.0,0.0,0.0,0.0,0.0,0.0,0.0,0.0,0.0,0.0,0.0,0.0,0.0,0.0,0.0,0.0,0.0,0.0,0.0,0.0,0.0,0.0,0.0,0.0,-4.7259,-4.7259,0.0,0.0,0.0,0.0,0.0,0.0,0.0,0.0,0.0,0.0,0.0,-4.8596,-4.9101,0.0,0.0,0.0,0.0,0.0,0.0,0.0,0.0,0.0,0.0,0.0,0.0,-4.3778,-4.5855,-4.4624,-4.5124,-4.7605,-4.7162,-4.7295,-4.8067,-4.7549,-4.6876,-4.6028,0.0,0.0,0.0,0.0,0.0,0.0,0.0,0.0,0.0,0.0,0.0,0.0,0.0,0.0,0.0,0.0,0.0,0.0,0.0,0.0,0.0,0.0,0.0,0.0,0.0,-3.4706,0.0,0.0,0.0,0.0,0.0,0.0,0.0,0.0,0.0,0.0,0.0,-3.7191,-3.7436,-4.0217,-4.2071,-4.1476,-4.3252,-4.4591,0.0,0.0,0.0,0.0,0.0,0.0,0.0,0.0,0.0,0.0,0.0,0.0,0.0,0.0,-4.5889,-4.1914,-4.0798,-4.046,-4.046,0.0,0.0,0.0,0.0,0.0,0.0,0.0,0.0,0.0,0.0,0.0,0.0,0.0,0.0,-4.8643,0.0,-4.8509,0.0,0.0,0.0,0.0,0.0,0.0,0.0,0.0,-4.8677,-4.9931,-5.0834,-5.1712,-5.1759,0.0,-5.021,-4.8219,0.0,0.0,0.0,0.0,0.0,0.0,0.0,0.0,-4.4335,-4.5874,-4.5182,-4.5836,-4.7971,-4.7892,-4.8026,-4.8529,-4.7991,-4.7145,-4.6047,-4.3855,-4.2681,0.0,0.0,0.0,0.0,0.0,0.0,0.0,0.0,0.0,0.0,0.0,0.0,0.0,0.0,0.0,0.0,0.0,0.0,0.0,0.0,0.0,0.0,0.0,-3.4486,0.0,0.0,0.0,0.0,0.0,0.0,0.0,0.0,0.0,-3.5673,-3.7415,-3.8958,-3.9668,-4.1013,-4.1976,-4.2142,0.0,0.0,0.0,0.0,0.0,0.0,0.0,-4.1773,-4.2733,-4.3434,-4.4417,-4.6153,-4.8088,-4.8984,-4.775,0.0,0.0,-4.3132,-4.1982,-4.1696,-4.1627,-4.2219,-4.276,-4.3031,-4.347,-4.3826,0.0,0.0,0.0,0.0,0.0,0.0,0.0,0.0,-4.8182,-4.9951,0.0,-4.9527,0.0,0.0,0.0,0.0,0.0,-4.6812,0.0,0.0,-5.0623,-5.1913,-5.289,-5.3768,-5.319,-5.1578,-5.3683,-5.2067,-4.7163,-4.4564,0.0,0.0,0.0,0.0,0.0,0.0,-4.4355,-4.4528,-4.5297,-4.6509,-4.8163,-4.897,-4.9394,-4.9394,-4.7875,-4.624,-4.4566,-4.4451,-4.3643,-4.2066,-4.3489,0.0,0.0,0.0,0.0,0.0,0.0,0.0,0.0,0.0,0.0,0.0,0.0,0.0,0.0,0.0,0.0,0.0,0.0,0.0,0.0,-3.4871,0.0,0.0,0.0,0.0,0.0,0.0,0.0,0.0,0.0,0.0,-3.7821,-3.9259,-4.0967,-4.3078,0.0,0.0,0.0,0.0,-4.1648,-4.3866,-4.3579,-4.3355,-4.4145,-4.5555,-4.6116,-4.4714,0.0,0.0,-4.824,-4.9272,-4.9543,-4.7378,-4.7183,-4.6946,-4.6811,-4.5422,-4.4451,-4.4434,-4.3961,-4.3842,-4.4451,-4.4739,-4.479,-5.3775,0.0,0.0,0.0,0.0,-5.1298,-5.2645,-5.4126,-5.4454,-5.4359,-5.3897,-5.2517,0.0,0.0,0.0,0.0,0.0,0.0,-4.9796,-5.1349,-5.3068,-5.4632,-5.6082,-5.694,-5.706,-5.6489,-5.4703,-5.2723,-5.0567,-4.7932,-4.6067,-4.4893,0.0,0.0,0.0,0.0,-4.5817,-4.6951,-4.7278,-4.8221,-4.9933,-4.9586,-4.9682,-5.0317,-4.926,-4.8144,-4.7048,-4.6451,-4.5643,-4.4586,-4.497,0.0,0.0,0.0,0.0,0.0,0.0,0.0,0.0,0.0,0.0,0.0,0.0,0.0,0.0,0.0,0.0,0.0,0.0,0.0,-3.7239,-3.6707,-3.6303,0.0,0.0,0.0,0.0,0.0,0.0,0.0,0.0,0.0,-4.0104,-4.1068,-4.2126,0.0,0.0,-4.3581,-4.3538,-4.3473,-4.4042,-4.5652,-4.6222,0.0,-4.5306,-4.5596,-4.5785,-4.5309,-4.8245,-5.0862,-5.1758,-5.2249,-5.1961,-5.0219,-5.0393,-5.0221,-4.85,-4.6271,-4.4744,-4.4604,-4.5213,-4.5855,-4.6126,-4.6566,-4.6972,-5.9817,-5.7356,-5.431,-5.3452,-5.4263,-5.5261,-5.6569,-5.7992,-5.8072,-5.8159,-5.8065,-5.5821,-5.3819,-5.2029,-5.02,0.0,0.0,0.0,-5.2041,-5.3781,-5.5163,-5.675,-5.8435,-5.9326,-5.9517,-5.9036,-5.6966,-5.5089,-5.351,-5.1587,-4.976,-4.8086,0.0,0.0,-4.5624,-4.6259,-4.6932,-4.7625,-4.8298,-4.9298,-5.0644,-5.0183,-5.0163,-5.0644,-4.9837,-4.9144,-4.8625,-4.7817,-4.6836,-4.5663,-4.5932,-4.5566,0.0,0.0,0.0,0.0,0.0,0.0,0.0,0.0,0.0,0.0,0.0,-3.7918,-3.8414,0.0,0.0,0.0,-3.8597,-3.8157,-3.7991,-3.7386,0.0,0.0,0.0,0.0,0.0,0.0,0.0,-3.8006,-3.9105,-4.0434,-4.1899,-4.2997,-4.3912,-4.4632,-4.4666,-4.4537,-4.4528,0.0,-4.4638,-4.6319,-4.7248,-4.7613,-4.7053,-4.722,-4.7404,-4.7387,-4.9681,-5.1843,-5.2807,-5.3281,-5.3177,-5.2379,-5.22,-5.1841,-5.0477,-4.8531,-4.7064,-4.6805,-4.7202,-4.766,-4.7984,-4.8447,-4.8781,-6.5195,-6.541,-5.9657,-5.7482,-5.7934,-5.9396,-5.9973,-5.9935,-5.9992,-6.133,-6.315,-5.9127,-5.813,-5.9194,-5.5152,0.0,-5.3407,-5.3478,-5.4482,-5.6188,-5.6997,-5.8322,-6.0065,-6.0877,-6.0785,-5.9861,-5.9823,-5.8495,-5.6049,-5.5164,-5.3914,-5.2183,-4.9875,-4.7798,-4.6182,-4.749,-4.7875,-4.7259,-4.874,-4.9894,-5.0664,-5.0683,-5.0644,-5.0587,-4.9817,-4.9336,-4.9163,-4.849,-4.7336,-4.574,-4.6432,-4.6144,-4.4511,0.0,0.0,0.0,0.0,0.0,0.0,0.0,0.0,0.0,0.0,0.0,0.0,0.0,0.0,0.0,-3.8634,0.0,-3.8836,-3.7551,0.0,0.0,0.0,-3.8358,-3.9845,-3.9086,-3.9031,-4.053,0.0,0.0,-4.3149,-4.4739,-4.594,-4.6616,-4.5594,-4.5222,-4.6484,-4.4951,-4.4302,-4.6632,-4.7455,-4.8211,-4.8815,-4.9362,-4.9683,-4.9818,-5.1217,-5.2012,-5.2232,-5.2855,-5.3287,-5.308,-5.2761,-5.2271,-5.22,-5.1473,-5.1079,-5.0297,-4.9574,-4.9278,-4.9847,-5.0128,-5.0226,-6.8359,-6.8359,-6.6769,-6.4613,-6.2411,-6.3897,-6.4089,-6.3493,-6.4199,-6.3825,-6.251,-6.0808,-5.8803,-5.659,-5.4938,-5.453,-5.5148,-5.5781,-5.7021,-5.863,-5.8861,-5.955,-6.0608,-6.0819,-6.08,-6.0531,-5.9877,-5.9223,-5.8569,-5.778,-5.6511,-5.4838,-5.4184,-5.2414,-4.9586,-4.9221,-4.9317,-4.9779,-5.0183,-5.0471,-5.0683,-5.0683,-5.0375,-4.974,-4.9509,-4.8798,-4.7548,-4.7894,-4.7317,-4.572,-4.6432,-4.6413,-4.5355,-4.4897,0.0,0.0,0.0,0.0,0.0,0.0,0.0,0.0,0.0,-4.0836,-4.0836,0.0,-4.102,0.0,-4.0469,-4.0341,-4.0524,-4.0194,0.0,0.0,-4.0267,-4.0396,-4.0781,-4.0166,-4.0188,-4.1308,-4.1493,-4.1988,-4.3271,-4.4739,-4.5771,-4.5957,-4.665,-4.7423,-4.8236,-4.7508,-4.7345,-4.8744,-4.9228,-4.9607,-4.9615,-4.9492,-4.9424,-4.9999,-5.0388,-5.0811,-5.1386,-5.2067,-5.2408,-5.1904,-5.2445,-5.2687,-5.2238,-5.2415,-5.2644,-5.2399,-5.1459,-5.0647,-5.0805,-5.1349,-5.1616,-7.0234,-7.0566,-7.0469,-6.9034,-6.683,-6.7608,-6.7564,-6.6974,-6.7186,-6.6199,-6.4328,-6.2719,-6.0723,-5.8553,-5.7687,-5.7758,-5.8534,-5.8654,-5.958,-6.1146,-6.0819,-6.0916,-6.1377,-6.1377,-6.1166,-6.08,-6.03,-6.0069,-6.0031,-5.9242,-5.8165,-5.6876,-5.6472,-5.5145,-5.2953,-5.1722,-5.1337,-5.1798,-5.1068,-5.0683,-5.0664,-5.0317,-5.0067,-4.9952,-4.9221,-4.8375,-4.7471,-4.7875,-4.7336,-4.574,-4.6432,-4.649,-4.5643,-4.514,-4.4573,0.0,0.0,0.0,0.0,0.0,0.0,0.0,0.0,0.0,0.0,0.0,-4.2176,-4.2158,-4.1534,-4.1258,-4.1625,-4.1313,-4.1097,-4.1097,-4.1097,-4.1258,-4.1607,-4.1197,-4.135,-4.2555,-4.2684,-4.2961,-4.3847,-4.4959,-4.5703,-4.5703,-4.6413,-4.7072,-4.7357,-4.7389,-4.7578,-4.7931,-4.8332,-4.8612,-4.8612,-4.8291,-4.8257,-4.8984,-4.9647,-5.0334,-5.1104,-5.2052,-5.2621,-5.227,-5.2705,-5.2954,-5.2263,-5.2327,-5.2582,-5.2113,-5.1518,-5.1196,-5.1468,-5.1914,-5.2057,-7.1308,-7.1992,-7.1992,-7.1484,-7.0664,-7.0506,-7.0174,-6.9695,-6.9008,-6.8039,-6.6801,-6.4493,-6.307,-6.2386,-6.1516,-6.1531,-6.2175,-6.1488,-6.1916,-6.3243,-6.2608,-6.2281,-6.2262,-6.2127,-6.1704,-6.0973,-6.0858,-6.08,-6.0762,-6.0031,-5.9261,-5.845,-5.7588,-5.678,-5.5992,-5.4376,-5.3376,-5.3029,-5.1702,-5.0952,-5.0837,-5.0106,-4.9971,-5.0433,-4.8952,-4.799,-4.7798,-4.7778,-4.7105,-4.572,-4.6317,-4.6394,-4.5643,-4.5033,-4.4701,0.0,-4.3992,0.0,0.0,0.0,0.0,0.0,0.0,0.0,0.0,-4.3479,-4.3479,-4.3479,-4.2213,-4.1699,-4.2396,-4.1827,-4.1423,-4.1423,-4.1423,-4.1699,-4.2344,-4.207,-4.2395,-4.3917,-4.361,-4.3562,-4.4584,-4.5083,-4.5263,-4.528,-4.5196,-4.5151,-4.5108,-4.5848,-4.6211,-4.5371,-4.5972,-4.6633,-4.6735,-4.6818,-4.7097,-4.7869,-4.9103,-5.0233,-5.0875,-5.2157,-5.3104,-5.3005,-5.3069,-5.2935,-5.215,-5.2013,-5.1756,-5.1077,-5.089,-5.1012,-5.1519,-5.1822,-5.1776,-7.1855,-7.1992,-7.1992,-7.1875,-7.1719,-7.1682,-7.0619,-6.8917,-6.8748,-6.7731,-6.607,-6.4878,-6.4282,-6.4056,-6.3214,-6.2921,-6.3065,-6.3078,-6.3161,-6.3301,-6.3339,-6.3243,-6.3031,-6.2397,-6.2012,-6.18,-6.1127,-6.08,-6.0781,-6.0646,-6.0146,-5.9258,-5.8431,-5.7973,-5.7723,0.0,0.0,0.0,-5.2549,-5.2396,-5.1722,-5.151,-5.0856,-4.9679,-4.8642,0.0,-4.6163,-4.6067,-4.5932,-4.5624,-4.5759,0.0,0.0,0.0,0.0,0.0,0.0,0.0,0.0,0.0,0.0,0.0,-4.3259,-4.3332,-4.3479,-4.3479,-4.3479,-4.3479,-4.3222,-4.3112,-4.324,-4.313,-4.3039,-4.3039,-4.3039,-4.3112,-4.3259,-4.2811,-4.3113,-4.4581,-4.3377,-4.3147,-4.4837,-4.3985,-4.3217,-4.3775,-4.3318,-4.2942,-4.293,-4.4136,-4.4902,-4.4788,-4.4919,-4.5229,-4.5821,-4.6264,-4.6714,-4.772,-4.8939,-4.9925,-5.0277,-5.1444,-5.2305,-5.2347,-5.2772,-5.2926,-5.2142,-5.1995,-5.1646,-5.093,-5.0784,-5.0694,-5.0361,-5.0767,-5.0843,-7.1758,0.0,-7.1816,-7.1738,0.0,-7.1358,-7.0873,-7.0005,-6.9166,-6.7731,-6.584,-6.4974,-6.4609,-6.457,-6.369,-6.3556,-6.393,-6.3617,-6.3866,-6.457,-6.4262,-6.4051,-6.3916,-6.3089,-6.2493,-6.207,-6.1204,-6.08,-6.08,-6.08,-6.0354,-5.9508,-5.9085,-5.8704,-5.8261,-5.6992,-5.5299,-5.3203,-5.2779,-5.2356,-5.1895,-5.1087,-5.026,-4.943,-4.8162,0.0,0.0,0.0,0.0,0.0,0.0,0.0,0.0,-4.5438,0.0,-4.4853,-4.4527,-4.4223,-4.4035,-4.3712,-4.3563,-4.3726,-4.3597,-4.3479,-4.3479,-4.3479,-4.3479,-4.3479,-4.3479,-4.3479,-4.3479,-4.3479,-4.3479,-4.3479,-4.3479,-4.3479,-4.3481,-4.3359,-4.3538,-4.4142,-4.3589,-4.3411,-4.4229,-4.3494,-4.2791,-4.2797,-4.2219,-4.1745,-4.1847,-4.2709,-4.3436,-4.3508,-4.3744,-4.4006,-4.4401,-4.4974,-4.5743,-4.6893,-4.8289,-4.946,-5.0276,-5.1654,-5.2662,-5.2626,-5.2688,-5.2344,-5.1573,-5.1096,-5.0563,-4.9793,-4.9572,-4.9376,-4.884,-4.9559,-4.9984,-7.1269,-7.0547,-7.1213,-7.1093,-7.0477,-7.0406,-7.0537,-7.0685,0.0,0.0,0.0,-6.5147,-6.4839,-6.4795,-6.4089,-6.4141,-6.4776,-6.4116,-6.4564,-6.582,-6.5013,-6.4628,-6.4551,-6.357,-6.2743,-6.207,-6.1223,-6.08,-6.08,-6.08,-6.0454,-5.9777,-5.9588,-5.9031,-5.8088,-5.7338,-5.6222,-5.4722,-5.3164,-5.2278,-5.2086,-5.0644,-4.9779,-4.9624,-4.7971,-4.6701,-4.5874,-4.5663,-4.5259,-4.4586,-4.5201,-4.5586,-4.5586,-4.5342,-4.5216,-4.5265,-4.461,-4.4374,-4.4742,-4.4109,-4.3772,-4.3967,-4.3712,-4.3479,-4.3479,-4.3479,-4.3479,-4.3479,-4.3479,-4.3479,-4.3479,-4.3479,-4.3479,-4.3479,-4.3479,-4.3479,-4.3516,-4.3633,-4.3767,-4.3906,-4.3817,-4.3756,-4.364,-4.3062,-4.2716,-4.2261,-4.1631,-4.1223,-4.1341,-4.1699,-4.195,-4.2142,-4.2447,-4.2829,-4.321,-4.3704,-4.4582,-4.617,-4.7608,-4.9014,-5.0424,-5.1821,-5.2687,-5.2595,-5.2197,-5.1518,-5.0729,-5.0123,-4.9297,-4.8471,-4.8324,-4.8075,-4.7536,-4.8333,-4.8862,-7.0371,-6.9568,-6.9593,-6.9591,-6.9565,-6.9266,-6.8732,-6.8015,-6.8315,-6.7494,-6.5897,-6.5763,-6.5705,-6.5724,-6.559,-6.559,-6.5724,-6.5705,-6.5782,-6.5859,-6.5109,-6.4705,-6.4532,-6.2993,-6.2204,-6.2012,-6.1204,-6.08,-6.08,-6.08,-6.0742,-6.0531,-5.9877,-5.8742,-5.728,-5.7049,-5.6511,-5.553,-5.4607,-5.3762,-5.3013,-5.2068,-5.1221,-5.0491,-4.8856,-4.7548,-4.674,-4.6009,-4.5528,-4.5413,-4.5528,-4.5586,-4.5586,-4.555,-4.5707,-4.6075,-4.5388,-4.5133,-4.5549,-4.4896,-4.4308,-4.3998,-4.3693,-4.3479,-4.3479,-4.3479,-4.3479,-4.3479,-4.3479,-4.3479,-4.3479,-4.3479,-4.3479,-4.3479,-4.3479,-4.3479,-4.3479,-4.352,-4.3797,-4.4346,-4.3536,-4.3436,-4.4163,-4.274,-4.1678,-4.1868,-4.154,-4.1175,-4.1457,-4.093,-4.0692,-4.0982,-4.1138,-4.1679,-4.2722,-4.3483,-4.4515,-4.5996,-4.7352,-4.8587,-4.9647,-5.0666,-5.1316,-5.1206,-5.1096,-5.0674,-4.9958,-4.9701,-4.9148,-4.8394,-4.821,-4.782,-4.6847,-4.7241,-4.7303,-7.0133,-6.9323,-6.9215,-6.8953,-6.8588,-6.882,-6.7787,-6.6121,-6.6744,-6.6628,-6.5936,-6.5878,-6.5878,-6.5878,-6.5878,-6.5878,-6.5897,-6.5955,-6.5686,-6.5186,-6.4839,-6.4397,-6.382,-6.2666,-6.2089,-6.2031,-6.1204,-6.08,-6.08,-6.08,-6.08,-6.0762,-6.0396,-5.9588,-5.8415,-5.7915,-5.728,-5.6415,-5.5145,-5.43,-5.3898,-5.305,-5.1991,-5.0741,-4.9875,-4.8894,-4.7605,-4.7163,-4.6951,-4.6951,-4.6528,-4.6317,-4.6297,-4.5874,-4.5704,-4.5879,-4.5411,-4.5271,-4.5674,-4.5014,-4.4419,-4.4028,-4.3693,-4.3582,-4.3758,-4.3579,-4.3479,-4.3479,-4.3479,-4.3479,-4.3479,-4.3479,-4.3479,-4.3479,-4.3479,-4.3479,-4.3479,-4.3479,-4.3644,-4.3956,-4.3523,-4.3304,-4.3707,-4.265,-4.1831,-4.192,-4.1595,-4.1534,-4.1793,-4.142,-4.1122,-4.1358,-4.1664,-4.2079,-4.2726,-4.3294,-4.4307,-4.5802,-4.6943,-4.8122,-4.926,-5.0215,-5.0692,-5.0765,-5.0453,-5.0031,-4.9572,-4.8894,-4.8334,-4.7997,-4.747,-4.6981,-4.6536,-4.613,-4.5703,-6.9733,-6.8693,-6.8591,-6.8032,-6.7218,-6.7744,-6.6621,-6.4614,-6.507,-6.5301,-6.5301,-6.5301,-6.5416,-6.559,-6.5609,-6.5609,-6.5609,-6.5609,-6.5128,-6.4359,-6.4109,-6.3685,-6.2993,-6.2204,-6.18,-6.1723,-6.1108,-6.08,-6.08,-6.08,-6.08,-6.08,-6.08,-6.0358,-5.9492,-5.8704,-5.7877,-5.6953,-5.553,-5.4664,-5.4474,-5.3645,-5.2568,-5.1375,-5.1068,-5.0337,-4.9048,-4.8606,-4.8375,-4.8355,-4.7625,-4.7105,-4.6874,-4.6278,-4.597,-4.6087,-4.5553,-4.5322,-4.5531,-4.5033,-4.4561,-4.429,-4.3849,-4.3758,-4.4046,-4.3804,-4.3646,-4.3744,-4.3679,-4.3612,-4.3631,-4.3548,-4.3479,-4.3479,-4.3479,-4.3479,-4.3479,-4.3479,-4.3479,-4.3479,-4.3479,-4.3339,-4.2976,-4.2788,-4.2516,-4.2139,-4.1997,-4.1985,-4.1948,-4.2024,-4.2149,-4.2047,-4.2393,-4.2711,-4.2864,-4.3196,-4.4086,-4.5443,-4.6305,-4.7241,-4.8398,-4.9352,-4.9884,-4.9738,-4.9389,-4.9017,-4.8974,-4.8265,-4.7518,-4.7237,-4.6847,-4.646,-4.6395,-4.5579,-4.4714,-6.8603,-6.7157,-6.6833,-6.598,-6.5013,-6.5153,-6.4556,-6.3551,-6.3531,-6.3551,-6.3551,-6.3531,-6.3993,-6.4666,-6.4718,-6.4718,-6.4724,-6.471,-6.4268,-6.3397,-6.2666,-6.2281,-6.2147,-6.1339,-6.0916,-6.0935,-6.0839,-6.08,-6.08,-6.08,-6.08,-6.08,-6.08,-6.0396,-5.9531,-5.8723,-5.7877,-5.7011,-5.6049,-5.5241,-5.4489,-5.3643,-5.3124,-5.2986,-5.2221,-5.1741,-5.1433,-5.0087,-4.9298,-4.9221,-4.849,-4.7682,-4.7048,-4.6836,-4.7105,-4.7721,-4.6414,-4.5568,-4.5568,-4.5263,-4.5011,-4.4947,-4.4346,-4.4136,-4.4474,-4.4194,-4.4136,-4.4337,-4.4165,-4.3924,-4.3924,-4.3679,-4.3479,-4.3479,-4.3479,-4.3479,-4.3479,-4.3479,-4.3479,-4.3479,-4.3479,-4.3463,-4.3321,-4.3014,-4.2732,-4.2637,-4.2598,-4.2533,-4.2432,-4.2795,-4.2941,-4.2503,-4.2541,-4.2885,-4.325,-4.3444,-4.392,-4.4745,-4.548,-4.6159,-4.6709,-4.7168,-4.7517,-4.7921,-4.7514,-4.7472,-4.7534,-4.7385,-4.706,-4.6315,-4.6136,-4.6283,-4.6318,-4.5621,-4.482,-6.8229,-6.7379,-6.6161,-6.4947,-6.3941,-6.4018,-6.3517,-6.2608,-6.2608,-6.23,-6.1858,-6.182,-6.2551,-6.382,-6.3828,-6.3828,-6.3839,-6.3849,-6.3363,-6.2608,-6.2224,-6.1839,-6.132,-6.0973,-6.08,-6.08,-6.08,-6.08,-6.08,-6.08,-6.08,-6.08,-6.08,-6.0608,-6.0223,-5.9435,-5.8607,-5.778,-5.6896,-5.6069,-5.5299,-5.4857,-5.4453,-5.399,-5.3626,-5.3183,-5.2702,-5.1991,-5.1414,-5.0894,-5.0106,-4.924,-4.8432,-4.7894,-4.7759,-4.799,-4.7009,-4.6124,-4.5624,-4.5302,-4.5115,-4.5115,-4.4638,-4.4527,-4.483,-4.458,-4.4527,-4.4757,-4.4373,-4.3943,-4.374,-4.3597,-4.3479,-4.3479,-4.3479,-4.3479,-4.3479,-4.3479,-4.3479,-4.3479,-4.3479,-4.3479,-4.3479,-4.3339,-4.3178,-4.316,-4.316,-4.3067,-4.3004,-4.3296,-4.3314,-4.313,-4.3121,-4.3249,-4.3444,-4.3479,-4.3864,-4.4507,-4.4966,-4.5259,-4.5792,-4.6085,-4.6416,-4.6397,-4.6174,-4.6036,-4.6011,-4.5339,-4.4853,-4.469,-4.4645,-4.4613,-4.463,-4.4078,-4.3475,-6.7976,-6.7389,-6.5775,-6.4269,-6.2993,-6.3132,-6.2632,-6.1781,-6.1743,-6.1377,-6.0819,-6.08,-6.1454,-6.2551,-6.2853,-6.2988,-6.2974,-6.2964,-6.2521,-6.18,-6.1723,-6.1396,-6.0839,-6.08,-6.08,-6.08,-6.08,-6.08,-6.08,-6.08,-6.08,-6.08,-6.08,-6.08,-6.0704,-5.9935,-5.9223,-5.8607,-5.7588,-5.6684,-5.6107,-5.5818,-5.5415,-5.4897,-5.4818,-5.453,-5.3933,-5.3664,-5.328,-5.2626,-5.1606,-5.0644,-4.9798,-4.8933,-4.8355,-4.8086,-4.7567,-4.6855,-4.6009,-4.5515,-4.5243,-4.5222,-4.4919,-4.4872,-4.5096,-4.4849,-4.4707,-4.483,-4.4373,-4.3881,-4.3712,-4.3548,-4.3479,-4.3479,-4.3479,-4.3479,-4.3479,-4.3479,-4.3479,-4.3479,-4.3479,-4.3479,-4.3479,-4.3479,-4.3444,-4.3444,-4.3479,-4.3351,-4.3259,-4.3277,-4.3424,-4.3222,-4.3314,-4.3479,-4.3479,-4.3479,-4.3828,-4.4158,-4.4507,-4.4874,-4.5278,-4.5333,-4.5571,-4.5535,-4.5182,-4.5012,-4.5066,-4.4198,-4.3605,-4.3554,-4.3575,-4.3614,-4.3905,-4.3168,-4.2893,-6.7722,-6.6789,-6.5606,-6.392,-6.2147,-6.2147,-6.1685,-6.0954,-6.0896,-6.0839,-6.08,-6.08,-6.0839,-6.105,-6.1824,-6.2151,-6.2151,-6.2132,-6.1728,-6.0973,-6.0916,-6.0858,-6.08,-6.08,-6.08,-6.08,-6.08,-6.08,-6.08,-6.08,-6.08,-6.08,-6.08,-6.08,-6.0685,-5.9992,-5.9492,-5.9223,-5.7934,-5.7011,-5.6857,-5.6165,-5.5799,-5.5742,-5.5645,-5.5588,-5.5434,-5.4838,-5.4414,-5.4376,-5.2799,-5.1529,-5.0702,-4.9837,-4.9048,-4.8259,-4.8086,-4.7682,-4.6855,-4.6068,-4.5569,-4.5513,-4.5263,-4.5222,-4.5438,-4.4966,-4.4631,-4.4631,-4.4233,-4.3924,-4.3881,-4.3646,-4.3479,-4.3479,-4.3479,-4.3479,-4.3479,-4.3479,-4.3479,-4.3479,-4.3479,-4.3479,-4.3479,-4.3479,-4.3479,-4.3479,-4.3479,-4.3296,-4.2837,-4.3094,-4.3149,-4.2873,-4.3039,-4.3479,-4.3479,-4.3479,-4.3516,-4.3754,-4.4158,-4.4452,-4.4213,-4.414,-4.4507,-4.471,-4.4547,-4.4388,-4.43,-4.4218,-4.4058,-4.3899,-4.3708,-4.3687,-4.3533,-4.3845,-4.3518,-6.639,-6.4889,-6.4463,-6.3122,-6.132,-6.1262,-6.1069,-6.08,-6.08,-6.08,-6.08,-6.08,-6.08,-6.0819,-6.1108,-6.1266,-6.1262,-6.1266,-6.1069,-6.08,-6.08,-6.08,-6.08,-6.08,-6.08,-6.08,-6.08,-6.08,-6.08,-6.08,-6.08,-6.08,-6.08,-6.08,-6.0742,-6.0492,-6.0089,-5.9492,-5.8838,-5.8357,-5.7857,-5.7533,-5.7379,-5.7338,-5.6819,-5.6261,-5.5703,-5.5934,-5.5607,-5.4549,-5.3895,-5.3183,-5.2337,-5.1491,-5.0375,-4.9125,-4.8933,-4.8336,-4.7105,-4.6624,-4.6163,-4.5663,-4.5495,-4.5496,-4.5476,-4.5011,-4.458,-4.4501,-4.4035,-4.3693,-4.3679,-4.3582,-4.3479,-4.3479,-4.3479,-4.3479,-4.3479,-4.3479,-4.3479,-4.3479,-4.3479,-4.3479,-4.3479,-4.3479,-4.3479,-4.3479,-4.3479,-4.3332,-4.3204,-4.3351,-4.3387,-4.3185,-4.3296,-4.3479,-4.3479,-4.3479,-4.3497,-4.3552,-4.3736,-4.3828,-4.3699,-4.3718,-4.4011,-4.4068,-4.3906,-4.3724,-4.3571,-4.3244,-4.3328,-4.3208,-4.3083,-4.3507,-4.3279,-4.3543,-4.3288,-6.5473,-6.3964,-6.3516,-6.2406,-6.0935,-6.0819,-6.08,-6.08,-6.08,-6.08,-6.08,-6.08,-6.08,-6.08,-6.08,-6.08,-6.08,-6.08,-6.08,-6.08,-6.08,-6.08,-6.08,-6.08,-6.08,-6.08,-6.08,-6.08,-6.08,-6.08,-6.08,-6.08,-6.08,-6.08,-6.08,-6.08,-6.0473,-5.9954,-5.9646,-5.9184,-5.8723,-5.8415,-5.8303,-5.8261,-5.797,-5.7393,-5.6588,-5.7107,-5.6799,-5.5511,-5.5049,-5.426,-5.2895,-5.2222,-5.1279,-5.001,-4.9529,-4.8933,-4.7875,-4.7451,-4.7028,-4.649,-4.6413,-4.6413,-4.6356,-4.5649,-4.5174,-4.4858,-4.4158,-4.3646,-4.3513,-4.3479,-4.3479,-4.3479,-4.3479,-4.3479,-4.3479,-4.3479,-4.3479,-4.3479,-4.3479,-4.3479,-4.3479,-4.3479,-4.3479,-4.3479,-4.3479,-4.3479,-4.3497,-4.3754,-4.3718,-4.3571,-4.3754,-4.3736,-4.3608,-4.3497,-4.3497,-4.3534,-4.3534,-4.3497,-4.3479,-4.3479,-4.3479,-4.341,-4.3286,-4.305,-4.2752,-4.2404,-4.2302,-4.2302,-4.2807,-4.3415,-4.3256,-4.3158,-4.3,-6.5019,-6.4004,-6.2962,-6.2012,-6.1054,-6.0858,-6.08,-6.08,-6.08,-6.08,-6.08,-6.08,-6.08,-6.08,-6.08,-6.08,-6.08,-6.0819,-6.08,-6.08,-6.08,-6.08,-6.08,-6.08,-6.08,-6.08,-6.08,-6.08,-6.08,-6.08,-6.08,-6.08,-6.08,-6.08,-6.08,-6.08,-6.08,-6.0569,-6.0012,-5.9588,-5.9435,-5.8896,-5.8607,-5.8607,-5.9123,-5.9104,-5.8377,-5.8319,-5.7819,-5.6896,-5.6126,-5.453,-5.2529,-5.1972,-5.1529,-5.0644,-4.9894,-4.9471,-4.9221,-4.8548,-4.8086,-4.7817,-4.7971,-4.7836,-4.7626,-4.687,-4.614,-4.5719,-4.4766,-4.3942,-4.3674,-4.3534,-4.3479,-4.3479,-4.3479,-4.3479,-4.3479,-4.3479,-4.3479,-4.3479,-4.3479,-4.3479,-4.3479,-4.3479,-4.3479,-4.3479,-4.3479,-4.3479,-4.3516,-4.3956,-4.414,-4.392,-4.403,-4.4213,-4.3846,-4.3516,-4.3516,-4.3516,-4.3497,-4.3479,-4.3479,-4.3479,-4.3479,-4.3444,-4.3444,-4.325,-4.3196,-4.2903,-4.2921,-4.2995,-4.3342,-4.3378,-4.336,-4.3267,-4.3063,-6.5,-6.4023,-6.3101,-6.2127,-6.1216,-6.0993,-6.0935,-6.0935,-6.0839,-6.08,-6.08,-6.08,-6.08,-6.0819,-6.0877,-6.0896,-6.08,-6.0896,-6.0896,-6.0858,-6.0819,-6.08,-6.08,-6.08,-6.08,-6.08,-6.08,-6.08,-6.0819,-6.08,-6.08,-6.08,-6.08,-6.08,-6.08,-6.0896,-6.0896,-6.0781,-6.0762,-6.0666,-6.055,-6.0419,-6.0339,-6.0377,-6.0608,-6.0589,-6.0339,-5.9569,-5.8454,-5.7107,-5.6722,-5.5434,-5.326,-5.2241,-5.1529,-5.0779,-5.0452,-4.9971,-4.9452,-4.9183,-4.874,-4.8279,-4.8125,-4.8105,-4.8087,-4.7601,-4.7044,-4.6615,-4.5592,-4.4735,-4.437,-4.3809,-4.3552,-4.3479,-4.3479,-4.3479,-4.3479,-4.3479,-4.3479,-4.3479,-4.3479,-4.3479,-4.3479,-4.3479,-4.3479,-4.3479,-4.3479,-4.3479,-4.3552,-4.3791,-4.414,-4.4268,-4.4544,-4.4599,-4.4121,-4.3864,-4.3883,-4.3644,-4.3497,-4.3479,-4.3479,-4.3479,-4.3479,-4.3479,-4.3479,-4.3479,-4.3444,-4.3391,-4.3375,-4.3375,-4.3429,-4.3446,-4.3497,-4.3375,-4.3214,-6.5234,-6.457,-6.3652,-6.2707,-6.1814,-6.1562,-6.1265,-6.0958,-6.0819,-6.08,-6.08,-6.0839,-6.0858,-6.0973,-6.1362,-6.1535,-6.1516,-6.1824,-6.2001,-6.1747,-6.0993,-6.08,-6.08,-6.08,-6.1012,-6.1166,-6.0954,-6.0973,-6.1262,-6.0954,-6.08,-6.08,-6.0858,-6.0877,-6.0935,-6.1324,-6.1431,-6.1137,-6.1475,-6.1571,-6.1233,-6.1244,-6.1299,-6.1292,-6.1302,-6.1302,-6.1234,-6.0461,-5.9279,-5.7767,-5.6953,-5.5453,-5.3414,-5.2645,-5.1895,-5.0933,-5.0664,-5.0433,-4.9952,-4.9894,-4.9683,-4.9163,-4.9067,-4.9086,-4.899,-4.864,-4.8056,-4.7454,-4.6562,-4.5743,-4.5144,-4.4433,-4.3993,-4.3938,-4.3663,-4.3516,-4.3479,-4.3479,-4.3479,-4.3479,-4.3479,-4.3479,-4.3479,-4.3479,-4.3479,-4.3479,-4.3479,-4.3479,-4.3552,-4.3773,-4.414,-4.4525,-4.4874,-4.4709,-4.4305,-4.4213,-4.425,-4.3883,-4.3479,-4.3479,-4.3479,-4.3479,-4.3479,-4.3479,-4.3479,-4.3479,-4.3479,-4.3479,-4.3444,-4.3479,-4.3479,-4.3479,-4.3479,-4.3479,-4.3375,-6.5605,-6.5469,-6.4453,-6.3466,-6.2713,-6.2405,-6.1892,-6.1174,-6.1089,-6.1189,-6.117,-6.1362,-6.1331,-6.1447,-6.2278,-6.2637,-6.2795,-6.3276,-6.3507,-6.3068,-6.207,-6.126,-6.1304,-6.13,-6.1627,-6.2016,-6.1454,-6.1493,-6.2089,-6.1574,-6.0954,-6.1185,-6.1381,-6.1235,-6.1549,-6.2221,-6.2317,-6.1837,-6.2257,-6.2175,-6.1492,-6.1344,-6.1366,-6.1355,-6.135,-6.1348,-6.1294,-6.0874,-6.0016,-5.8479,-5.6742,-5.5088,-5.3645,-5.3241,-5.2414,-5.1125,-5.0837,-5.0818,-5.076,-5.0587,-5.0548,-5.0433,-5.0414,-5.0683,-5.0356,-4.97,-4.9045,-4.8388,-4.7495,-4.6681,-4.6006,-4.5241,-4.48,-4.4599,-4.3938,-4.3534,-4.3479,-4.3479,-4.3479,-4.3479,-4.3479,-4.3479,-4.3479,-4.3479,-4.3479,-4.3513,-4.3548,-4.3597,-4.3689,-4.3925,-4.4136,-4.4577,-4.5109,-4.5131,-4.4837,-4.4874,-4.4837,-4.4195,-4.3718,-4.3479,-4.3479,-4.3479,-4.3479,-4.3479,-4.3479,-4.3479,-4.3479,-4.3479,-4.3479,-4.3479,-4.3479,-4.3479,-4.3479,-4.3497,-4.3534,-6.5605,-6.5449,-6.3926,-6.3513,-6.3711,-6.303,-6.2907,-6.3161,-6.3026,-6.2856,-6.2968,-6.3064,-6.2953,-6.3107,-6.3473,-6.3646,-6.3714,-6.3962,-6.3935,-6.3753,-6.3372,-6.3013,-6.2998,-6.2887,-6.2921,-6.3113,-6.2767,-6.2781,-6.2954,-6.2805,-6.2752,-6.2863,-6.2852,-6.2992,-6.3172,-6.3456,-6.3497,-6.3138,-6.2921,-6.278,-6.2368,-6.1879,-6.1593,-6.1598,-6.1604,-6.1552,-6.1368,-6.0574,-5.9605,-5.838,-5.6665,-5.5261,-5.4203,-5.3568,-5.301,-5.2491,-5.1895,-5.1568,-5.1452,-5.1087,-5.076,-5.0683,-5.0837,-5.0683,-5.0702,-5.0229,-4.97,-4.9108,-4.8213,-4.7336,-4.6782,-4.603,-4.5388,-4.4709,-4.4081,-4.3584,-4.3513,-4.3479,-4.3479,-4.3479,-4.3513,-4.3513,-4.3563,-4.3563,-4.3563,-4.3597,-4.3726,-4.3899,-4.3992,-4.4048,-4.4239,-4.4887,-4.5389,-4.5495,-4.5535,-4.5571,-4.5296,-4.4599,-4.4011,-4.3479,-4.3479,-4.3479,-4.3479,-4.3479,-4.3479,-4.3479,-4.3479,-4.3479,-4.3479,-4.3479,-4.3608,-4.3663,-4.3552,-4.3516,-4.3589,-6.6133,-6.6074,-6.5058,-6.4668,-6.4687,-6.414,-6.3953,-6.3939,-6.3844,-6.3806,-6.3826,-6.3891,-6.3919,-6.399,-6.4484,-6.4876,-6.5128,-6.5609,-6.5984,-6.6163,-6.5867,-6.4989,-6.4093,-6.369,-6.3882,-6.4157,-6.3753,-6.3748,-6.3935,-6.3844,-6.3676,-6.3651,-6.3852,-6.39,-6.3878,-6.4481,-6.4473,-6.4106,-6.3957,-6.3765,-6.2916,-6.2858,-6.2277,-6.1974,-6.1892,-6.1982,-6.1304,-6.065,-5.9727,-5.8377,-5.6992,-5.5722,-5.4607,-5.4049,-5.3587,-5.326,-5.2702,-5.2318,-5.1972,-5.1741,-5.1587,-5.1395,-5.1471,-5.151,-5.1258,-5.0814,-5.033,-4.9013,-4.8465,-4.7909,-4.715,-4.6488,-4.5764,-4.5057,-4.4665,-4.4271,-4.3814,-4.3707,-4.3804,-4.3868,-4.3836,-4.3791,-4.3931,-4.398,-4.398,-4.4004,-4.4136,-4.4223,-4.4252,-4.427,-4.4445,-4.5115,-4.556,-4.5709,-4.5626,-4.5626,-4.5057,-4.4415,-4.4195,-4.3663,-4.3589,-4.3571,-4.3479,-4.3479,-4.3479,-4.3479,-4.3479,-4.3479,-4.3479,-4.3552,-4.3736,-4.3828,-4.3736,-4.3975,-4.3993,-6.6894,-6.6894,-6.6797,-6.6289,-6.5625,-6.5547,-6.5155,-6.4471,-6.4704,-6.4743,-6.4777,-6.4692,-6.5139,-6.4715,-6.6015,-6.6484,-6.7168,-6.7715,-6.8454,-6.8572,-6.8203,-6.6965,-6.5182,-6.4587,-6.4745,-6.5083,-6.4415,-6.4613,-6.4936,-6.4511,-6.4213,-6.4394,-6.4484,-6.4464,-6.4804,-6.5351,-6.5254,-6.4941,-6.5117,-6.4707,-6.3789,-6.3754,-6.3206,-6.2102,-6.202,-6.1863,-6.1266,-6.0819,-6.0165,-5.8492,-5.7665,-5.6626,-5.5261,-5.4934,-5.4511,-5.3876,-5.3587,-5.3029,-5.2472,-5.2818,-5.2702,-5.2106,-5.2491,-5.2623,-5.1636,-5.099,-5.0149,-4.87,-4.8683,-4.8248,-4.7627,-4.6879,-4.6392,-4.5935,-4.5923,-4.5406,-4.4701,-4.4349,-4.4448,-4.4772,-4.4561,-4.4571,-4.4718,-4.4794,-4.4723,-4.4731,-4.4745,-4.4587,-4.458,-4.4519,-4.4777,-4.5298,-4.5648,-4.5904,-4.5768,-4.5608,-4.48,-4.4085,-4.4121,-4.3883,-4.3828,-4.3754,-4.3571,-4.3479,-4.3479,-4.3479,-4.3479,-4.3479,-4.3552,-4.3828,-4.4158,-4.414,-4.4103,-4.4617,-4.4837,-6.6894,-6.6855,-6.6152,-6.6152,-6.6543,-6.6582,-6.6836,-6.7246,-6.791,-6.7949,-6.8183,-6.8183,-6.8105,-6.8144,-6.8281,-6.8769,-6.8789,-6.9082,-6.9258,-6.931,-6.9267,-6.8945,-6.7832,-6.6719,-6.6113,-6.6191,-6.6013,-6.5951,-6.5995,-6.592,-6.5976,-6.5935,-6.5922,-6.6269,-6.625,-6.6289,-6.6562,-6.6289,-6.5918,-6.5469,-6.4941,-6.4415,-6.3738,-6.256,-6.1882,-6.1343,-6.1089,-6.0896,-6.0319,-5.9492,-5.8992,-5.8319,-5.7261,-5.6665,-5.6203,-5.5684,-5.4799,-5.4145,-5.3914,-5.3453,-5.2856,-5.2183,-5.2219,-5.1677,-5.0588,-5.0214,-4.9625,-4.8832,-4.8564,-4.8421,-4.8338,-4.7824,-4.7467,-4.7353,-4.7283,-4.712,-4.6833,-4.6528,-4.6353,-4.6418,-4.6418,-4.6458,-4.6482,-4.5817,-4.5647,-4.5526,-4.5287,-4.5057,-4.4986,-4.4978,-4.5339,-4.587,-4.6089,-4.6366,-4.6267,-4.5957,-4.5149,-4.4525,-4.4452,-4.4415,-4.436,-4.4195,-4.4103,-4.3809,-4.3479,-4.3589,-4.3975,-4.3809,-4.3938,-4.4268,-4.4654,-4.4837,-4.5057,-4.5443,-4.5663,-6.6894,-6.6894,-6.6836,-6.707,-6.7519,-6.791,-6.834,-6.8789,-6.9219,-6.9472,-6.9472,-6.9414,-6.9394,-6.9394,-6.9453,-6.959,-7.0078,-7.0449,-7.0625,-7.0547,-7.0273,-7.0019,-6.9687,-6.8379,-6.7363,-6.7344,-6.7274,-6.7073,-6.6778,-6.668,-6.6644,-6.675,-6.6855,-6.6777,-6.6894,-6.6914,-6.6855,-6.6797,-6.6484,-6.6035,-6.5547,-6.5429,-6.447,-6.3276,-6.2113,-6.1358,-6.0954,-6.0839,-6.0569,-6.0223,-6.0069,-5.9319,-5.8069,-5.7627,-5.728,-5.6338,-5.6145,-5.5145,-5.4645,-5.4376,-5.3876,-5.2605,-5.2713,-5.1944,-5.0951,-5.0156,-4.9283,-4.8621,-4.8327,-4.8458,-4.8792,-4.8359,-4.819,-4.842,-4.8518,-4.8426,-4.8326,-4.7819,-4.7414,-4.7462,-4.7343,-4.7367,-4.722,-4.6887,-4.6805,-4.6781,-4.596,-4.5734,-4.6307,-4.631,-4.6346,-4.6663,-4.6768,-4.6849,-4.6801,-4.6379,-4.5663,-4.5278,-4.5223,-4.5223,-4.5241,-4.5002,-4.4764,-4.4525,-4.4378,-4.4654,-4.4929,-4.4672,-4.458,-4.5094,-4.5516,-4.5755,-4.5975,-4.6177,-4.6361,-6.709,-6.7148,-6.789,-6.8203,-6.8359,-6.916,-6.957,-6.9609,-6.9746,-7.0058,-6.9883,-6.9824,-7.0058,-6.9863,-6.9922,-7.0293,-7.0898,-7.1484,-7.1699,-7.1621,-7.1152,-7.0918,-7.0547,-6.9687,-6.8847,-6.8594,-6.7949,-6.7441,-6.6992,-6.6914,-6.6992,-6.709,-6.7148,-6.7402,-6.7344,-6.7148,-6.7207,-6.7226,-6.6933,-6.6484,-6.5976,-6.6128,-6.5341,-6.3638,-6.2247,-6.1435,-6.0935,-6.08,-6.0762,-6.08,-6.08,-5.955,-5.8261,-5.7896,-5.7953,-5.6434,-5.678,-5.6222,-5.5453,-5.528,-5.4895,-5.3528,-5.359,-5.301,-5.1684,-5.0772,-4.9959,-4.925,-4.8967,-4.928,-4.923,-4.9141,-4.9015,-4.9143,-4.9449,-4.9567,-4.9433,-4.8637,-4.8484,-4.8528,-4.8656,-4.869,-4.841,-4.8085,-4.8087,-4.7895,-4.6983,-4.6553,-4.7129,-4.7167,-4.6918,-4.7042,-4.7098,-4.7019,-4.6948,-4.6929,-4.6195,-4.592,-4.5883,-4.6049,-4.614,-4.6287,-4.6122,-4.5681,-4.559,-4.5718,-4.5681,-4.5424,-4.5553,-4.6049,-4.6342,-4.6544,-4.6728,-4.6893,-4.7058,-6.7988,-6.7988,-6.8125,-6.8203,-6.8457,-6.9824,-7.0449,-7.0625,-7.1172,-7.1543,-7.1504,-7.1523,-7.1426,-7.1465,-7.1543,-7.166,-7.1699,-7.1933,-7.1992,-7.1992,-7.1719,-7.166,-7.1484,-7.1035,-7.0644,-6.9805,-6.8535,-6.7324,-6.7129,-6.6914,-6.7461,-6.7871,-6.8008,-6.8262,-6.8535,-6.8398,-6.7871,-6.7695,-6.7233,-6.6669,-6.6477,-6.6138,-6.5414,-6.346,-6.2074,-6.1185,-6.0896,-6.08,-6.08,-6.08,-6.08,-6.0146,-5.9338,-5.9204,-5.9011,-5.8415,-5.755,-5.6857,-5.6395,-5.5876,-5.5299,-5.4485,-5.4011,-5.3278,-5.2162,-5.1448,-5.086,-5.0841,-5.0847,-5.1153,-5.0916,-5.057,-5.0522,-5.0502,-5.0336,-5.0394,-5.0337,-5.0124,-4.9853,-4.9777,-4.9912,-4.9872,-4.9373,-4.897,-4.8816,-4.839,-4.7564,-4.7329,-4.7688,-4.7277,-4.6582,-4.6903,-4.7293,-4.7187,-4.7039,-4.7095,-4.6819,-4.6526,-4.6526,-4.6874,-4.7113,-4.7645,-4.7572,-4.6838,-4.6342,-4.6195,-4.614,-4.6159,-4.6416,-4.6856,-4.7095,-4.7297,-4.7462,-4.7609,-4.7774,-6.8847,-6.8867,-6.8847,-6.9082,-6.959,-7.0332,-7.0976,-7.1387,-7.1816,-7.1992,-7.1992,-7.1992,-7.1992,-7.1992,-7.1992,-7.1992,-7.1992,-7.1992,-7.1992,-7.1992,-7.1992,-7.1992,-7.1894,-7.1601,-7.1133,-7.0351,-6.9023,-6.8222,-6.8242,-6.8262,-6.8398,-6.8672,-6.8847,-6.9101,-6.9199,-6.8594,-6.8262,-6.8008,-6.7367,-6.6794,-6.65,-6.5986,-6.4696,-6.3407,-6.2151,-6.132,-6.0819,-6.08,-6.08,-6.08,-6.08,-6.055,-6.03,-6.0069,-5.9781,-5.9011,-5.8146,-5.7434,-5.6953,-5.6184,-5.5338,-5.4605,-5.4125,-5.3403,-5.2532,-5.1949,-5.1799,-5.1794,-5.1833,-5.2011,-5.191,-5.1585,-5.1327,-5.1256,-5.0971,-5.0721,-5.0721,-5.0702,-5.0622,-5.0538,-5.035,-5.0155,-4.9988,-4.9666,-4.9458,-4.8869,-4.8114,-4.8112,-4.832,-4.7692,-4.6871,-4.7217,-4.7703,-4.7666,-4.7553,-4.7517,-4.748,-4.7223,-4.7113,-4.7462,-4.77,-4.8067,-4.8031,-4.759,-4.7186,-4.6874,-4.7168,-4.7388,-4.7535,-4.7572,-4.7719,-4.7865,-4.8104,-4.8306,-4.8324,-6.9687,-6.9726,-6.9668,-7.0058,-7.0664,-7.0918,-7.1347,-7.1914,-7.1972,-7.1992,-7.1992,-7.1992,-7.1992,-7.1992,-7.1992,-7.1992,-7.1992,-7.1992,-7.1992,-7.1992,-7.1992,-7.1992,-7.1777,-7.1406,-7.1074,-7.1055,-7.0449,-6.9805,-6.9297,-6.9238,-6.9453,-6.9551,-6.9609,-6.9609,-6.9551,-6.8691,-6.834,-6.787,-6.7257,-6.6672,-6.6063,-6.5114,-6.4037,-6.3103,-6.2267,-6.1416,-6.0877,-6.08,-6.08,-6.08,-6.08,-6.0781,-6.0781,-6.0781,-6.0165,-5.9069,-5.8684,-5.8069,-5.7338,-5.6511,-5.5857,-5.5338,-5.4434,-5.3772,-5.3403,-5.3053,-5.2778,-5.2626,-5.2636,-5.2539,-5.2444,-5.1795,-5.1443,-5.1342,-5.1028,-5.0766,-5.0891,-5.0864,-5.0598,-5.0527,-5.0492,-5.023,-4.9904,-4.9803,-4.948,-4.9226,-4.8477,-4.8583,-4.8701,-4.8326,-4.7809,-4.796,-4.8197,-4.8197,-4.8141,-4.8067,-4.8031,-4.7884,-4.781,-4.7976,-4.8104,-4.8269,-4.8122,-4.7976,-4.8012,-4.781,-4.8214,-4.8324,-4.8104,-4.8031,-4.8233,-4.8324,-4.8324,-4.8324,-4.8324,-7.0566,-7.0566,-7.0527,-7.0605,-7.082,-7.1465,-7.1855,-7.1972,-7.1992,-7.1992,-7.1992,-7.1992,-7.1992,-7.1992,-7.1992,-7.1992,-7.1992,-7.1992,-7.1992,-7.1992,-7.1992,-7.2051,-7.2031,-7.1953,-7.1797,-7.1738,-7.164,-7.0801,-7.0097,-6.9765,-6.9961,-7.0332,-7.0039,-6.9805,-7.039,-6.8975,-6.7975,-6.7789,-6.6974,-6.6011,-6.5086,-6.4109,-6.3209,-6.2324,-6.1535,-6.0993,-6.0819,-6.08,-6.08,-6.08,-6.08,-6.08,-6.08,-6.08,-6.0762,-6.0339,-5.98,-5.8992,-5.8165,-5.7159,-5.6601,-5.6026,-5.5187,-5.4715,-5.4258,-5.4245,-5.4163,-5.4737,-5.4224,-5.3421,-5.2552,-5.1789,-5.1281,-5.106,-5.0919,-5.113,-5.1405,-5.1197,-5.09,-5.0364,-5.0277,-4.9881,-4.9485,-4.9495,-4.9448,-4.9221,-4.9042,-4.9089,-4.902,-4.864,-4.8261,-4.8273,-4.8324,-4.8324,-4.8324,-4.8324,-4.8324,-4.8324,-4.8324,-4.8324,-4.8324,-4.8324,-4.8324,-4.8233,-4.8324,-4.8324,-4.8324,-4.8324,-4.8324,-4.8324,-4.8324,-4.8324,-4.8324,-4.8324,-4.8343,-7.0586,-7.1406,-7.0918,-7.0996,-7.1406,-7.1347,-7.1562,-7.1933,-7.1992,-7.1992,-7.1992,-7.1992,-7.1992,-7.1992,-7.1992,-7.1992,-7.1992,-7.1992,-7.1992,-7.2012,-7.2051,-7.2265,-7.2539,-7.2305,-7.2148,-7.2461,-7.2226,-7.1719,-7.0996,-7.0898,-7.1152,-7.123,-7.1074,-7.1055,-7.1046,-6.9514,-6.8839,-6.8208,-6.7142,-6.581,-6.4812,-6.3815,-6.2897,-6.2117,-6.1247,-6.0877,-6.08,-6.08,-6.08,-6.08,-6.08,-6.08,-6.08,-6.0742,-6.0627,-6.0031,-6.0223,-5.9819,-5.8969,-5.7541,-5.6918,-5.6352,-5.537,-5.4364,-5.4181,-5.405,-5.3803,-5.3329,-5.3183,-5.2783,-5.2265,-5.1508,-5.1377,-5.1175,-5.0898,-5.1343,-5.1682,-5.1556,-5.1247,-5.0648,-5.0025,-4.9655,-4.9267,-4.9126,-4.9121,-4.904,-4.8971,-4.907,-4.9096,-4.8952,-4.8577,-4.829,-4.8306,-4.8324,-4.8324,-4.8324,-4.8343,-4.8324,-4.8324,-4.8324,-4.8324,-4.8324,-4.8324,-4.8324,-4.8324,-4.8324,-4.8324,-4.8324,-4.8324,-4.8324,-4.8324,-4.8416,-4.8489,-4.8416,-4.8545,-6.9401,-7.0846,-7.0506,-7.0762,-7.1308,-7.0859,-7.1055,-7.164,-7.1914,-7.1992,-7.1992,-7.1992,-7.1992,-7.1992,-7.1992,-7.1992,-7.1992,-7.1992,-7.1992,-7.2031,-7.2265,-7.2558,-7.2656,-7.2402,-7.2558,-7.2988,-7.2265,-7.1914,-7.1914,-7.1855,-7.1758,-7.1971,-7.1445,-7.1479,-7.1044,-6.9675,-6.8442,-6.7821,-6.6723,-6.5499,-6.4449,-6.3699,-6.2743,-6.1901,-6.1208,-6.08,-6.08,-6.08,-6.08,-6.08,-6.08,-6.08,-6.08,-6.0762,-6.0589,-6.02,-6.0344,-6.0035,-5.9026,-5.7832,-5.6747,-5.5912,-5.4977,-5.3792,-5.3244,-5.2975,-5.2779,-5.2303,-5.1905,-5.1771,-5.1424,-5.076,-5.0804,-5.0914,-5.1058,-5.1518,-5.1907,-5.1825,-5.1663,-5.1154,-5.0453,-4.9584,-4.9214,-4.8878,-4.8746,-4.8744,-4.8863,-4.9043,-4.9024,-4.8992,-4.8725,-4.8382,-4.871,-4.8636,-4.8398,-4.8379,-4.8379,-4.8361,-4.8361,-4.8324,-4.8324,-4.8324,-4.8324,-4.8324,-4.8324,-4.8324,-4.8324,-4.8324,-4.8324,-4.8324,-4.8361,-4.86,-4.8691,-4.8673,-4.8948,-6.6396,-6.8074,-6.9023,-6.9472,-6.9687,-7.039,-7.0683,-7.084,-7.1562,-7.1836,-7.1875,-7.1992,-7.1992,-7.1992,-7.1992,-7.1992,-7.1992,-7.1992,-7.1992,-7.2265,-7.2715,-7.2656,-7.2617,-7.2676,-7.2715,-7.2344,-7.1992,-7.1953,-7.1933,-7.179,-7.1857,-7.1889,-7.1362,-7.0883,-7.016,-6.9013,-6.752,-6.681,-6.5955,-6.4987,-6.3943,-6.318,-6.2493,-6.1281,-6.0858,-6.08,-6.08,-6.0757,-6.069,-6.069,-6.0537,-6.0498,-6.0416,-6.046,-6.0287,-6.0219,-5.9928,-5.9512,-5.852,-5.772,-5.6871,-5.5674,-5.4401,-5.3249,-5.2673,-5.2258,-5.2032,-5.1694,-5.1018,-5.0678,-5.0235,-4.9787,-5.0096,-5.0861,-5.1417,-5.1861,-5.2195,-5.2266,-5.2038,-5.1639,-5.0974,-5.0168,-4.9377,-4.9085,-4.8643,-4.8605,-4.8779,-4.8945,-4.8897,-4.8829,-4.8639,-4.8624,-4.9134,-4.9077,-4.8581,-4.86,-4.8875,-4.8673,-4.8471,-4.8398,-4.8324,-4.8324,-4.8324,-4.8324,-4.8324,-4.8324,-4.8398,-4.8581,-4.8636,-4.8416,-4.8508,-4.9095,-4.9554,-4.9774,-5.0013,-6.4696,-6.5354,-6.5782,-6.719,-6.9085,-6.8929,-6.9201,-6.9765,-7.0137,-7.0664,-7.123,-7.1738,-7.1992,-7.1953,-7.1992,-7.1992,-7.1992,-7.1992,-7.1972,-7.2051,-7.2285,-7.25,-7.2487,-7.241,-7.2324,-7.2248,-7.1991,-7.169,-7.166,-7.1602,-7.1203,-7.1005,-7.0971,-7.079,-6.9936,-6.8471,-6.7058,-6.6044,-6.5359,-6.4449,-6.3559,-6.2719,-6.1993,-6.0954,-6.08,-6.08,-6.0757,-6.0482,-6.0411,-6.0269,-5.9905,-5.9791,-5.9733,-5.9714,-5.9695,-5.9622,-5.925,-5.847,-5.7582,-5.6911,-5.6009,-5.4466,-5.3514,-5.2938,-5.2358,-5.1677,-5.1026,-5.0488,-4.9982,-4.9709,-4.9806,-4.9658,-4.9952,-5.1029,-5.1738,-5.2179,-5.2509,-5.2582,-5.2435,-5.2091,-5.1559,-5.0879,-5.0089,-4.9354,-4.8859,-4.8493,-4.8677,-4.8829,-4.8744,-4.8748,-4.866,-4.8845,-4.9373,-4.9664,-4.9224,-4.9297,-4.9462,-4.904,-4.8636,-4.8526,-4.8434,-4.8324,-4.8324,-4.8324,-4.8526,-4.8765,-4.8948,-4.9058,-4.9095,-4.9114,-4.9462,-5.0013,-5.0417,-5.0765,-5.1041,-6.3064,-6.3257,-6.3017,-6.4634,-6.7176,-6.704,-6.7321,-6.7981,-6.8574,-6.931,-7.0293,-7.0918,-7.1174,-7.1153,-7.1113,-7.1328,-7.1367,-7.1504,-7.1699,-7.1933,-7.2265,-7.2375,-7.2285,-7.2061,-7.1797,-7.1919,-7.1547,-7.1082,-7.1067,-7.1295,-7.0932,-7.0593,-7.0581,-7.0331,-6.9518,-6.8171,-6.6827,-6.5917,-6.5051,-6.418,-6.3328,-6.2526,-6.1723,-6.0911,-6.0647,-6.0533,-6.0411,-6.0161,-5.9916,-5.9733,-5.9448,-5.9106,-5.8954,-5.884,-5.8783,-5.8622,-5.8098,-5.7209,-5.6519,-5.5484,-5.4914,-5.3986,-5.3074,-5.2702,-5.2234,-5.1444,-5.0704,-5.026,-4.9577,-4.9297,-4.9939,-5.0073,-5.0478,-5.1518,-5.1775,-5.2179,-5.2766,-5.2986,-5.2784,-5.2491,-5.1958,-5.1408,-5.0802,-4.9976,-4.9077,-4.86,-4.8476,-4.8568,-4.8513,-4.8569,-4.8753,-4.9064,-4.9648,-4.9829,-4.9958,-5.0031,-4.9958,-4.9279,-4.8912,-4.8746,-4.8618,-4.8563,-4.8893,-4.9407,-4.9554,-4.9481,-4.9719,-5.0123,-5.0105,-4.9976,-5.0343,-5.0692,-5.1114,-5.1444,-5.1811,-6.1377,-6.1973,-6.1281,-6.2136,-6.4081,-6.4821,-6.5215,-6.5682,-6.7087,-6.8299,-6.9186,-6.9414,-6.9467,-6.9512,-6.968,-6.998,-7.043,-7.0547,-7.0871,-7.1512,-7.1725,-7.2016,-7.1686,-7.1269,-7.0761,-7.0336,-7.0194,-7.017,-7.0295,-7.0768,-7.0504,-6.9823,-6.9475,-6.923,-6.8629,-6.7661,-6.6686,-6.5897,-6.5051,-6.4091,-6.322,-6.2331,-6.1416,-6.0698,-6.0283,-6.0132,-6.0025,-5.9677,-5.9424,-5.9314,-5.9106,-5.8918,-5.8918,-5.8442,-5.8465,-5.8921,-5.7398,-5.6517,-5.6143,-5.4386,-5.3823,-5.3849,-5.3041,-5.2601,-5.2656,-5.1885,-5.093,-5.0747,-5.049,-5.0563,-5.0747,-5.0839,-5.1353,-5.183,-5.2123,-5.2344,-5.2949,-5.3206,-5.2968,-5.2858,-5.2417,-5.1885,-5.1371,-5.0674,-4.9517,-4.8857,-4.8471,-4.8324,-4.8361,-4.8638,-4.8935,-4.9469,-4.9994,-5.0325,-5.0527,-5.0637,-5.0435,-4.9701,-4.9169,-4.8948,-4.9077,-4.926,-4.9738,-5.0398,-5.0251,-4.9866,-5.0563,-5.1353,-5.1298,-5.1224,-5.1022,-5.1279,-5.1701,-5.2068,-5.2325,-6.0454,-6.1204,-6.0916,-6.1189,-6.1901,-6.2728,-6.346,-6.4354,-6.5983,-6.7329,-6.8183,-6.8705,-6.8997,-6.9011,-6.8862,-6.8991,-6.9325,-6.9467,-6.9891,-7.064,-7.0628,-7.0439,-7.0223,-6.9934,-6.9489,-6.9136,-6.9052,-6.9371,-6.9906,-7.0148,-6.9667,-6.8956,-6.8032,-6.7417,-6.7327,-6.6782,-6.609,-6.5692,-6.4726,-6.3628,-6.2786,-6.1759,-6.0735,-5.998,-5.9739,-5.9644,-5.9592,-5.9195,-5.8971,-5.8858,-5.8614,-5.8277,-5.8221,-5.7735,-5.7809,-5.8013,-5.6871,-5.6098,-5.523,-5.3897,-5.3371,-5.3335,-5.3206,-5.2858,-5.3041,-5.2252,-5.1756,-5.1481,-5.1206,-5.1261,-5.1426,-5.1555,-5.1995,-5.2601,-5.2876,-5.2894,-5.3188,-5.3206,-5.3115,-5.3096,-5.2821,-5.2399,-5.1903,-5.1353,-5.0325,-4.9609,-4.926,-4.871,-4.86,-4.9022,-4.9391,-4.9905,-5.0417,-5.0802,-5.1041,-5.0986,-5.0967,-5.0508,-4.9719,-4.9077,-4.9334,-4.9958,-5.0325,-5.0875,-5.0545,-5.0288,-5.1224,-5.205,-5.2454,-5.2491,-5.2123,-5.2032,-5.2417,-5.2601,-5.2637,-5.9569,-6.0319,-6.0339,-6.0531,-6.0858,-6.1396,-6.2209,-6.319,-6.4402,-6.5422,-6.6217,-6.6806,-6.6966,-6.697,-6.7096,-6.7641,-6.7834,-6.7936,-6.8743,-6.944,-6.9166,-6.9213,-6.9085,-6.8559,-6.8251,-6.7975,-6.7994,-6.8282,-6.8686,-6.909,-6.8744,-6.7821,-6.6609,-6.6494,-6.6391,-6.605,-6.5627,-6.5092,-6.41,-6.2853,-6.2015,-6.1101,-5.9981,-5.9553,-5.9272,-5.9158,-5.9047,-5.8756,-5.8442,-5.8275,-5.7997,-5.7585,-5.7511,-5.7122,-5.7177,-5.7254,-5.6701,-5.5776,-5.4644,-5.3726,-5.3316,-5.3225,-5.3206,-5.3353,-5.339,-5.2894,-5.2564,-5.2252,-5.1811,-5.194,-5.2234,-5.2362,-5.2582,-5.317,-5.3188,-5.3188,-5.3188,-5.3206,-5.3206,-5.3206,-5.3151,-5.2766,-5.2454,-5.1867,-5.1151,-5.0618,-5.0105,-4.9572,-4.9077,-4.9462,-5.0013,-5.0582,-5.1059,-5.1499,-5.1481,-5.1151,-5.1169,-5.1206,-5.0417,-4.9444,-5.0306,-5.1041,-5.1187,-5.1389,-5.1518,-5.1738,-5.2105,-5.2637,-5.2711,-5.2894,-5.2949,-5.2986,-5.3206,-5.3096,-5.2931,-5.8742,-5.9454,-5.9511,-6.0031,-6.0723,-6.0896,-6.1377,-6.2127,-6.2204,-6.2858,-6.3743,-6.3984,-6.4219,-6.3916,-6.3834,-6.4699,-6.5782,-6.5999,-6.6973,-6.7846,-6.7699,-6.7936,-6.7763,-6.7282,-6.6898,-6.6936,-6.709,-6.7244,-6.7269,-6.7822,-6.7745,-6.7034,-6.6068,-6.5685,-6.5408,-6.5028,-6.4851,-6.4419,-6.341,-6.2259,-6.1431,-6.0304,-5.9513,-5.9113,-5.8884,-5.8732,-5.8549,-5.8351,-5.8123,-5.8015,-5.7978,-5.7951,-5.751,-5.6473,-5.6932,-5.7005,-5.6363,-5.5427,-5.484,-5.4087,-5.3482,-5.3463,-5.3243,-5.3647,-5.372,-5.3353,-5.3041,-5.2968,-5.2729,-5.2894,-5.3096,-5.3059,-5.3059,-5.3206,-5.3206,-5.3206,-5.3206,-5.3206,-5.3206,-5.3206,-5.3206,-5.3023,-5.2931,-5.2454,-5.194,-5.1701,-5.1261,-5.1041,-5.0545,-5.0105,-5.0692,-5.1426,-5.1885,-5.227,-5.2068,-5.1518,-5.1206,-5.1206,-5.0692,-5.005,-5.1077,-5.1867,-5.194,-5.2197,-5.2821,-5.3023,-5.2582,-5.2491,-5.2601,-5.2839,-5.317,-5.3206,-5.3206,-5.3206,-5.3115,-5.8184,-5.9473,-5.9511,-6.0012,-6.0742,-6.0781,-6.1281,-6.2031,-6.2108,-6.2589,-6.3397,-6.3397,-6.3224,-6.3402,-6.3435,-6.3705,-6.3935,-6.4224,-6.482,-6.534,-6.5647,-6.5474,-6.5474,-6.5551,-6.5359,-6.5551,-6.5878,-6.6295,-6.6811,-6.711,-6.6562,-6.5996,-6.5104,-6.4557,-6.3991,-6.3445,-6.3698,-6.3596,-6.2523,-6.1609,-6.0706,-5.965,-5.9041,-5.8573,-5.84,-5.8282,-5.8168,-5.8078,-5.7978,-5.7978,-5.7978,-5.7978,-5.7868,-5.7042,-5.6895,-5.6895,-5.6253,-5.5629,-5.5776,-5.4803,-5.3995,-5.3775,-5.3518,-5.328,-5.3408,-5.3427,-5.3243,-5.3206,-5.3206,-5.3206,-5.3206,-5.3206,-5.3316,-5.3408,-5.3371,-5.328,-5.328,-5.3261,-5.3261,-5.3206,-5.3206,-5.3188,-5.3133,-5.3041,-5.2601,-5.2546,-5.2399,-5.216,-5.1811,-5.1298,-5.1316,-5.205,-5.2417,-5.2711,-5.2362,-5.183,-5.1463,-5.1132,-5.0784,-5.0747,-5.1555,-5.2215,-5.2491,-5.2747,-5.2968,-5.2747,-5.2307,-5.2344,-5.2546,-5.2894,-5.3206,-5.3206,-5.3206,-5.3206,-5.3206,-5.728,-5.8434,-5.8511,-5.9011,-5.9723,-5.98,-6.03,-6.1012,-6.1416,-6.1897,-6.2262,-6.2281,-6.23,-6.2267,-6.2243,-6.2474,-6.2858,-6.2979,-6.346,-6.3916,-6.3449,-6.3858,-6.4032,-6.4045,-6.4147,-6.4295,-6.4372,-6.4607,-6.5207,-6.491,-6.4312,-6.4065,-6.3577,-6.3162,-6.2655,-6.2294,-6.2067,-6.1937,-6.14,-6.063,-5.9841,-5.9089,-5.8474,-5.8125,-5.7997,-5.7978,-5.7978,-5.7978,-5.7978,-5.7978,-5.7978,-5.7978,-5.785,-5.7262,-5.6198,-5.6033,-5.5427,-5.5482,-5.5647,-5.4656,-5.4308,-5.4106,-5.3702,-5.3555,-5.3463,-5.3518,-5.3335,-5.3206,-5.3206,-5.3206,-5.3206,-5.3243,-5.3463,-5.3665,-5.3537,-5.339,-5.3371,-5.3353,-5.3298,-5.3225,-5.3206,-5.3206,-5.3206,-5.3206,-5.3188,-5.2986,-5.2876,-5.2784,-5.2454,-5.1995,-5.2068,-5.2564,-5.2821,-5.3023,-5.2582,-5.2234,-5.1977,-5.1738,-5.1573,-5.1701,-5.2252,-5.2546,-5.2839,-5.2858,-5.2839,-5.2619,-5.2472,-5.2417,-5.2564,-5.2931,-5.3206,-5.3206,-5.3206,-5.3206,-5.3206,-5.6222,-5.7069,-5.7069,-5.7742,-5.8261,-5.8415,-5.8819,-5.9454,-6.0223,-6.0723,-6.0858,-6.0858,-6.0993,-6.1185,-6.1185,-6.1493,-6.1839,-6.2016,-6.2267,-6.3065,-6.2663,-6.2676,-6.2734,-6.3028,-6.287,-6.287,-6.2959,-6.3097,-6.2579,-6.2541,-6.2463,-6.1882,-6.1883,-6.1787,-6.1707,-6.1158,-6.0739,-6.0101,-5.977,-5.92,-5.9007,-5.8437,-5.7978,-5.7997,-5.7978,-5.7978,-5.7978,-5.7978,-5.7978,-5.7978,-5.7868,-5.7831,-5.7171,-5.6785,-5.5647,-5.5115,-5.4693,-5.5097,-5.5262,-5.4491,-5.4179,-5.3959,-5.372,-5.361,-5.3518,-5.3445,-5.3261,-5.3427,-5.3482,-5.328,-5.3206,-5.3225,-5.339,-5.35,-5.3463,-5.3427,-5.3482,-5.3408,-5.3261,-5.3206,-5.3206,-5.3206,-5.3206,-5.3206,-5.3206,-5.3188,-5.317,-5.3133,-5.2968,-5.2546,-5.2656,-5.2949,-5.3041,-5.3133,-5.3004,-5.2692,-5.2564,-5.238,-5.2215,-5.2142,-5.2325,-5.2711,-5.317,-5.3078,-5.2968,-5.2931,-5.2821,-5.2766,-5.2766,-5.3004,-5.3206,-5.3206,-5.3206,-5.3206,-5.3206,-5.6203,-5.7049,-5.7723,-5.8127,-5.828,-5.83,-5.8377,-5.8607,-5.8781,-5.9627,-6.0608,-6.0742,-6.08,-6.08,-6.08,-6.1031,-6.1065,-6.1217,-6.1238,-6.1288,-6.1215,-6.1239,-6.1048,-6.1378,-6.1406,-6.1525,-6.1618,-6.1684,-6.1356,-6.1267,-6.1384,-6.1476,-6.113,-6.0654,-6.0636,-6.0047,-5.9382,-5.8781,-5.8565,-5.8419,-5.8327,-5.8235,-5.7978,-5.7978,-5.7978,-5.7978,-5.7978,-5.7978,-5.7978,-5.7941,-5.7354,-5.651,-5.5317,-5.5152,-5.484,-5.4473,-5.4344,-5.4748,-5.4932,-5.4528,-5.4179,-5.3995,-5.3775,-5.35,-5.3335,-5.3261,-5.3353,-5.361,-5.3647,-5.3371,-5.3225,-5.3243,-5.3335,-5.339,-5.339,-5.3463,-5.3555,-5.339,-5.3225,-5.3206,-5.3206,-5.3206,-5.3206,-5.3206,-5.3206,-5.3206,-5.3206,-5.3188,-5.3188,-5.2949,-5.2894,-5.3096,-5.3133,-5.317,-5.3115,-5.3059,-5.2858,-5.2747,-5.2582,-5.2509,-5.2454,-5.2821,-5.3206,-5.3188,-5.3115,-5.3078,-5.3059,-5.3096,-5.3151,-5.3206,-5.3206,-5.3206,-5.3206,-5.3206,-5.3206,-5.5453,-5.5972,-5.678,-5.7146,-5.7146,-5.7146,-5.7338,-5.7665,-5.7723,-5.8454,-5.9646,-6.005,-6.0416,-6.0704,-6.08,-6.0608,-6.0527,-6.0512,-6.0399,-6.014,-5.9996,-5.9931,-5.9909,-6.0002,-6.0131,-6.0292,-6.0222,-6.0191,-6.0011,-5.9741,-5.9742,-6.0034,-5.9575,-5.941,-5.9355,-5.8859,-5.8492,-5.8033,-5.7978,-5.7978,-5.7978,-5.7978,-5.7978,-5.7978,-5.7978,-5.7978,-5.7978,-5.7978,-5.7978,-5.796,-5.7611,-5.6602,-5.5629,-5.5188,-5.462,-5.4069,-5.3904,-5.4216,-5.4583,-5.4473,-5.4087,-5.3959,-5.3665,-5.3316,-5.3757,-5.3683,-5.328,-5.3463,-5.3445,-5.3206,-5.3206,-5.3225,-5.361,-5.3794,-5.3482,-5.3316,-5.3353,-5.328,-5.3206,-5.3206,-5.3206,-5.3206,-5.3206,-5.3206,-5.3206,-5.3206,-5.3206,-5.3206,-5.3206,-5.3206,-5.3206,-5.3206,-5.3206,-5.3206,-5.3188,-5.3133,-5.3059,-5.2968,-5.2913,-5.2894,-5.2858,-5.3023,-5.3206,-5.3188,-5.3188,-5.3188,-5.3188,-5.3206,-5.3206,-5.3206,-5.3206,-5.3206,-5.3206,-5.3206,-5.3206,-5.4414,-5.4607,-5.5395,-5.5701,-5.5621,-5.5638,-5.6038,-5.6591,-5.6733,-5.7232,-5.8116,-5.8854,-5.9723,-6.0377,-6.0604,-6.0348,-6.0217,-6.024,-5.992,-5.9559,-5.9392,-5.9338,-5.9284,-5.9251,-5.9234,-5.9122,-5.9009,-5.8706,-5.8409,-5.841,-5.8447,-5.8125,-5.807,-5.807,-5.8088,-5.8033,-5.7978,-5.7997,-5.7978,-5.7978,-5.7978,-5.7978,-5.7978,-5.7978,-5.7978,-5.7978,-5.7978,-5.7978,-5.7978,-5.785,-5.7666,-5.6565,-5.5684,-5.5023,-5.4344,-5.3757,-5.3408,-5.372,-5.3959,-5.372,-5.3794,-5.3812,-5.3427,-5.3463,-5.3885,-5.3775,-5.3353,-5.3243,-5.3225,-5.3206,-5.3206,-5.3335,-5.3739,-5.394,-5.3537,-5.3225,-5.3225,-5.3206,-5.3206,-5.3206,-5.3206,-5.3206,-5.3206,-5.3206,-5.3206,-5.3206,-5.3206,-5.3206,-5.3206,-5.3206,-5.3206,-5.3206,-5.3206,-5.3206,-5.3206,-5.3188,-5.3133,-5.3133,-5.3078,-5.3151,-5.3206,-5.3206,-5.3206,-5.3206,-5.3206,-5.3206,-5.3206,-5.3206,-5.3206,-5.3206,-5.3206,-5.3206,-5.3206,-5.3206,-5.3206,-5.3857,-5.4568,-5.5357,-5.5493,-5.5199,-5.5193,-5.5149,-5.5047,-5.5336,-5.5938,-5.669,-5.7305,-5.8261,-5.9742,-5.9758,-5.967,-5.9731,-5.9758,-5.9678,-5.9459,-5.8818,-5.8779,-5.8775,-5.8632,-5.8351,-5.8277,-5.8288,-5.8113,-5.7978,-5.8015,-5.8309,-5.8767,-5.8143,-5.8272,-5.8767,-5.8492,-5.7978,-5.7978,-5.7978,-5.7978,-5.7978,-5.7978,-5.7978,-5.7978,-5.7978,-5.7978,-5.7978,-5.7978,-5.7978,-5.7813,-5.7428,-5.64,-5.5629,-5.5042,-5.4454,-5.3977,-5.3573,-5.3647,-5.3812,-5.361,-5.3794,-5.3665,-5.3371,-5.3261,-5.35,-5.3482,-5.3225,-5.3225,-5.3206,-5.3206,-5.3225,-5.3335,-5.361,-5.361,-5.3371,-5.328,-5.3243,-5.3225,-5.3206,-5.3206,-5.3206,-5.3206,-5.3206,-5.3206,-5.3206,-5.3206,-5.3206,-5.3206,-5.3206,-5.3206,-5.3206,-5.3206,-5.3206,-5.3206,-5.3206,-5.3206,-5.3188,-5.3206,-5.3206,-5.3206,-5.3206,-5.3206,-5.3206,-5.3206,-5.3206,-5.3206,-5.3206,-5.3206,-5.3206,-5.3206,-5.3206,-5.3206,-5.3206,-5.3206,-5.3206]}]]